[[{"header":{"parameterUnit":"m.s-1","parameterCategory":2,"la1":30.5641,"la2":29.4642,"lo1":-89.4342,"lo2":-87.9343,"dy":0.0333,"dx":0.0333,"nx":46,"ny":34,"refTime":"2024-02-26T00:00:00:Z","depth":"0","parameterNumber":2,"parameterNumberName":"U-component_of_CURRENTS"},"data":[0,0,0,0,0,0,0,0,0,0,0,0,0,0,0,0,0,0,0,0,0,0,0,0,0,0,0,0,0,0,0,0,0,0,0,0,0,0,0,0,0,0.0211,0.0536,0.0115,-0.0214,0,0,0,0,0,0,0,0,0,0,0,0,0,0,0,0,0,0,0,0,0,0,0,0,0,0,0,0,0,0,0,0,0,0,0,0,0,0,0,0,0,0,0.0041,0.006,-0.0066,-0.0091,0,0,0,0,0,0,0,0,0,0,0,0,0,0,0,0,0,0,0,0,0,0,0,0,0,0,0,0,0,0,0,0,0,0,0,0,0,0,0,0,0,0,0.0143,0.0099,-0.0115,-0.0019,0,0,0,0,0,0,0,0,0,0,0,0,0,0,0,0,0,0,0,0,0,0,0,0,0,0,0,0,0,0,0,0,0,0,0,0,0,0,0,0,0,0,0.0802,0.0667,0.0239,0.008,0,0,0,0,0,0,0,0,0,0,0,0,0,0,0,0,0,0,0,0,0,0,0,0,0,0,0,0,0,0,0,0,0,0,0,0,0,0,0,0,0,0.0143,0.0283,0.0209,0.0113,0.0082,0,0,0,0,0,0,0,0,0,0,0,0,0,0,0,0,0,0,0,0,0,0,0,0,0,0,0,0,0,0,0,0,0,0,0,0,0,0,0,0,0,0.0201,0.0195,-0.0036,-0.0008,0.0165,0,0,0,0,0,0,0,0,0,0,0,0,0.0258,0.0626,0.078,0.1027,0.1401,0.1489,0.1247,0.1027,0.0967,0,0,0,0,0,0,0,0,0,0,0,0,0.0085,0.0173,0.0179,0,0,0,0,0,0.0044,-0.0041,-0.0173,-0.0049,0.0321,0,0,0,0,0,0,0,0,0,0.061,0.1258,0.1101,0.0786,0.0626,0.0665,0.0915,0.1118,0.1074,0.0838,0.0428,0.0077,-0.0044,0.0151,0.0489,0.0904,0.1173,0.1162,0,0,0,0,-0.0044,0.025,0.0467,0.031,0.0275,0,0,0,0,0,0.0,-0.0115,-0.0206,-0.0022,0.0321,0,0,0,0,0.0736,0.1604,0.1788,0.1881,0.2055,0.2076,0.1901,0.1623,0.1231,0.084,0.0615,0.0711,0.0937,0.1035,0.1005,0.0953,0.1027,0.1365,0.1011,0.0244,0.0313,0.0775,0.198,0.2736,0.2247,0.1939,0.1747,0.1324,0.0074,-0.1093,-0.1068,-0.0602,-0.0602,-0.1041,-0.1327,-0.1535,-0.1651,-0.0396,0.0357,-0.0118,0.0066,0.0247,0,0,0,0.0709,0.1582,0.1783,0.1838,0.1851,0.1717,0.1791,0.1931,0.1912,0.1769,0.1384,0.106,0.0934,0.1277,0.1865,0.1799,0.1296,0.1228,0.1618,0.122,0.0354,0.0324,0.0799,0.1783,0.2807,0.2777,0.2142,0.1728,0.1458,0.1439,0.1148,0.028,0.07,0.1445,0.0747,0.022,0,0,0,-0.0541,-0.1233,-0.0687,0.031,0,0,0.0706,0.1557,0.1747,0.1763,0.1733,0.1656,0.1549,0.1513,0,0,0,0.047,0.103,0.1019,0.0917,0,0.0382,0.1008,0.1252,0,0,0,0,0,0,0,0.0096,0.0599,0.1156,0.1423,0.1354,0.1239,0.1305,0,0,0.0011,0.0195,-0.033,-0.1437,-0.1923,-0.0069,0.1862,0,0,0,0.0525,0.1382,0.1829,0.1846,0.1634,0.1618,0.1741,0.1717,0.1601,0.159,0.175,0.1934,0.1942,0.1868,0,0,0.0711,0.1434,0.1535,0.1659,0.1288,0.0777,0.0634,0.0494,0.017,-0.008,0.0091,0.0291,0,0,0,0.0244,0.067,0.0926,0.067,0.0404,0.0673,0.1156,0.1346,0.1258,0.125,0,0.1198,0.2348,0.2184,0.1939,0.2351,0.2123,0.2178,0.1799,0.1409,0.1634,0.2151,0.256,0.2447,0.2065,0.1928,0.1807,0.1725,0.1758,0.1914,0.2145,0.2357,0.2376,0.234,0.2469,0.253,0.2351,0.1934,0.1544,0.1483,0.1541,0.0967,0.0637,0.109,0.1088,0.0799,0.0849,0.1033,0.1307,0.1555,0.1464,0.1398,0.1629,0.1884,0.1928,0.1983,0.142,0.1755,0.2914,0.2939,0.2497,0,0.0434,0.1033,0.1121,0.1327,0.1612,0,0,0.0448,0.0937,0.1074,0.1329,0.1645,0.195,0.2131,0.2184,0.2414,0.2681,0.2788,0.2851,0.2859,0.2722,0.225,0.1769,0.1601,0.1645,0.1865,0.1928,0.1914,0.2123,0.2277,0.2118,0.1725,0.1505,0.1563,0.161,0.1637,0.1744,0.187,0.1898,0.1994,0.1942,0.2041,0.248,0.2626,0.2458,0.0489,0.0846,0.097,0.0983,0.0915,0,0,0,0.0574,0.1206,0.1335,0.1568,0.1884,0.2151,0.2313,0.248,0.2895,0.3192,0.3098,0.2997,0.2969,0.2917,0.2738,0.2467,0.2195,0.1865,0.1675,0.1772,0.1964,0.2063,0.2,0.1873,0.1755,0.1684,0.1678,0.1673,0.1623,0.1568,0.1571,0.1612,0.1703,0.178,0.1857,0.2046,0.2192,0.2189,0.0211,0.0764,0.111,0,0,0,0,0,0.0659,0.148,0.173,0.1901,0.2098,0.2282,0.2428,0.2557,0.3186,0.3859,0.3483,0.29,0.2799,0.2799,0.2727,0.256,0.2222,0.1648,0.1258,0.1252,0.139,0.1491,0.1475,0.1456,0.1522,0.1593,0.1563,0.1439,0.131,0.1214,0.1198,0.131,0.1456,0.1522,0.1552,0.1629,0.1703,0.1736,0,0,0.0396,0.0876,0.0879,0.0797,0,0,0.0794,0.175,0.1991,0.209,0.2104,0.2085,0.2024,0.1956,0.1925,0,0.0978,0.2049,0.2219,0.2351,0.2368,0.2282,0.1925,0.1192,0.0689,0.0626,0.0676,0.0758,0.0846,0.0915,0.0983,0.1005,0.0926,0.0816,0.0766,0.0783,0.0871,0.1019,0.1148,0.1203,0.1252,0.1318,0.1382,0.1461,0,0,0.0673,0.1409,0.1588,0.2181,0.2708,0.2749,0.2475,0.2087,0.1895,0.1794,0.173,0.1656,0.156,0.1299,0.0618,0.0146,0,0.0623,0.1437,0.178,0.195,0.1945,0.1626,0.089,0.0319,0.017,0.0126,0.0107,0.0104,0.0124,0.0157,0.0173,0.0151,0.0154,0.0244,0.0368,0.0461,0.0563,0.0695,0.0829,0.0942,0.1016,0.1066,0.1063,0,0,0,0.0398,0.0799,0,0,0,0.0527,0.0942,0.0838,0.0879,0.0972,0.106,0.1096,0.1055,0.0805,0.0596,0,0.0544,0.1258,0.1557,0.1747,0.1758,0.1489,0.0868,0.0222,-0.0113,-0.0266,-0.0396,-0.0516,-0.0591,-0.0596,-0.0541,-0.0412,-0.0184,0.0036,0.0102,0.0115,0.0176,0.0272,0.0412,0.056,0.0665,0.0684,0.0651,0,0,0,0,0,0,0,0.0423,0.089,0.0824,0.0643,0.0591,0.0689,0.0824,0.0893,0.1038,0.1074,0.097,0,0.056,0.1236,0.1469,0.1656,0.1659,0.1464,0.109,0.0574,0.0088,-0.0269,-0.053,-0.0706,-0.0783,-0.0725,-0.0533,-0.0283,-0.006,0.0055,0.0069,0.003,-0.0003,0.0008,0.0099,0.025,0.0357,0.0371,0.0722,0,0,0,0,0,0,0.0261,0.0544,0.0538,0.0533,0.0569,0.0591,0.0667,0.0797,0.0879,0.0989,0.1016,0.095,0,0.0591,0.1277,0.1461,0.1579,0.1549,0.1409,0.1266,0.1077,0.0783,0.0442,0.0154,-0.0047,-0.011,-0.0019,0.0165,0.0316,0.0346,0.0286,0.0225,0.0192,0.0146,0.0044,-0.0019,0.0104,0.0255,0.0585,0.0967,0,0,0,0,0,0,0.0151,0.0385,0.0505,0.0618,0.0695,0.07,0.0777,0.0821,0.0865,0.0945,0,0,0,0.064,0.1327,0.1409,0.1434,0.1384,0.131,0.128,0.1285,0.1258,0.1184,0.1093,0.1019,0.0975,0.0967,0.0948,0.0882,0.0821,0.0744,0.0574,0.0393,0.0308,0.0244,0.0173,0.0228,0.0486,0.0662,0.058,0,0,0,0,0,0,0.0239,0.0497,0.0577,0.0692,0.0772,0.0766,0.0824,0.0893,0.0755,0.0299,-0.0041,0,0,0.0522,0.1137,0.1263,0.1299,0.1272,0.122,0.1209,0.1252,0.1307,0.1332,0.134,0.1395,0.1524,0.17,0.1873,0.1978,0.2002,0.2002,0.1785,0.1423,0.1104,0.0854,0.0731,0.0678,0.07,0.0613,0.047,0,0,0,0,0,0.022,0.0494,0.0533,0.0566,0.0673,0.0755,0.0835,0.0884,0,0.0354,0.0602,0.0494,0,0,0.0365,0.0887,0.1123,0.1231,0.1241,0.1192,0.1151,0.114,0.1112,0.1071,0.1096,0.1228,0.1442,0.1692,0.195,0.2167,0.2332,0.2398,0.2398,0.2269,0.1881,0.1274,0.0829,0.0744,0.0744,0.0648,0.0544,0,0.031,0.0313,0.0231,0,0.0214,0.0371,0.0379,0.0511,0.0618,0.07,0.078,0.0744,0.078,0.0956,0.0819,0.0607,0,0.0426,0.0942,0.1068,0.1159,0.1244,0.1263,0.1203,0.1126,0.1046,0.0937,0.0849,0.0876,0.103,0.1261,0.1522,0.1818,0.2123,0.2412,0.2623,0.2656,0.2587,0.2315,0.1643,0.0934,0.0656,0.0687,0.0667,0.0593,0,0.0404,0,0.006,0.0118,0,0.0088,0.0313,0.0541,0.0662,0.072,0.0769,0.0816,0.0829,0.0753,0.064,0.0588,0,0.0442,0.0964,0.1063,0.1137,0.1239,0.1269,0.1195,0.1096,0.1019,0.0928,0.086,0.0884,0.1027,0.1252,0.1527,0.1829,0.2153,0.2469,0.2793,0.2986,0.2917,0.2689,0.2263,0.1461,0.0722,0.0527,0.0544,0.0522,0,0.0184,0.0324,0.0275,0.0231,0.0255,0.0368,0.0549,0.0736,0.0835,0.0904,0.0928,0.0953,0.0912,0.0777,0.0717,0,0.0753,0.1467,0.1324,0.1145,0.1104,0.1198,0.125,0.1176,0.1088,0.1049,0.1033,0.1079,0.1261,0.1607,0.2052,0.2513,0.2931,0.3222,0.3356,0.3384,0.3422,0.3378,0.3109,0.2697,0.1865,0.0827,0.0374,0.036,0.0396,0.0118,0.0305,0.0481,0.0401,0.0275,0.0181,0.0299,0.0591,0.0827,0.1,0.1132,0.1206,0.1112,0.0744,0.0494,0,0.0775,0.1533,0.1401,0.1176,0.0997,0.0937,0.1041,0.1151,0.1126,0.1085,0.1167,0.1412,0.1829,0.2395,0.3046,0.3692,0.429,0.482,0.5254,0.548,0.5419,0.5087,0.4548,0.3873,0.3244,0.2337,0.1035,0.0228,0.0203,0.0409,0.0173,0.0266,0.033,0.0222,0.0143,0.0157,0.0308,0.0602,0.0884,0.1104,0.1316,0.1409,0.1277,0.1159,0,0.0854,0.1664,0.1494,0.1252,0.1071,0.0937,0.0857,0.0948,0.1187,0.1409,0.161,0.1972,0.2565,0.328,0.3988,0.4634,0.5219,0.5749,0.6232,0.6683,0.7062,0.721,0.7056,0.6622,0.5686,0.4436,0.3194,0.1829,0.0992,0.1063,0.1349,0.0228,0.0261,0.019,0.0115,0.0121,0.0162,0.0302,0.0607,0.0879,0.1096,0.1445,0.1695,0.1741,0.2022,0.2461,0.2357,0.1832,0.1387,0.1115,0.1025,0.1038,0.1121,0.1335,0.1747,0.2266,0.2862,0.3584,0.4326,0.5002,0.5598,0.6133,0.6641,0.7108,0.7526,0.7894,0.8218,0.8449,0.8413,0.8086,0.7479,0.6301,0.4592,0.2881,0.2153,0.239,0.2519,0.0217,0.0154,0.011,0.0104,0.0113,0.0146,0.0283,0.0681,0.1022,0.1176,0.1494,0.1975,0.2173,0.22,0.2156,0.1879,0.159,0.1384,0.1332,0.1445,0.17,0.2057,0.253,0.3156,0.3941,0.4774,0.5532,0.6218,0.6842,0.74,0.7855,0.8155,0.8267,0.8243,0.8256,0.8424,0.8657,0.8765,0.8655,0.8427,0.7822,0.6172,0.3919,0.2618,0.2263,0.1857,0.0269,0.0162,0.0121,0.0129,0.0132,0.0146,0.0247,0.0711,0.1445,0.1511,0.122,0,0.0626,0.1447,0.1711,0.1772,0.1813,0.1986,0.2302,0.2719,0.3203,0.3755,0.4436,0.5249,0.6073,0.6801,0.7405,0.788,0.8251,0.8589,0.8932,0.9146,0.8976,0.8473,0.8083,0.8015,0.8059,0.807,0.8127,0.8278,0.8419,0.7559,0.5076,0.2832,0.1692,0.0876,0.0324,0.0217,0.0165,0.0181,0.019,0.0181,0.0077,-0.0016,0,0.0376,0.0802,0.1099,0.145,0.1585,0.1675,0.1884,0.2233,0.2694,0.3241,0.3862,0.4587,0.5425,0.6306,0.7111,0.7776,0.8311,0.8699,0.8905,0.8943,0.8971,0.9168,0.9358,0.9064,0.8388,0.7803,0.7323,0.6955,0.6919,0.721,0.7608,0.7974,0.8259,0.7397,0.3771,0.0165,-0.0772,0.0475,0.0365,0.0244,0.0211,0.0214,0.0214,0.0214,0,0.0549,0.1099,0.1209,0.1296,0.1332,0.1522,0.1813,0.217,0.2582,0.3095,0.3804,0.4741,0.5842,0.6916,0.7779,0.8366,0.8718,0.8921,0.9045,0.9067,0.8965,0.8896,0.9058,0.9177,0.8795,0.7965,0.6935,0.604,0.5768,0.6051,0.6551,0.7023,0.7295,0.7724,0.8086,0.7347,0.5455,0.3598]},{"header":{"parameterUnit":"m.s-1","parameterCategory":2,"la1":30.5641,"la2":29.4642,"lo1":-89.4342,"lo2":-87.9343,"dy":0.0333,"dx":0.0333,"nx":46,"ny":34,"refTime":"2024-02-26T00:00:00:Z","depth":"0","parameterNumber":3,"parameterNumberName":"V-component_of_CURRENTS"},"data":[0,0,0,0,0,0,0,0,0,0,0,0,0,0,0,0,0,0,0,0,0,0,0,0,0,0,0,0,0,0,0,0,0,0,0,0,0,0,0,0,0,0.084,0.017,0.05,-0.0621,0,0,0,0,0,0,0,0,0,0,0,0,0,0,0,0,0,0,0,0,0,0,0,0,0,0,0,0,0,0,0,0,0,0,0,0,0,0,0,0,0,0,0.0687,0.0525,0.014,-0.0926,0,0,0,0,0,0,0,0,0,0,0,0,0,0,0,0,0,0,0,0,0,0,0,0,0,0,0,0,0,0,0,0,0,0,0,0,0,0,0,0,0,0,0.0453,0.0492,-0.0047,-0.1121,0,0,0,0,0,0,0,0,0,0,0,0,0,0,0,0,0,0,0,0,0,0,0,0,0,0,0,0,0,0,0,0,0,0,0,0,0,0,0,0,0,0,0.0497,0.0173,-0.028,-0.117,0,0,0,0,0,0,0,0,0,0,0,0,0,0,0,0,0,0,0,0,0,0,0,0,0,0,0,0,0,0,0,0,0,0,0,0,0,0,0,0,0,0.1148,0.0698,-0.0102,-0.0552,-0.1272,0,0,0,0,0,0,0,0,0,0,0,0,0,0,0,0,0,0,0,0,0,0,0,0,0,0,0,0,0,0,0,0,0,0,0,0,0,0,0,0,0,0.0843,0.0439,-0.047,-0.0813,-0.1349,0,0,0,0,0,0,0,0,0,0,0,0,0.0533,0.0426,0.0327,0.036,0.0371,0.011,0.0146,0.0453,-0.0192,0,0,0,0,0,0,0,0,0,0,0,0,0.1019,0.1491,0.0286,0,0,0,0,0,-0.0027,-0.017,-0.095,-0.109,-0.1096,0,0,0,0,0,0,0,0,0,0.1209,0.0788,0.0736,0.0555,0.0393,0.0332,0.0415,0.0297,-0.003,-0.0102,-0.0091,-0.0464,-0.0673,0.0566,0.1077,0.0308,0.0165,-0.192,0,0,0,0,-0.0288,0.1607,0.1431,0.1382,0.0137,0,0,0,0,0,-0.0989,-0.0363,-0.122,-0.1211,-0.0753,0,0,0,0,0.103,0.092,0.0629,0.025,0.0165,0.0794,0.0563,0.0676,0.0717,0.0511,0.0407,0.0431,0.019,-0.0203,-0.033,-0.0695,-0.0838,-0.0327,0.0981,0.0948,0.0071,-0.0085,-0.1629,-0.0299,0.0662,0.0036,-0.0146,-0.033,0.0637,0.1019,0.0544,-0.0261,-0.0272,-0.0417,-0.0363,0.0,0.0,-0.0703,-0.0629,-0.1181,-0.1159,-0.0522,0,0,0,0.1233,0.1099,0.0945,0.0607,0.0283,0.0038,0.0887,0.0168,0.0308,0.0426,0.0604,0.0574,0.0423,0.0574,-0.0118,-0.0461,-0.1,-0.0851,0.0008,0.0698,0.0409,-0.0082,-0.0168,-0.0667,-0.0151,0.0283,0.0044,-0.0049,-0.0272,-0.0195,-0.0195,-0.0047,-0.0253,-0.0135,-0.0148,-0.0585,0,0,0,-0.1678,-0.1189,-0.0558,-0.0214,0,0,0.1426,0.1252,0.1071,0.0788,0.0497,0.019,-0.0019,0.0983,0,0,0,0.0577,0.0802,0.0225,0.0497,0,-0.0354,-0.111,-0.128,0,0,0,0,0,0,0,0.0041,0.0027,0.0022,-0.0085,-0.0055,-0.0569,-0.0297,0,0,0.0008,-0.1044,-0.097,-0.0472,0.0994,-0.1189,-0.2645,0,0,0,0.1038,0.1563,0.1261,0.0772,0.0505,0.0478,0.0107,0.0143,0.0604,0.0426,0.0165,0.0022,0.025,0.0261,0,0,0.0483,-0.0126,-0.0849,-0.1453,-0.0467,-0.0316,-0.0464,-0.0588,-0.0596,-0.0563,0.0332,0.014,0,0,0,-0.0159,-0.0508,-0.0794,-0.0558,0.0,-0.0269,-0.1291,-0.1151,-0.075,0.0203,0,-0.3582,-0.1038,0.0154,0.0596,0.0519,0.1307,0.0986,0.0428,0.0269,0.1019,0.0074,0.0118,0.072,0.0239,-0.0003,-0.0022,-0.0038,-0.0093,0.0687,0.0862,0.0497,-0.0016,-0.0538,-0.0851,-0.05,-0.0442,-0.0577,-0.0673,-0.0522,-0.0346,0.0291,0.0201,-0.0341,-0.0552,-0.0494,-0.0343,-0.0459,-0.0868,-0.064,-0.0266,-0.0566,-0.1222,-0.1357,-0.1132,-0.0909,-0.056,-0.2302,-0.0994,-0.0206,0.0236,0,0.0945,0.1005,0.0305,0.0552,0.075,0,0,0.0843,0.022,0.0121,0.0253,0.0352,0.0519,0.086,0.0923,0.0736,0.0294,-0.019,-0.0497,-0.0602,-0.072,-0.0665,-0.0552,-0.0096,0.0195,0.0346,0.0343,-0.0195,-0.0483,-0.05,-0.0514,-0.0615,-0.0909,-0.0829,-0.0654,-0.0761,-0.1112,-0.134,-0.1255,-0.1261,-0.0794,-0.1239,-0.0953,-0.0692,-0.0368,0.1538,0.0503,0.0986,0.0159,0.0486,0,0,0,0.0884,0.0577,0.0623,0.0791,0.0865,0.0948,0.1063,0.1,0.1332,0.0623,0.0025,-0.0335,-0.0695,-0.0948,-0.0722,-0.0409,0.0162,0.0486,0.0343,0.0135,-0.0247,-0.0538,-0.0626,-0.0722,-0.0876,-0.0992,-0.0945,-0.0873,-0.0964,-0.1173,-0.1346,-0.1351,-0.1329,-0.1129,-0.1129,-0.1088,-0.0983,-0.0835,0.0769,0.0011,0.0368,0,0,0,0,0,0.1203,0.1055,0.0964,0.1025,0.1052,0.1041,0.1022,0.0989,0.2274,0.0393,-0.0168,-0.0135,-0.0637,-0.1019,-0.0917,-0.0689,-0.0159,0.0288,0.0082,-0.0217,-0.0505,-0.072,-0.0829,-0.0926,-0.1014,-0.106,-0.1085,-0.1151,-0.128,-0.1384,-0.1464,-0.1426,-0.1313,-0.1217,-0.1274,-0.1316,-0.1296,-0.1241,0,0,0.0308,0.0569,0.0299,-0.1044,0,0,0.1766,0.1491,0.1099,0.0942,0.0895,0.0849,0.0766,0.0901,0.2156,0,-0.0206,0.0228,-0.0459,-0.0975,-0.109,-0.0992,-0.0483,0.0008,-0.0192,-0.0409,-0.0634,-0.0846,-0.0997,-0.111,-0.1203,-0.1296,-0.1404,-0.1511,-0.1579,-0.1533,-0.1409,-0.1239,-0.1148,-0.1192,-0.1335,-0.1461,-0.1494,-0.145,0,0,0.028,0.0571,0.0602,-0.0522,0.0,0.0,0.1706,0.1415,0.1008,0.0747,0.0607,0.0486,0.0417,0.0621,0.1159,0.1206,0,0.061,-0.0222,-0.0832,-0.1088,-0.1041,-0.0645,-0.025,-0.0387,-0.0558,-0.0764,-0.0981,-0.1156,-0.1299,-0.1431,-0.1557,-0.1659,-0.1733,-0.1673,-0.139,-0.1088,-0.0961,-0.1022,-0.1178,-0.1335,-0.1489,-0.1511,-0.1599,0,0,0,0.0288,0.0453,0,0,0,0.1063,0.1049,0.0857,0.0599,0.0404,0.0275,0.0283,0.0494,0.0794,0.1176,0,0.0742,0.0027,-0.0651,-0.092,-0.092,-0.0742,-0.0536,-0.056,-0.0678,-0.0873,-0.1101,-0.1302,-0.1469,-0.1596,-0.1678,-0.17,-0.1621,-0.1362,-0.0992,-0.0791,-0.0802,-0.0909,-0.1077,-0.1266,-0.1439,-0.1607,-0.1851,0,0,0,0,0,0,0,0.0709,0.0569,0.0618,0.0596,0.0475,0.0387,0.0354,0.036,0.0758,0.0706,0.1068,0,0.0786,0.0239,-0.0445,-0.0703,-0.0775,-0.0799,-0.0772,-0.0733,-0.0777,-0.0934,-0.1148,-0.1354,-0.1497,-0.1535,-0.1442,-0.1261,-0.1035,-0.0777,-0.0618,-0.0632,-0.0698,-0.0711,-0.0832,-0.1132,-0.1453,-0.1838,-0.156,0,0,0,0,0,0,0.0514,0.061,0.0343,0.028,0.0343,0.0382,0.0527,0.0505,0.0423,0.1079,0.0338,0.0494,0,0.0849,0.0431,-0.0184,-0.05,-0.0659,-0.0794,-0.089,-0.0898,-0.0884,-0.092,-0.1014,-0.1154,-0.1211,-0.106,-0.0761,-0.047,-0.0327,-0.0275,-0.033,-0.0439,-0.0492,-0.0437,-0.0511,-0.0873,-0.1373,-0.1695,-0.0503,0,0,0,0,0,0,0.0478,0.0508,0.0264,0.0239,0.0272,0.0313,0.0676,0.0552,0.053,0.1079,0,0,0,0.0829,0.0593,0.0047,-0.0324,-0.0544,-0.0714,-0.0865,-0.0978,-0.1011,-0.0994,-0.0975,-0.097,-0.0849,-0.0558,-0.0236,-0.0071,-0.011,-0.017,-0.0206,-0.0288,-0.031,-0.0239,-0.0244,-0.0494,-0.0994,-0.1011,0.0107,0,0,0,0,0,0,0.047,0.0453,0.0264,0.0217,0.0203,0.0179,0.0739,0.0269,0.0692,0.0742,0.0717,0,0,0.0791,0.0654,0.0181,-0.0181,-0.0437,-0.0629,-0.0799,-0.0975,-0.1115,-0.1178,-0.1121,-0.0945,-0.0645,-0.033,-0.0137,-0.0132,-0.0302,-0.0489,-0.0417,-0.0341,-0.0137,0.0049,-0.0063,-0.0272,-0.0634,-0.0558,0.0049,0,0,0,0,0,0.0269,0.047,0.0357,0.0253,0.0162,0.014,0.0088,0.0516,0,0.0623,0.0596,0.0692,0,0,0.0917,0.0698,0.0258,-0.0091,-0.036,-0.0577,-0.0766,-0.0975,-0.1162,-0.1203,-0.1022,-0.07,-0.0376,-0.014,-0.0074,-0.0157,-0.039,-0.0711,-0.0906,-0.0868,-0.0428,0.0165,0.0088,-0.0261,-0.0536,-0.0563,-0.0036,0,0.0481,0.0,0.0544,0,0.0135,0.0363,0.031,0.0225,0.0104,0.0082,0.0058,0.0143,0.0236,0.0354,0.0555,0.0615,0,0.1071,0.1044,0.07,0.0308,-0.0027,-0.0299,-0.0536,-0.0742,-0.0942,-0.1052,-0.0926,-0.0593,-0.025,-0.003,0.0077,0.0049,-0.0077,-0.0346,-0.067,-0.1154,-0.1513,-0.1335,-0.0525,0.0107,-0.0201,-0.0522,-0.0585,-0.0173,0,0.0341,0,0.0385,0.0461,0,0.0233,0.0349,0.0211,0.006,0.0016,0.003,0.0008,0.0173,0.0264,0.0536,0.0283,0,0.1272,0.1068,0.0662,0.0354,0.0047,-0.0239,-0.0481,-0.0673,-0.0829,-0.0797,-0.0481,-0.0069,0.0258,0.0439,0.0503,0.0448,0.0244,-0.0102,-0.0549,-0.1025,-0.1645,-0.2002,-0.1538,-0.0283,-0.0102,-0.0505,-0.0569,-0.0324,0,0.0096,0.0217,0.0253,0.0393,0.0417,0.0233,0.0338,0.0179,0.003,-0.0027,0.0008,0.006,0.0104,0.0368,0.0302,0,0.1656,0.1354,0.0912,0.0585,0.0401,0.0159,-0.0162,-0.0423,-0.0593,-0.0643,-0.0472,-0.0038,0.0481,0.0898,0.1132,0.1211,0.1162,0.0942,0.0555,-0.0014,-0.0684,-0.1423,-0.2228,-0.234,-0.1151,-0.0272,-0.0519,-0.056,-0.0426,0.0115,0.0003,0.0225,0.0299,0.025,0.0244,0.0288,0.0297,0.017,0.0063,0.0003,0.003,0.0071,-0.0126,0.0211,0,0.1774,0.1472,0.1038,0.0602,0.0439,0.0409,0.0294,0.0003,-0.0299,-0.0461,-0.0368,-0.0005,0.0547,0.109,0.1442,0.1579,0.1557,0.1428,0.1209,0.0882,0.0423,-0.0217,-0.0953,-0.1989,-0.2793,-0.2137,-0.0972,-0.0634,-0.0651,-0.0448,0.008,0.0104,0.0288,0.0231,0.0143,0.0066,0.0255,0.0321,0.0231,0.0187,0.0159,0.0074,0.0027,-0.0574,0,0.175,0.1538,0.1066,0.0656,0.0396,0.0346,0.0417,0.0428,0.0305,0.0132,0.0162,0.0437,0.0865,0.131,0.1596,0.1714,0.1681,0.1535,0.1263,0.0904,0.0519,0.0124,-0.0352,-0.0906,-0.1656,-0.2766,-0.2931,-0.195,-0.0731,-0.0343,-0.008,0.0077,0.0225,0.025,0.0126,0.0107,0.0069,0.0217,0.0379,0.0253,0.0382,0.0409,0.0154,0.022,-0.0302,0.0972,0.1302,0.0972,0.0623,0.0379,0.0288,0.0379,0.056,0.0725,0.0893,0.1088,0.1305,0.1546,0.1772,0.195,0.2035,0.2044,0.1936,0.1697,0.1263,0.0717,0.0124,-0.042,-0.0967,-0.1505,-0.1928,-0.2708,-0.3425,-0.2708,-0.0695,0.0404,0.0516,0.0137,0.0233,0.0126,0.0091,0.0096,0.0096,0.0277,0.0494,0.0201,0.0665,0.0654,0.011,0.0456,0.0242,0.0651,0.0665,0.0519,0.0382,0.0407,0.0555,0.0819,0.1132,0.1456,0.1772,0.2019,0.2148,0.2222,0.2285,0.231,0.231,0.2247,0.2057,0.1645,0.1035,0.0338,-0.0343,-0.0926,-0.1409,-0.1964,-0.253,-0.3032,-0.3746,-0.3233,-0.0964,0.0354,0.0211,0.0135,0.019,0.0096,0.0074,0.008,0.0121,0.0472,0.0739,0.0085,0.0786,0.0415,0,0.0613,0.0426,0.0431,0.0497,0.0492,0.0621,0.0931,0.1274,0.1637,0.1989,0.2263,0.2436,0.253,0.2593,0.2587,0.2475,0.2252,0.2,0.1741,0.1404,0.0884,0.0195,-0.0497,-0.0887,-0.1041,-0.1365,-0.1912,-0.2678,-0.3318,-0.3955,-0.3705,-0.1686,-0.0047,-0.0343,0.0099,0.0148,0.0099,0.008,0.0069,0.011,0.0494,0.045,0,0.0659,0.0129,0.0662,0.0591,0.0582,0.0643,0.0709,0.0871,0.1209,0.1634,0.206,0.2464,0.2744,0.2887,0.2955,0.3021,0.2986,0.2771,0.2373,0.1859,0.131,0.0753,0.0214,-0.0371,-0.0983,-0.1159,-0.0857,-0.0799,-0.1145,-0.1714,-0.2532,-0.3293,-0.4073,-0.4222,-0.2414,-0.0687,-0.0714,0.0132,0.0146,0.0148,0.0115,0.0066,0.0071,0.0283,0,0.0244,0.0321,0.0168,0.0519,0.0566,0.0791,0.0994,0.1143,0.1404,0.1865,0.2434,0.3024,0.3475,0.3694,0.3744,0.3702,0.3549,0.3208,0.2656,0.1983,0.1272,0.0519,-0.0266,-0.0972,-0.1601,-0.1785,-0.1143,-0.0486,-0.0593,-0.0959,-0.1456,-0.2131,-0.2711,-0.3428,-0.3812,-0.2782,-0.159,-0.0541]}],[{"header":{"parameterUnit":"m.s-1","parameterCategory":2,"la1":30.5641,"la2":29.4642,"lo1":-89.4342,"lo2":-87.9343,"dy":0.0333,"dx":0.0333,"nx":46,"ny":34,"refTime":"2024-02-26T00:00:00:Z","depth":"2","parameterNumber":2,"parameterNumberName":"U-component_of_CURRENTS"},"data":[0,0,0,0,0,0,0,0,0,0,0,0,0,0,0,0,0,0,0,0,0,0,0,0,0,0,0,0,0,0,0,0,0,0,0,0,0,0,0,0,0,0.0126,0.0365,0.0058,-0.0214,0,0,0,0,0,0,0,0,0,0,0,0,0,0,0,0,0,0,0,0,0,0,0,0,0,0,0,0,0,0,0,0,0,0,0,0,0,0,0,0,0,0,-0.0071,-0.0077,-0.0096,-0.011,0,0,0,0,0,0,0,0,0,0,0,0,0,0,0,0,0,0,0,0,0,0,0,0,0,0,0,0,0,0,0,0,0,0,0,0,0,0,0,0,0,0,-0.0005,-0.0071,-0.0148,-0.0052,0,0,0,0,0,0,0,0,0,0,0,0,0,0,0,0,0,0,0,0,0,0,0,0,0,0,0,0,0,0,0,0,0,0,0,0,0,0,0,0,0,0,0.0571,0.0555,0.014,-0.0005,0,0,0,0,0,0,0,0,0,0,0,0,0,0,0,0,0,0,0,0,0,0,0,0,0,0,0,0,0,0,0,0,0,0,0,0,0,0,0,0,0,0.0066,0.0184,0.0165,-0.0019,-0.0143,0,0,0,0,0,0,0,0,0,0,0,0,0,0,0,0,0,0,0,0,0,0,0,0,0,0,0,0,0,0,0,0,0,0,0,0,0,0,0,0,0,0.0027,-0.0014,-0.0107,-0.0129,-0.0151,0,0,0,0,0,0,0,0,0,0,0,0,0.0217,0.0566,0.0742,0.0986,0.1351,0.1439,0.1211,0.0997,0.0934,0,0,0,0,0,0,0,0,0,0,0,0,0.0085,0.022,0.0264,0,0,0,0,0,-0.0107,-0.0236,-0.0247,-0.017,0.014,0,0,0,0,0,0,0,0,0,0.0349,0.0849,0.0904,0.0698,0.0571,0.0626,0.0876,0.1077,0.1033,0.0808,0.0396,0.0036,-0.008,0.0129,0.0483,0.0764,0.0277,-0.0319,0,0,0,0,-0.0055,0.019,0.042,0.0258,0.0162,0,0,0,0,0,-0.0214,-0.0357,-0.0261,-0.0104,0.0217,0,0,0,0,0.0275,0.0904,0.142,0.164,0.173,0.167,0.1475,0.1192,0.0923,0.07,0.0571,0.0678,0.0879,0.0959,0.0945,0.0906,0.0917,0.1126,0.078,0.0146,0.019,0.0253,0.0566,0.1222,0.1634,0.1799,0.1615,0.12,0.0033,-0.1003,-0.0978,-0.0722,-0.0747,-0.1126,-0.1703,-0.2181,-0.2156,-0.0816,0.0071,-0.0209,-0.0074,0.0033,0,0,0,0.0335,0.0961,0.1384,0.1557,0.1621,0.1497,0.1489,0.1351,0.1082,0.1176,0.1176,0.0959,0.0849,0.1178,0.1752,0.1714,0.1241,0.109,0.1115,0.0415,-0.0179,0.0168,0.0667,0.131,0.2131,0.2321,0.1879,0.1508,0.1277,0.1269,0.089,0.0115,0.0632,0.1346,0.072,0.0225,0,0,0,-0.075,-0.1612,-0.1118,-0.0266,0,0,0.0297,0.0876,0.1299,0.1458,0.1475,0.1409,0.1351,0.136,0,0,0,0.0409,0.0901,0.089,0.0797,0,0.0357,0.0959,0.1203,0,0,0,0,0,0,0,0.0074,0.0258,0.0569,0.1044,0.1233,0.1217,0.1285,0,0,-0.0008,0.0132,-0.0453,-0.1686,-0.1876,-0.0264,0.1022,0,0,0,0.006,0.0574,0.128,0.1516,0.1401,0.1362,0.1401,0.139,0.142,0.1511,0.1684,0.1816,0.1805,0.1763,0,0,0.0659,0.1354,0.1475,0.159,0.1241,0.0747,0.0604,0.0461,0.0137,-0.011,0.0055,0.025,0,0,0,0.0236,0.0654,0.089,0.0651,0.0382,0.0615,0.1088,0.1228,0.1052,0.097,0,0.0651,0.1134,0.1321,0.1577,0.1115,0.1217,0.161,0.1491,0.1173,0.1349,0.1593,0.1758,0.1934,0.1909,0.1846,0.1736,0.164,0.164,0.1766,0.2035,0.2288,0.231,0.2263,0.2376,0.242,0.2247,0.1868,0.1505,0.145,0.1508,0.0942,0.0634,0.0992,0.0964,0.0747,0.0829,0.1022,0.1285,0.1524,0.1431,0.1373,0.1615,0.1859,0.1881,0.1942,0.142,0.1546,0.2434,0.2486,0.214,0,0.019,0.0667,0.0882,0.1093,0.1382,0,0,0.0398,0.0857,0.1008,0.1263,0.1568,0.1851,0.2022,0.2087,0.234,0.2612,0.2714,0.2758,0.2733,0.2579,0.2129,0.1689,0.1549,0.161,0.1835,0.1903,0.189,0.2093,0.2247,0.2096,0.1714,0.1491,0.1546,0.1593,0.1623,0.1733,0.1862,0.1881,0.1972,0.1925,0.2022,0.2423,0.2477,0.2247,0.0058,0.0533,0.0634,0.0648,0.0607,0,0,0,0.0483,0.1046,0.1217,0.1472,0.1788,0.2046,0.2206,0.2359,0.2741,0.3013,0.2966,0.29,0.2848,0.2763,0.2585,0.2346,0.2109,0.1816,0.1645,0.1747,0.1939,0.2041,0.1978,0.1851,0.1736,0.1667,0.1664,0.1662,0.1612,0.1555,0.1557,0.1596,0.1684,0.1763,0.1846,0.2033,0.2162,0.2126,-0.0258,0.0184,0.0882,0,0,0,0,0,0.0475,0.1192,0.1568,0.1785,0.1989,0.2164,0.2291,0.2401,0.2969,0.3521,0.3178,0.2755,0.2694,0.2681,0.2568,0.2406,0.2109,0.159,0.1233,0.1231,0.1365,0.1467,0.1453,0.1437,0.1502,0.1574,0.1544,0.1426,0.1296,0.12,0.1181,0.1294,0.1439,0.1508,0.1541,0.1621,0.1692,0.1719,0,0,0.0233,0.0632,0.0786,0.0775,0,0,0.0585,0.1437,0.1821,0.1972,0.1997,0.1969,0.1881,0.1799,0.1774,0,0.0821,0.1846,0.214,0.2266,0.2247,0.2142,0.1821,0.1143,0.0665,0.0607,0.0654,0.0739,0.0827,0.0895,0.0964,0.0989,0.0912,0.0805,0.0753,0.0766,0.0854,0.1005,0.1137,0.1195,0.1244,0.1307,0.1368,0.1437,0,0,0.0365,0.095,0.1346,0.1906,0.2131,0.1939,0.1895,0.1838,0.1763,0.1706,0.1648,0.1552,0.1423,0.1162,0.0503,0.0041,0,0.056,0.1354,0.17,0.1846,0.1827,0.1535,0.0846,0.0299,0.0151,0.0107,0.0088,0.0088,0.0107,0.0143,0.0159,0.0137,0.0137,0.0225,0.0352,0.045,0.0555,0.0689,0.0824,0.0937,0.1008,0.1052,0.1022,0,0,0,0.0181,0.0363,0,0,0,0.0428,0.0813,0.0783,0.0832,0.0915,0.0981,0.0994,0.0956,0.0722,0.0522,0,0.0475,0.1159,0.1472,0.1656,0.1667,0.1415,0.0824,0.0198,-0.0132,-0.0286,-0.0412,-0.0533,-0.0607,-0.0613,-0.0558,-0.0426,-0.0201,0.0019,0.0091,0.0107,0.017,0.0269,0.0409,0.0558,0.0656,0.0662,0.0604,0,0,0,0,0,0,0,0.0382,0.0824,0.0783,0.0607,0.0552,0.064,0.0766,0.0816,0.0931,0.092,0.0788,0,0.0456,0.1099,0.1393,0.1588,0.1596,0.1404,0.1041,0.0538,0.0063,-0.0291,-0.0549,-0.0725,-0.0799,-0.0742,-0.0549,-0.0297,-0.0074,0.0044,0.006,0.0025,-0.0011,0.0005,0.0096,0.0247,0.0346,0.0349,0.0692,0,0,0,0,0,0,0.0217,0.0483,0.0508,0.05,0.053,0.0549,0.0626,0.0755,0.0824,0.0873,0.0821,0.0739,0,0.0445,0.1104,0.1393,0.153,0.1502,0.1362,0.1217,0.103,0.0739,0.0407,0.0124,-0.0074,-0.0135,-0.0038,0.0146,0.0299,0.0335,0.0275,0.0217,0.0184,0.0135,0.0036,-0.0022,0.0102,0.0247,0.0569,0.095,0,0,0,0,0,0,0.0107,0.0324,0.0478,0.0582,0.0654,0.0651,0.0706,0.0731,0.0786,0.0882,0,0,0,0.0516,0.1173,0.1357,0.1395,0.1346,0.1269,0.1239,0.1239,0.1206,0.1132,0.1046,0.0975,0.0937,0.0931,0.0912,0.0851,0.0794,0.0722,0.0558,0.0382,0.0297,0.0236,0.0168,0.022,0.0475,0.0648,0.0569,0,0,0,0,0,0,0.0217,0.0461,0.0549,0.0656,0.0728,0.0711,0.0722,0.0744,0.0645,0.0244,-0.008,0,0,0.047,0.1057,0.122,0.1261,0.1236,0.1184,0.117,0.1211,0.1261,0.128,0.1291,0.1349,0.148,0.1659,0.1832,0.1931,0.1953,0.195,0.1739,0.1393,0.1085,0.084,0.0722,0.067,0.0689,0.0602,0.0461,0,0,0,0,0,0.0159,0.0412,0.05,0.0541,0.0643,0.0717,0.0791,0.0838,0,0.0321,0.0544,0.0445,0,0,0.0343,0.0851,0.1088,0.1195,0.1206,0.1156,0.1115,0.1101,0.1071,0.103,0.1057,0.1195,0.1409,0.1662,0.1914,0.2129,0.2288,0.2346,0.2332,0.2203,0.1838,0.125,0.0816,0.0733,0.0731,0.0634,0.0536,0,0.0203,0.0228,0.0162,0,0.0146,0.0283,0.0349,0.0489,0.0588,0.0667,0.0742,0.0706,0.0731,0.0895,0.0753,0.0538,0,0.0382,0.0871,0.1027,0.1123,0.1211,0.1228,0.1167,0.109,0.1011,0.0898,0.0816,0.0846,0.1003,0.1233,0.1494,0.1785,0.2085,0.237,0.2576,0.2601,0.2519,0.225,0.1601,0.0915,0.0643,0.0673,0.0654,0.0582,0,0.0374,0,0.003,0.0063,0,0.0074,0.0291,0.0519,0.0632,0.0684,0.0733,0.0777,0.0788,0.0706,0.0577,0.0519,0,0.039,0.0895,0.1019,0.1101,0.1203,0.1236,0.1159,0.1057,0.0981,0.0893,0.0829,0.0857,0.1003,0.1225,0.1491,0.1785,0.2104,0.2417,0.2738,0.2925,0.2851,0.2612,0.2195,0.1426,0.0703,0.0514,0.0527,0.0508,0,0.0157,0.0277,0.0242,0.0211,0.0239,0.0349,0.0527,0.0711,0.0802,0.0865,0.0887,0.0915,0.0865,0.0722,0.0659,0,0.0673,0.1343,0.1258,0.1101,0.1068,0.1165,0.1217,0.114,0.1052,0.1014,0.1,0.1044,0.1222,0.1557,0.1986,0.2431,0.2829,0.3109,0.3241,0.328,0.3334,0.3299,0.3024,0.2615,0.181,0.0802,0.0357,0.0346,0.0382,0.0102,0.0283,0.0459,0.0387,0.0261,0.017,0.0283,0.0566,0.0797,0.0964,0.1088,0.1159,0.106,0.0689,0.0439,0,0.0725,0.1409,0.1299,0.1121,0.0959,0.0901,0.1008,0.1121,0.1096,0.1052,0.1123,0.1354,0.1758,0.2307,0.2936,0.3551,0.4114,0.4612,0.5013,0.5219,0.5169,0.4875,0.4384,0.3738,0.3117,0.2247,0.0994,0.0211,0.019,0.0396,0.0162,0.0255,0.0321,0.0214,0.0137,0.0151,0.0294,0.0577,0.0851,0.106,0.1263,0.1343,0.1211,0.1101,0,0.0808,0.1566,0.1398,0.1184,0.1027,0.0898,0.0824,0.0915,0.1145,0.1357,0.1538,0.1881,0.2458,0.3156,0.3837,0.4447,0.4996,0.5491,0.5927,0.6337,0.6674,0.679,0.6644,0.6276,0.5436,0.4257,0.3057,0.175,0.0959,0.1041,0.1324,0.0217,0.0253,0.0181,0.011,0.0115,0.0157,0.0288,0.0585,0.0846,0.1046,0.136,0.1568,0.1621,0.1936,0.2384,0.2277,0.1761,0.1332,0.1071,0.0983,0.0997,0.1071,0.1266,0.1653,0.2148,0.2722,0.3417,0.4145,0.4812,0.5392,0.5916,0.6408,0.6845,0.7213,0.7529,0.7825,0.8056,0.8012,0.7688,0.7117,0.6015,0.4392,0.2763,0.2098,0.2359,0.2491,0.0206,0.0146,0.0104,0.0099,0.0107,0.014,0.0272,0.0634,0.0934,0.1088,0.1376,0.1794,0.2016,0.2104,0.2082,0.1816,0.1535,0.1329,0.1274,0.1379,0.1621,0.1958,0.2406,0.2997,0.3738,0.454,0.5293,0.5985,0.6622,0.7185,0.7636,0.7905,0.7941,0.7803,0.7737,0.7952,0.83,0.8462,0.8333,0.8064,0.7457,0.5859,0.3719,0.2535,0.2228,0.1824,0.0258,0.0154,0.0113,0.0121,0.0126,0.014,0.0225,0.0615,0.1272,0.1384,0.1165,0,0.0577,0.1365,0.1643,0.1708,0.175,0.1914,0.2217,0.262,0.3079,0.3598,0.4241,0.5015,0.5826,0.6559,0.7169,0.7644,0.8004,0.832,0.8622,0.8756,0.8471,0.785,0.7463,0.7584,0.7842,0.796,0.8031,0.8136,0.8202,0.7292,0.4848,0.2714,0.1648,0.0846,0.0313,0.0206,0.0157,0.0176,0.0184,0.0173,0.0047,-0.0071,0,0.0346,0.075,0.1052,0.1404,0.1533,0.1621,0.1829,0.2167,0.2615,0.3134,0.3724,0.4408,0.5205,0.607,0.688,0.7564,0.8111,0.8495,0.8685,0.8696,0.8666,0.8759,0.882,0.8377,0.7641,0.7232,0.7045,0.6872,0.6894,0.7169,0.7529,0.7839,0.8026,0.7108,0.3568,0.0074,-0.0827,0.0442,0.0349,0.0233,0.0206,0.0211,0.0203,0.0198,0,0.0439,0.095,0.1143,0.1247,0.1291,0.1469,0.1758,0.2109,0.2508,0.2994,0.3659,0.4548,0.56,0.6647,0.7509,0.8111,0.8482,0.8699,0.8817,0.8811,0.8655,0.8498,0.8528,0.8487,0.7971,0.721,0.6507,0.5916,0.5743,0.6026,0.6515,0.6966,0.7213,0.7595,0.7877,0.7089,0.5227,0.3417]},{"header":{"parameterUnit":"m.s-1","parameterCategory":2,"la1":30.5641,"la2":29.4642,"lo1":-89.4342,"lo2":-87.9343,"dy":0.0333,"dx":0.0333,"nx":46,"ny":34,"refTime":"2024-02-26T00:00:00:Z","depth":"2","parameterNumber":3,"parameterNumberName":"V-component_of_CURRENTS"},"data":[0,0,0,0,0,0,0,0,0,0,0,0,0,0,0,0,0,0,0,0,0,0,0,0,0,0,0,0,0,0,0,0,0,0,0,0,0,0,0,0,0,0.0343,-0.0187,0.0093,-0.1162,0,0,0,0,0,0,0,0,0,0,0,0,0,0,0,0,0,0,0,0,0,0,0,0,0,0,0,0,0,0,0,0,0,0,0,0,0,0,0,0,0,0,0.0085,0.0126,-0.0044,-0.1126,0,0,0,0,0,0,0,0,0,0,0,0,0,0,0,0,0,0,0,0,0,0,0,0,0,0,0,0,0,0,0,0,0,0,0,0,0,0,0,0,0,0,-0.022,0.0096,-0.0222,-0.1296,0,0,0,0,0,0,0,0,0,0,0,0,0,0,0,0,0,0,0,0,0,0,0,0,0,0,0,0,0,0,0,0,0,0,0,0,0,0,0,0,0,0,-0.006,-0.0129,-0.0558,-0.1535,0,0,0,0,0,0,0,0,0,0,0,0,0,0,0,0,0,0,0,0,0,0,0,0,0,0,0,0,0,0,0,0,0,0,0,0,0,0,0,0,0,0.0426,0.0192,-0.0327,-0.0937,-0.1758,0,0,0,0,0,0,0,0,0,0,0,0,0,0,0,0,0,0,0,0,0,0,0,0,0,0,0,0,0,0,0,0,0,0,0,0,0,0,0,0,0,-0.0025,-0.0074,-0.0673,-0.1176,-0.1736,0,0,0,0,0,0,0,0,0,0,0,0,0.039,0.0324,0.0247,0.0277,0.0286,0.0019,0.0074,0.0365,-0.0308,0,0,0,0,0,0,0,0,0,0,0,0,0.0887,0.106,-0.0022,0,0,0,0,0,-0.0901,-0.0656,-0.114,-0.1387,-0.1415,0,0,0,0,0,0,0,0,0,0.0698,0.0338,0.0417,0.0379,0.0275,0.025,0.0332,0.0206,-0.0124,-0.0181,-0.0176,-0.0569,-0.0791,0.0481,0.0975,0.0003,-0.1428,-0.2785,0,0,0,0,-0.0352,0.1263,0.0981,0.061,-0.0338,0,0,0,0,0,-0.2087,-0.0879,-0.1406,-0.1491,-0.103,0,0,0,0,0.0179,0.0297,0.0272,0.0025,-0.0066,0.042,0.0069,0.0173,0.0275,0.0299,0.0308,0.0343,0.0063,-0.0357,-0.045,-0.0783,-0.0967,-0.0643,0.0536,0.0563,-0.0179,-0.106,-0.2299,-0.0843,0.0069,-0.0239,-0.0341,-0.0459,0.0335,0.0379,-0.019,-0.0692,-0.0492,-0.0486,-0.0857,0.0,0.0,-0.1371,-0.1233,-0.145,-0.1574,-0.0964,0,0,0,0.0354,0.0286,0.0374,0.0258,0.0019,-0.0192,0.0604,-0.0102,-0.0036,0.0091,0.0299,0.0423,0.0255,0.0409,-0.0222,-0.0626,-0.1096,-0.1038,-0.0247,0.0294,0.0077,-0.0179,-0.0349,-0.0898,-0.0423,-0.0096,-0.0439,-0.0483,-0.0637,-0.0456,-0.0494,-0.0294,-0.0368,-0.0247,-0.0316,-0.0967,0,0,0,-0.2648,-0.1664,-0.0827,-0.0519,0,0,0.014,0.0445,0.0445,0.0368,0.0173,-0.0121,-0.0302,0.0698,0,0,0,0.0299,0.0615,0.0107,0.0407,0,-0.0511,-0.1209,-0.1439,0,0,0,0,0,0,0,-0.0159,-0.0321,-0.031,-0.0354,-0.033,-0.0648,-0.042,0,0,-0.0321,-0.1299,-0.1176,-0.0926,-0.0044,-0.1835,-0.3395,0,0,0,-0.0033,0.0297,0.0582,0.0371,0.0192,0.0181,-0.0321,-0.0398,0.0327,0.0239,0.0044,-0.0137,0.0047,0.0091,0,0,0.0316,-0.0258,-0.0961,-0.1585,-0.0607,-0.0431,-0.0566,-0.0681,-0.0687,-0.0648,0.0217,-0.0143,0,0,0,-0.0346,-0.0582,-0.0956,-0.0656,-0.0135,-0.0486,-0.1505,-0.1371,-0.1085,-0.0407,0,-0.4614,-0.1887,-0.0813,-0.0055,-0.0016,0.0231,0.0448,0.0093,-0.0033,0.0662,-0.0195,-0.0258,0.0338,0.0049,-0.0118,-0.0165,-0.0195,-0.0261,0.0478,0.0676,0.0341,-0.0154,-0.0681,-0.1019,-0.0667,-0.0596,-0.0706,-0.0777,-0.0621,-0.0439,0.0181,-0.0005,-0.0483,-0.0711,-0.0618,-0.0428,-0.0536,-0.0978,-0.0733,-0.0363,-0.0665,-0.1327,-0.1478,-0.128,-0.1046,-0.072,-0.2953,-0.1717,-0.0857,-0.0264,0,0.0135,0.0544,-0.0069,0.0203,0.053,0,0,0.0472,0.0022,-0.0022,0.0102,0.0187,0.0324,0.0645,0.0728,0.0566,0.0129,-0.0357,-0.0681,-0.081,-0.0926,-0.0851,-0.0709,-0.0228,0.0082,0.0239,0.0239,-0.0305,-0.0607,-0.0613,-0.0607,-0.0706,-0.0994,-0.0915,-0.0744,-0.0851,-0.1203,-0.1431,-0.1354,-0.1351,-0.0904,-0.1415,-0.1239,-0.1027,-0.0703,0.0805,-0.0201,0.058,-0.0038,0.0286,0,0,0,0.0481,0.0269,0.0407,0.0588,0.0654,0.0714,0.0832,0.0791,0.1066,0.0288,-0.0225,-0.0547,-0.0906,-0.1176,-0.095,-0.0615,-0.0005,0.0354,0.0233,0.0025,-0.0357,-0.0643,-0.0733,-0.0829,-0.0978,-0.1085,-0.1035,-0.0964,-0.1057,-0.1266,-0.1437,-0.1442,-0.1415,-0.1211,-0.122,-0.1192,-0.1121,-0.1022,0.0404,-0.0335,0.0033,0,0,0,0,0,0.0453,0.0558,0.0678,0.0794,0.081,0.0788,0.0769,0.0766,0.1947,0.0151,-0.0656,-0.0461,-0.0829,-0.1247,-0.1167,-0.0915,-0.0349,0.0151,-0.0022,-0.0319,-0.061,-0.0821,-0.0934,-0.1027,-0.1115,-0.1159,-0.1184,-0.1247,-0.1373,-0.1475,-0.1549,-0.1505,-0.1393,-0.1296,-0.1357,-0.1398,-0.1384,-0.1346,0,0,-0.0437,0.0206,0.0143,-0.1132,0,0,0.089,0.095,0.0821,0.0728,0.0673,0.0607,0.0519,0.0676,0.1923,0,-0.053,-0.0192,-0.0629,-0.1176,-0.1324,-0.1203,-0.0676,-0.0121,-0.0288,-0.0503,-0.0731,-0.0942,-0.1093,-0.1203,-0.1296,-0.139,-0.1494,-0.1596,-0.1662,-0.161,-0.1483,-0.1313,-0.1225,-0.1272,-0.1415,-0.1544,-0.1579,-0.1563,0,0,-0.0305,0.0085,0.0321,-0.0566,0.0,0.0,0.1052,0.0994,0.0808,0.0577,0.0423,0.0288,0.0209,0.0423,0.1014,0.1005,0,0.0236,-0.0393,-0.1011,-0.1288,-0.1228,-0.0819,-0.0368,-0.0475,-0.0645,-0.0849,-0.1068,-0.1241,-0.1382,-0.1511,-0.1637,-0.1736,-0.1805,-0.1741,-0.1458,-0.1156,-0.1033,-0.1093,-0.1252,-0.1412,-0.1566,-0.1599,-0.1719,0,0,0,-0.0016,0.025,0,0,0,0.0681,0.0802,0.0728,0.0472,0.0264,0.0124,0.0115,0.0321,0.0632,0.0989,0,0.0417,-0.0179,-0.0819,-0.109,-0.1082,-0.089,-0.0645,-0.0651,-0.0761,-0.0953,-0.1178,-0.1376,-0.1541,-0.1664,-0.1744,-0.1766,-0.1684,-0.1428,-0.106,-0.086,-0.0868,-0.0975,-0.1145,-0.1335,-0.1511,-0.1695,-0.1953,0,0,0,0,0,0,0,0.0533,0.0404,0.0486,0.0494,0.0371,0.028,0.0233,0.0225,0.0571,0.0423,0.084,0,0.0379,-0.0016,-0.0599,-0.0843,-0.0909,-0.0926,-0.0884,-0.0832,-0.0865,-0.1014,-0.1222,-0.1426,-0.1563,-0.1604,-0.1508,-0.1324,-0.1099,-0.0843,-0.0687,-0.0698,-0.0761,-0.0772,-0.0893,-0.1195,-0.1516,-0.1909,-0.1637,0,0,0,0,0,0,0.033,0.0442,0.0247,0.0181,0.0244,0.028,0.0417,0.0387,0.0297,0.0876,0.0148,0.0354,0,0.0357,0.0151,-0.0324,-0.0615,-0.0772,-0.0906,-0.1003,-0.1008,-0.0986,-0.1016,-0.1104,-0.1239,-0.1291,-0.114,-0.0838,-0.0547,-0.0401,-0.0349,-0.0401,-0.0503,-0.0555,-0.05,-0.0571,-0.0937,-0.1434,-0.1758,-0.0571,0,0,0,0,0,0,0.0288,0.0365,0.0179,0.0143,0.0165,0.0203,0.0522,0.0349,0.0365,0.0917,0,0,0,0.0445,0.0349,-0.0074,-0.0426,-0.0648,-0.0819,-0.0975,-0.109,-0.1126,-0.1107,-0.1085,-0.1074,-0.095,-0.0656,-0.0335,-0.0173,-0.0206,-0.0261,-0.0291,-0.036,-0.0379,-0.0305,-0.0308,-0.0558,-0.106,-0.1077,0.0033,0,0,0,0,0,0,0.0275,0.0349,0.0181,0.0124,0.0093,0.0066,0.0547,0.0129,0.0489,0.0623,0.0623,0,0,0.0596,0.0492,0.0074,-0.0283,-0.0536,-0.0728,-0.0901,-0.1082,-0.1228,-0.1291,-0.1233,-0.1052,-0.0755,-0.0439,-0.0253,-0.025,-0.042,-0.0607,-0.053,-0.0439,-0.022,-0.0022,-0.0135,-0.0341,-0.0703,-0.0629,-0.0025,0,0,0,0,0,0.0124,0.0236,0.0275,0.017,0.0071,0.0038,-0.0022,0.0365,0,0.0445,0.0478,0.0585,0,0,0.0788,0.0588,0.0159,-0.019,-0.0459,-0.0673,-0.0865,-0.1077,-0.1266,-0.1305,-0.1123,-0.0799,-0.0481,-0.025,-0.019,-0.028,-0.0516,-0.0849,-0.1044,-0.0994,-0.0536,0.008,0.0008,-0.0335,-0.061,-0.0634,-0.011,0,0.0319,0.0,0.0409,0,0.0063,0.0121,0.0233,0.014,0.0014,-0.0016,-0.0044,0.0038,0.0129,0.0225,0.0437,0.0464,0,0.0882,0.0893,0.0596,0.0209,-0.0126,-0.0396,-0.0632,-0.0838,-0.1041,-0.1148,-0.1019,-0.0687,-0.0346,-0.0129,-0.0033,-0.0069,-0.0203,-0.0478,-0.0816,-0.1299,-0.1659,-0.1464,-0.0629,0.0022,-0.0275,-0.0596,-0.0656,-0.0244,0,0.0195,0,0.0253,0.0349,0,0.0074,0.0272,0.0126,-0.0033,-0.0082,-0.0071,-0.0093,0.0069,0.0159,0.0398,0.019,0,0.1049,0.0909,0.0558,0.0255,-0.0049,-0.0335,-0.0577,-0.0772,-0.0926,-0.0893,-0.0577,-0.0168,0.0151,0.0321,0.0363,0.0288,0.0071,-0.0277,-0.0725,-0.1192,-0.181,-0.2156,-0.167,-0.0385,-0.0179,-0.0577,-0.064,-0.0396,0,-0.0022,0.0129,0.0157,0.0297,0.0338,0.0137,0.0255,0.0088,-0.0069,-0.0132,-0.0102,-0.0044,0.0003,0.0247,0.0222,0,0.1423,0.1115,0.0769,0.0483,0.0305,0.0066,-0.0258,-0.0522,-0.0689,-0.0744,-0.0577,-0.0154,0.0349,0.0731,0.0926,0.097,0.0882,0.0643,0.0247,-0.0297,-0.0931,-0.164,-0.2417,-0.2502,-0.128,-0.0357,-0.0591,-0.0632,-0.0494,0.0066,-0.0082,0.0148,0.0231,0.0176,0.0165,0.0206,0.0209,0.0071,-0.0044,-0.011,-0.0096,-0.0038,-0.0228,0.0143,0,0.1596,0.1241,0.0835,0.0478,0.0341,0.0316,0.0201,-0.0093,-0.0401,-0.0571,-0.0494,-0.0159,0.0352,0.0849,0.1151,0.1225,0.1176,0.0986,0.0766,0.0415,-0.0003,-0.0615,-0.1288,-0.2258,-0.3008,-0.2296,-0.1079,-0.0709,-0.072,-0.0514,0.003,0.0049,0.0225,0.0165,0.0071,-0.0008,0.0179,0.0233,0.0129,0.0069,0.0027,-0.0074,-0.011,-0.0692,0,0.1563,0.1362,0.0884,0.0511,0.0286,0.025,0.0319,0.0321,0.0179,-0.0027,-0.0036,0.0187,0.0571,0.097,0.1214,0.1291,0.1209,0.103,0.0692,0.0332,-0.0058,-0.0401,-0.0843,-0.1346,-0.203,-0.3065,-0.3139,-0.2098,-0.0821,-0.0417,-0.0157,0.0027,0.0168,0.0187,0.0063,0.0038,0.0005,0.0143,0.0283,0.0137,0.0244,0.0222,-0.0104,-0.0008,-0.0461,0.0802,0.1132,0.0816,0.0489,0.0266,0.0179,0.0261,0.0426,0.0555,0.0643,0.0747,0.0906,0.1099,0.1313,0.1486,0.1568,0.1538,0.1401,0.111,0.0615,0.0058,-0.0519,-0.0964,-0.1456,-0.1958,-0.2348,-0.3074,-0.37,-0.2906,-0.0824,0.0316,0.0428,0.0085,0.0173,0.0069,0.003,0.0033,0.0038,0.0195,0.0332,-0.0044,0.0481,0.0437,-0.0069,0.0159,0.0052,0.0494,0.0516,0.039,0.0247,0.0264,0.039,0.0607,0.0862,0.1132,0.1379,0.1566,0.1667,0.173,0.1774,0.178,0.1796,0.1708,0.1489,0.1027,0.0376,-0.0297,-0.0895,-0.134,-0.1761,-0.2326,-0.2914,-0.3409,-0.4057,-0.3466,-0.1132,0.0261,0.0124,0.0082,0.0129,0.0038,0.0016,0.0019,0.0066,0.0297,0.0382,-0.0096,0.0558,0.0244,0,0.0379,0.0258,0.0288,0.0346,0.0338,0.0439,0.0684,0.0981,0.1283,0.1527,0.1739,0.1887,0.1969,0.2038,0.2052,0.1969,0.1741,0.1461,0.1192,0.0819,0.0266,-0.0415,-0.1014,-0.1296,-0.1296,-0.1516,-0.212,-0.2969,-0.365,-0.4271,-0.3955,-0.1887,-0.0173,-0.0453,0.0038,0.0088,0.0041,0.0022,0.0008,0.0058,0.0242,0.0206,0,0.0401,-0.0008,0.0541,0.0456,0.0453,0.0514,0.0558,0.0665,0.0937,0.128,0.159,0.1923,0.2181,0.2315,0.2412,0.2505,0.2499,0.2271,0.1862,0.1376,0.0755,0.019,-0.0371,-0.0939,-0.1453,-0.1566,-0.1165,-0.0937,-0.1217,-0.1835,-0.2727,-0.3546,-0.437,-0.448,-0.264,-0.0862,-0.0857,0.0022,0.0074,0.0085,0.0055,0.0005,0.0019,0.0113,0,-0.0118,0.006,0.0038,0.0409,0.0459,0.0656,0.0832,0.0942,0.1129,0.1461,0.1928,0.2417,0.2782,0.2966,0.3013,0.3002,0.2911,0.2651,0.2153,0.1434,0.072,-0.0082,-0.0871,-0.1541,-0.2044,-0.2159,-0.1505,-0.0698,-0.0673,-0.103,-0.1552,-0.2263,-0.2873,-0.3645,-0.4049,-0.3019,-0.1821,-0.0766]}],[{"header":{"parameterUnit":"m.s-1","parameterCategory":2,"la1":30.5641,"la2":29.4642,"lo1":-89.4342,"lo2":-87.9343,"dy":0.0333,"dx":0.0333,"nx":46,"ny":34,"refTime":"2024-02-26T00:00:00:Z","depth":"4","parameterNumber":2,"parameterNumberName":"U-component_of_CURRENTS"},"data":[0,0,0,0,0,0,0,0,0,0,0,0,0,0,0,0,0,0,0,0,0,0,0,0,0,0,0,0,0,0,0,0,0,0,0,0,0,0,0,0,0,-0.0335,-0.0615,-0.0332,-0.0146,0,0,0,0,0,0,0,0,0,0,0,0,0,0,0,0,0,0,0,0,0,0,0,0,0,0,0,0,0,0,0,0,0,0,0,0,0,0,0,0,0,0,-0.0423,-0.0923,-0.0835,-0.0596,0,0,0,0,0,0,0,0,0,0,0,0,0,0,0,0,0,0,0,0,0,0,0,0,0,0,0,0,0,0,0,0,0,0,0,0,0,0,0,0,0,0,-0.0393,-0.0942,-0.1008,-0.0783,0,0,0,0,0,0,0,0,0,0,0,0,0,0,0,0,0,0,0,0,0,0,0,0,0,0,0,0,0,0,0,0,0,0,0,0,0,0,0,0,0,0,-0.064,-0.0593,-0.0862,-0.0797,0,0,0,0,0,0,0,0,0,0,0,0,0,0,0,0,0,0,0,0,0,0,0,0,0,0,0,0,0,0,0,0,0,0,0,0,0,0,0,0,0,-0.045,-0.089,-0.0981,-0.1,-0.0629,0,0,0,0,0,0,0,0,0,0,0,0,0,0,0,0,0,0,0,0,0,0,0,0,0,0,0,0,0,0,0,0,0,0,0,0,0,0,0,0,0,-0.0434,-0.1027,-0.12,-0.1165,-0.1184,0,0,0,0,0,0,0,0,0,0,0,0,0.0126,0.0335,0.0519,0.0744,0.0961,0.1019,0.0901,0.0766,0.0717,0,0,0,0,0,0,0,0,0,0,0,0,0.0192,0.0538,0.0692,0,0,0,0,0,-0.0467,-0.1173,-0.1439,-0.145,-0.139,0,0,0,0,0,0,0,0,0,-0.0025,0.0203,0.0527,0.0511,0.0442,0.0538,0.0755,0.0882,0.0786,0.0505,0.0047,-0.0074,-0.0107,0.0151,0.12,0.1505,0.0667,0.0233,0,0,0,0,-0.0124,0.0135,0.0497,0.0225,-0.0027,0,0,0,0,0,-0.0816,-0.164,-0.164,-0.1546,-0.1376,0,0,0,0,-0.0489,-0.0709,-0.0154,0.0195,0.0209,0.0294,0.0467,0.0497,0.0481,0.0494,0.0533,0.0643,0.072,0.0678,0.0637,0.0431,0.0228,0.0464,0.0442,0.0071,-0.0143,-0.0132,-0.0014,0.0033,0.0203,0.0505,0.0516,0.0258,-0.0203,-0.0588,-0.0588,-0.0129,0.0217,-0.0063,-0.0832,-0.1316,-0.139,-0.0802,-0.0698,-0.1252,-0.1354,-0.1549,0,0,0,-0.0558,-0.0775,-0.0148,0.0176,0.0261,0.0247,0.045,0.0357,0.0168,0.0467,0.0651,0.0648,0.0659,0.0926,0.1263,0.1187,0.0816,0.0544,0.0327,-0.0016,-0.0173,0.0052,0.0764,0.1643,0.1651,0.1222,0.1016,0.0648,0.0387,0.0415,0.0192,0.0069,0.0409,0.078,0.0736,0.0525,0,0,0,-0.1373,-0.2791,-0.2156,-0.1307,0,0,-0.0684,-0.1085,-0.0533,-0.008,0.0148,0.0198,0.031,0.0453,0,0,0,0.0099,0.0387,0.0478,0.0376,0,0.0058,0.0341,0.0558,0,0,0,0,0,0,0,-0.0198,-0.0319,-0.0099,0.0313,0.0714,0.092,0.0992,0,0,-0.0143,-0.0253,-0.0437,-0.0887,-0.1066,0.0162,0.1346,0,0,0,-0.072,-0.1225,-0.0736,-0.017,-0.0047,-0.0063,-0.0058,0.011,0.0511,0.0775,0.0786,0.0725,0.0909,0.1101,0,0,0.0184,0.0654,0.0948,0.1107,0.1077,0.0662,0.0349,-0.0011,-0.0244,-0.0269,0.0016,0.028,0,0,0,0.0027,-0.0052,0.017,0.0294,-0.0019,0.0071,0.042,0.056,0.0016,-0.0426,0,0.0299,0.0365,0.0008,0.0192,-0.1349,-0.0709,-0.0231,0.0085,-0.0047,0.011,0.0179,0.0187,0.0714,0.1066,0.1121,0.1038,0.1022,0.1244,0.1489,0.1689,0.187,0.1936,0.1859,0.1914,0.192,0.1829,0.1588,0.1296,0.1302,0.1456,0.0931,0.0928,0.0714,0.0217,0.0508,0.0788,0.095,0.0893,0.0799,0.0618,0.0733,0.1038,0.1027,0.0544,0.0667,0.1126,0.1027,0.1035,0.0549,0.0264,0,-0.0544,-0.0725,-0.0291,0.0022,0.0244,0,0,-0.0033,0.0231,0.0656,0.0928,0.1211,0.15,0.1703,0.1824,0.2115,0.2357,0.2412,0.234,0.2178,0.1983,0.1662,0.139,0.1398,0.1563,0.1816,0.1846,0.1741,0.1958,0.2222,0.2082,0.1728,0.1376,0.1241,0.1351,0.1546,0.1667,0.1692,0.1522,0.1447,0.148,0.1585,0.1588,0.1285,0.0934,-0.1162,-0.0835,-0.0687,-0.0275,-0.0036,0,0,0,0.0074,0.0423,0.0827,0.1101,0.1376,0.161,0.1758,0.1912,0.2321,0.2582,0.2543,0.2491,0.2288,0.206,0.1895,0.1763,0.1733,0.1675,0.1623,0.1736,0.1931,0.2033,0.1964,0.1835,0.1725,0.1662,0.1659,0.1659,0.1604,0.1513,0.1467,0.1395,0.1511,0.1722,0.1736,0.1629,0.1387,0.1107,-0.0357,-0.0508,-0.0299,0,0,0,0,0,0.0027,0.0448,0.1,0.1241,0.1409,0.1568,0.1675,0.1824,0.2431,0.2873,0.251,0.228,0.217,0.1931,0.1758,0.164,0.1582,0.1401,0.1206,0.1214,0.1343,0.1442,0.1434,0.1415,0.1464,0.1516,0.148,0.1365,0.1211,0.106,0.1027,0.1154,0.1335,0.1464,0.1535,0.1555,0.1365,0.1063,0,0,-0.0387,-0.0626,0.0033,0.0566,0,0,0.0096,0.0585,0.1159,0.1371,0.1329,0.1239,0.1151,0.1126,0.1165,0,0.0538,0.1313,0.1621,0.1516,0.1379,0.1313,0.1285,0.0972,0.0651,0.0599,0.064,0.0722,0.0808,0.0871,0.092,0.092,0.0816,0.0654,0.056,0.0602,0.0758,0.0967,0.1126,0.1189,0.1233,0.1255,0.114,0.0829,0,0,0.0082,0.003,0.0242,0.0593,0.0121,-0.0107,0.0527,0.1035,0.1231,0.1239,0.1068,0.0816,0.0689,0.0549,0.0052,-0.0308,0,0.0063,0.0667,0.0928,0.1,0.1093,0.1079,0.0703,0.0286,0.0146,0.0099,0.0077,0.0077,0.0096,0.0124,0.0115,0.006,0.0025,0.0104,0.028,0.0437,0.0552,0.0692,0.0827,0.0926,0.0917,0.07,0.0379,0,0,0,-0.0066,-0.0132,0,0,0,0.0104,0.0338,0.0492,0.0549,0.0492,0.0398,0.0412,0.0456,0.0321,0.0154,0,0.0137,0.0423,0.0772,0.0928,0.109,0.1063,0.0678,0.0168,-0.014,-0.0291,-0.042,-0.0544,-0.0615,-0.0621,-0.0569,-0.045,-0.0239,-0.0014,0.008,0.0107,0.0173,0.0275,0.0415,0.0558,0.0574,0.0321,-0.0019,0,0,0,0,0,0,0,0.0184,0.0536,0.0618,0.0439,0.033,0.0338,0.0396,0.0434,0.0569,0.0569,0.0431,0,0.0019,0.0354,0.0868,0.1104,0.1195,0.1132,0.0876,0.045,0.0022,-0.031,-0.056,-0.0733,-0.0808,-0.075,-0.0558,-0.0305,-0.008,0.0038,0.0058,0.0027,-0.0008,0.0011,0.0104,0.0253,0.0283,0.0044,0.028,0,0,0,0,0,0,0.0063,0.025,0.0376,0.0371,0.0354,0.0341,0.0415,0.0516,0.0552,0.0593,0.0503,0.0382,0,0.0041,0.0393,0.1025,0.1266,0.1283,0.1181,0.1055,0.0879,0.0607,0.0297,0.0036,-0.0137,-0.0179,-0.0069,0.0126,0.0286,0.0324,0.0269,0.0214,0.0181,0.0135,0.0036,-0.0019,0.0107,0.0211,0.0426,0.0838,0,0,0,0,0,0,-0.0005,0.0176,0.039,0.0431,0.045,0.0437,0.0459,0.0442,0.0492,0.0604,0,0,0,0.017,0.0662,0.1107,0.1263,0.1233,0.1159,0.1104,0.1074,0.1025,0.0948,0.0865,0.081,0.0799,0.0816,0.0808,0.075,0.07,0.0651,0.0519,0.0371,0.0297,0.0233,0.0168,0.022,0.047,0.0637,0.0563,0,0,0,0,0,0,0.011,0.0302,0.0445,0.0511,0.0516,0.0478,0.0396,0.019,0.0162,0.0008,-0.0277,0,0,0.0299,0.0813,0.1066,0.1165,0.1145,0.1096,0.1063,0.1066,0.1079,0.1079,0.1093,0.1173,0.1329,0.1519,0.1686,0.1774,0.1774,0.1755,0.1557,0.1272,0.1035,0.0827,0.072,0.0667,0.0684,0.0596,0.0461,0,0,0,0,0,0.0025,0.0192,0.0368,0.0448,0.0522,0.0549,0.0569,0.0591,0,-0.0027,0.0118,0.0286,0,0,0.0275,0.0758,0.1008,0.1118,0.1132,0.1079,0.1019,0.0972,0.0917,0.0873,0.092,0.1082,0.131,0.1557,0.1796,0.1989,0.2115,0.2126,0.2065,0.1934,0.1651,0.1178,0.0802,0.0731,0.0725,0.0632,0.0536,0,-0.0093,-0.0049,-0.0005,0,0.0074,0.017,0.0283,0.042,0.0483,0.0508,0.0519,0.0382,0.0231,0.0376,0.0456,0.0387,0,0.0222,0.064,0.0928,0.1057,0.1148,0.1162,0.109,0.0992,0.0895,0.0783,0.072,0.0775,0.0948,0.1176,0.142,0.1689,0.1961,0.2217,0.2392,0.2362,0.2211,0.1936,0.1412,0.086,0.0634,0.0665,0.0645,0.0582,0,0.022,0,-0.0044,-0.0091,0,0.0052,0.0247,0.045,0.0508,0.0514,0.0522,0.0494,0.0461,0.045,0.0393,0.0338,0,0.0242,0.07,0.0912,0.1035,0.1148,0.117,0.1079,0.0964,0.0884,0.0813,0.0775,0.0819,0.0961,0.1167,0.1406,0.1659,0.1939,0.2225,0.2524,0.2692,0.2576,0.2263,0.1873,0.1274,0.0673,0.0505,0.0522,0.0505,0,0.0014,0.0019,0.0088,0.0129,0.0135,0.0253,0.0461,0.061,0.0645,0.0673,0.0676,0.0689,0.0645,0.05,0.0423,0,0.0453,0.1008,0.1077,0.0994,0.1,0.1112,0.1162,0.1077,0.0981,0.0945,0.0939,0.0981,0.1137,0.1428,0.1796,0.2173,0.2499,0.2725,0.2843,0.2906,0.2994,0.2977,0.2648,0.2192,0.1546,0.0733,0.0352,0.0343,0.0376,-0.0033,0.0071,0.0266,0.0297,0.0222,0.0148,0.0239,0.0483,0.0662,0.078,0.0851,0.089,0.0816,0.0456,0.0203,0,0.05,0.103,0.1046,0.0967,0.0871,0.0849,0.097,0.1088,0.106,0.1003,0.1038,0.1211,0.1555,0.2027,0.2541,0.3008,0.3411,0.3777,0.4109,0.4326,0.4353,0.4197,0.3856,0.329,0.2664,0.1879,0.084,0.0195,0.019,0.0393,0.0115,0.0217,0.0299,0.0209,0.014,0.0154,0.0272,0.0494,0.0698,0.0829,0.097,0.1011,0.089,0.081,0,0.0558,0.1151,0.1121,0.1016,0.0909,0.0829,0.078,0.0865,0.1071,0.1239,0.1357,0.1618,0.2118,0.2716,0.3241,0.3639,0.3941,0.4183,0.4414,0.4746,0.5172,0.5441,0.5463,0.5298,0.4694,0.3678,0.2574,0.1456,0.0862,0.1014,0.1305,0.0206,0.0244,0.0179,0.011,0.0118,0.0157,0.0272,0.0511,0.0684,0.0788,0.0959,0.1055,0.114,0.1538,0.1969,0.1857,0.1395,0.1093,0.0909,0.0862,0.0884,0.0934,0.1063,0.1371,0.1794,0.2258,0.2818,0.3425,0.3991,0.4433,0.4722,0.4848,0.4889,0.498,0.5221,0.5636,0.6136,0.64,0.6339,0.6021,0.5175,0.3733,0.2318,0.1912,0.2296,0.2445,0.0192,0.014,0.0104,0.0099,0.0107,0.0143,0.0255,0.0483,0.0602,0.0717,0.0912,0.1066,0.1239,0.1475,0.1593,0.1379,0.12,0.1082,0.106,0.1159,0.1354,0.1618,0.1969,0.242,0.2955,0.3593,0.4235,0.4878,0.5449,0.5889,0.6073,0.5842,0.5482,0.5449,0.5625,0.5894,0.637,0.6916,0.7097,0.6955,0.6471,0.5046,0.3134,0.2236,0.2115,0.1752,0.0247,0.0148,0.0113,0.0121,0.0126,0.0143,0.0214,0.0448,0.0725,0.0736,0.0645,0,0.0091,0.0613,0.1096,0.1261,0.1384,0.1566,0.1851,0.2206,0.2574,0.2955,0.3428,0.3996,0.4669,0.5323,0.5889,0.6276,0.6488,0.657,0.6526,0.6213,0.5815,0.5636,0.576,0.6051,0.6512,0.7001,0.7284,0.7317,0.7298,0.6408,0.4106,0.2304,0.1522,0.0794,0.0302,0.0198,0.0151,0.0173,0.0184,0.0173,0.0047,-0.0066,0,-0.0176,-0.022,0.0151,0.0511,0.0821,0.1126,0.1423,0.1719,0.2082,0.2499,0.2961,0.3491,0.4114,0.4815,0.5551,0.6194,0.6652,0.6941,0.6988,0.6765,0.6424,0.6188,0.5914,0.5411,0.5051,0.518,0.565,0.6174,0.6573,0.6853,0.7051,0.7221,0.7312,0.6353,0.3019,-0.017,-0.0967,0.036,0.0297,0.0222,0.0203,0.0211,0.0201,0.019,0,-0.011,-0.0082,0.0157,0.0308,0.0536,0.0843,0.1307,0.1535,0.1761,0.2085,0.2634,0.3389,0.4266,0.5142,0.59,0.6455,0.6771,0.6817,0.6735,0.6501,0.6131,0.5826,0.5743,0.5589,0.5161,0.4768,0.4765,0.5139,0.5598,0.6004,0.638,0.6683,0.6842,0.713,0.7281,0.6446,0.4689,0.2986]},{"header":{"parameterUnit":"m.s-1","parameterCategory":2,"la1":30.5641,"la2":29.4642,"lo1":-89.4342,"lo2":-87.9343,"dy":0.0333,"dx":0.0333,"nx":46,"ny":34,"refTime":"2024-02-26T00:00:00:Z","depth":"4","parameterNumber":3,"parameterNumberName":"V-component_of_CURRENTS"},"data":[0,0,0,0,0,0,0,0,0,0,0,0,0,0,0,0,0,0,0,0,0,0,0,0,0,0,0,0,0,0,0,0,0,0,0,0,0,0,0,0,0,-0.0121,-0.0332,-0.0027,-0.0871,0,0,0,0,0,0,0,0,0,0,0,0,0,0,0,0,0,0,0,0,0,0,0,0,0,0,0,0,0,0,0,0,0,0,0,0,0,0,0,0,0,0,-0.0277,0.0005,-0.0522,-0.0791,0,0,0,0,0,0,0,0,0,0,0,0,0,0,0,0,0,0,0,0,0,0,0,0,0,0,0,0,0,0,0,0,0,0,0,0,0,0,0,0,0,0,-0.0744,0.0165,-0.0472,-0.0626,0,0,0,0,0,0,0,0,0,0,0,0,0,0,0,0,0,0,0,0,0,0,0,0,0,0,0,0,0,0,0,0,0,0,0,0,0,0,0,0,0,0,-0.0681,-0.0082,-0.0486,-0.0385,0,0,0,0,0,0,0,0,0,0,0,0,0,0,0,0,0,0,0,0,0,0,0,0,0,0,0,0,0,0,0,0,0,0,0,0,0,0,0,0,0,-0.0522,-0.0198,-0.0407,-0.0478,-0.0038,0,0,0,0,0,0,0,0,0,0,0,0,0,0,0,0,0,0,0,0,0,0,0,0,0,0,0,0,0,0,0,0,0,0,0,0,0,0,0,0,0,-0.0813,-0.0195,-0.0426,-0.0354,0.0066,0,0,0,0,0,0,0,0,0,0,0,0,0.0217,0.0107,0.0104,0.0093,-0.003,-0.0209,-0.0264,-0.0365,-0.0879,0,0,0,0,0,0,0,0,0,0,0,0,0.0319,-0.0082,-0.1233,0,0,0,0,0,-0.1316,-0.0478,-0.0618,-0.0456,-0.0088,0,0,0,0,0,0,0,0,0,-0.0132,0.0027,0.0151,0.0184,0.0088,0.0143,0.0206,-0.0063,-0.0338,-0.0483,-0.0602,-0.0821,-0.0387,0.0519,0.0071,-0.1011,-0.0887,-0.0981,0,0,0,0,-0.0349,0.0602,-0.0088,-0.0791,-0.1892,0,0,0,0,0,-0.2022,-0.0645,-0.0824,-0.0481,0.0003,0,0,0,0,-0.0733,0.011,-0.0118,-0.0124,-0.0253,0.0005,-0.0214,-0.0069,-0.0025,0.0074,0.0225,0.0277,-0.0146,-0.061,-0.0698,-0.1008,-0.0912,-0.0536,0.0319,-0.0297,-0.0722,-0.0725,-0.0629,0.0569,0.0129,-0.0417,-0.0651,-0.0621,-0.0008,-0.0332,-0.0931,-0.2131,-0.0269,-0.0168,-0.0983,0.0,0.0,-0.1209,-0.1217,-0.0753,-0.0387,-0.0096,0,0,0,-0.0678,-0.0308,0.0047,-0.0129,-0.0222,-0.0371,0.0288,-0.0225,-0.014,-0.0102,-0.0126,0.019,0.0096,0.0151,-0.0374,-0.0953,-0.1376,-0.1151,-0.0341,0.006,-0.0316,-0.0217,-0.028,-0.0146,0.0283,-0.0217,-0.0753,-0.0849,-0.0904,-0.0667,-0.0503,-0.0409,-0.0884,-0.0135,-0.1019,-0.1686,0,0,0,-0.2634,-0.1252,-0.0201,-0.0162,0,0,-0.0739,-0.022,0.0165,0.0014,-0.0168,-0.0393,-0.0547,0.0154,0,0,0,-0.0401,0.0209,-0.0019,0.025,0,-0.0928,-0.1373,-0.1593,0,0,0,0,0,0,0,-0.042,-0.0549,-0.0525,-0.0456,-0.0873,-0.0873,-0.1085,0,0,-0.1898,-0.2348,-0.0942,-0.0121,-0.0244,-0.1736,-0.2966,0,0,0,-0.0791,-0.033,0.0253,0.011,-0.0124,-0.0071,-0.0569,-0.0536,-0.0016,-0.0203,-0.0228,-0.0396,-0.0492,-0.0231,0,0,-0.0049,-0.0574,-0.1101,-0.1697,-0.0777,-0.0497,-0.0629,-0.0654,-0.0703,-0.0643,0.017,-0.0525,0,0,0,-0.0838,-0.0714,-0.1382,-0.07,-0.0233,-0.1277,-0.1914,-0.0975,-0.0151,-0.0898,0,-0.3557,-0.036,0.0228,0.0195,-0.0396,0.0343,0.006,-0.0184,-0.0255,0.0269,-0.0335,-0.022,0.011,-0.0239,-0.0316,-0.0387,-0.0415,-0.0464,0.031,0.0363,0.0022,-0.0407,-0.0926,-0.1266,-0.0854,-0.0725,-0.0832,-0.0857,-0.0717,-0.0494,0.0151,-0.0365,-0.0393,-0.0695,-0.0648,-0.047,-0.0739,-0.12,-0.0832,-0.0486,-0.0923,-0.1623,-0.1469,-0.0898,-0.1079,-0.0525,-0.2549,-0.0786,-0.0011,0.0211,0,-0.0118,0.0019,-0.0415,-0.0049,0.0239,0,0,-0.0225,-0.0192,-0.0214,-0.0146,-0.011,0.0044,0.0387,0.0423,0.0288,-0.0143,-0.0629,-0.0975,-0.1079,-0.1126,-0.1057,-0.0909,-0.0409,-0.0027,0.0203,0.0066,-0.0404,-0.0698,-0.0651,-0.064,-0.0769,-0.1148,-0.1055,-0.0854,-0.0948,-0.1365,-0.1678,-0.1673,-0.1458,-0.1104,-0.2057,-0.1371,-0.033,0.0165,0.0497,-0.0846,-0.0063,-0.0211,0.0049,0,0,0,-0.0536,-0.0121,0.0082,0.0214,0.0222,0.0288,0.0453,0.0481,0.0744,-0.0066,-0.0525,-0.0843,-0.1214,-0.1426,-0.1225,-0.089,-0.0272,0.0176,0.0179,-0.0027,-0.0407,-0.0684,-0.078,-0.0895,-0.1022,-0.1123,-0.1066,-0.0997,-0.1134,-0.1409,-0.1601,-0.1604,-0.161,-0.1247,-0.1546,-0.1697,-0.1112,-0.0681,0.0247,-0.0456,-0.0472,0,0,0,0,0,-0.0566,-0.0014,0.0272,0.0374,0.0346,0.0308,0.0376,0.0483,0.159,-0.0071,-0.1003,-0.0769,-0.1189,-0.1593,-0.1437,-0.1121,-0.0602,-0.006,-0.0082,-0.0371,-0.0667,-0.0882,-0.0994,-0.1099,-0.1206,-0.1269,-0.1296,-0.1376,-0.1538,-0.1612,-0.164,-0.1588,-0.1508,-0.1327,-0.1387,-0.1659,-0.1796,-0.1703,0,0,-0.05,0.0148,-0.014,-0.1126,0,0,-0.0393,0.0365,0.0475,0.0371,0.0277,0.0198,0.0206,0.0459,0.1653,0,-0.0731,-0.0689,-0.1093,-0.1618,-0.1599,-0.136,-0.0901,-0.0327,-0.0335,-0.0549,-0.0783,-0.0997,-0.1145,-0.1266,-0.1382,-0.1516,-0.1637,-0.1706,-0.1722,-0.1675,-0.1533,-0.1349,-0.1255,-0.1305,-0.1467,-0.1728,-0.192,-0.1873,0,0,-0.0179,-0.0148,0.0038,-0.0563,0.0,0.0,0.0016,0.0599,0.0549,0.0288,0.0102,0.0052,0.003,0.0269,0.081,0.0662,0,-0.0514,-0.095,-0.1461,-0.1585,-0.1426,-0.1049,-0.0552,-0.0519,-0.0678,-0.0887,-0.1107,-0.1274,-0.142,-0.1566,-0.1689,-0.1777,-0.1835,-0.1769,-0.1494,-0.1176,-0.1052,-0.1115,-0.1277,-0.1478,-0.1777,-0.1909,-0.1829,0,0,0,-0.0222,0.011,0,0,0,0.0165,0.0549,0.0511,0.0239,0.003,-0.0033,-0.0027,0.0159,0.0374,0.0637,0,-0.0338,-0.075,-0.122,-0.1395,-0.1329,-0.111,-0.0805,-0.0709,-0.0791,-0.0981,-0.1206,-0.1395,-0.156,-0.1681,-0.1758,-0.178,-0.1697,-0.1445,-0.1082,-0.0876,-0.0884,-0.0992,-0.1165,-0.136,-0.167,-0.1892,-0.1868,0,0,0,0,0,0,0,0.0168,0.0126,0.0305,0.033,0.0201,0.0124,0.0055,0.0033,0.036,0.0159,0.0456,0,-0.0341,-0.0475,-0.0931,-0.1134,-0.1156,-0.1121,-0.1035,-0.0934,-0.0926,-0.1055,-0.125,-0.1445,-0.1579,-0.1621,-0.1524,-0.1343,-0.1121,-0.0865,-0.0706,-0.0711,-0.0772,-0.0783,-0.0906,-0.1211,-0.164,-0.1975,-0.1653,0,0,0,0,0,0,0.0,0.0148,0.0082,0.0038,0.0091,0.0129,0.0247,0.0184,0.0071,0.0656,0.0025,0.0148,0,-0.0385,-0.0192,-0.0574,-0.0824,-0.0959,-0.1071,-0.1156,-0.1151,-0.1112,-0.1121,-0.1195,-0.1313,-0.1351,-0.1195,-0.089,-0.0599,-0.0445,-0.0382,-0.0423,-0.0522,-0.0569,-0.0514,-0.0585,-0.095,-0.1486,-0.1813,-0.0656,0,0,0,0,0,0,-0.0041,0.0157,0.0063,-0.0011,-0.0014,0.0036,0.0308,0.0036,0.0121,0.0725,0,0,0,-0.0132,0.0052,-0.0277,-0.0563,-0.0786,-0.0953,-0.1123,-0.1255,-0.1296,-0.1277,-0.125,-0.1225,-0.1088,-0.0791,-0.047,-0.0308,-0.033,-0.0365,-0.0368,-0.0404,-0.0401,-0.0324,-0.033,-0.0577,-0.1085,-0.1123,-0.0011,0,0,0,0,0,0,-0.0025,0.017,0.0074,-0.0033,-0.0096,-0.0099,0.0283,-0.0074,0.0085,0.0434,0.047,0,0,0.0286,0.0288,-0.008,-0.0398,-0.0654,-0.0843,-0.1038,-0.1247,-0.1406,-0.1469,-0.1409,-0.1225,-0.0926,-0.0621,-0.0445,-0.045,-0.0626,-0.0802,-0.0698,-0.0571,-0.0316,-0.0074,-0.0168,-0.0374,-0.0736,-0.0665,-0.006,0,0,0,0,0,0.0008,0.0,0.0154,0.0058,-0.0069,-0.0143,-0.0184,0.0088,0,-0.0069,0.0203,0.047,0,0,0.0571,0.0467,0.0041,-0.0294,-0.0563,-0.078,-0.0992,-0.1225,-0.1423,-0.1461,-0.1274,-0.095,-0.064,-0.0428,-0.0393,-0.0497,-0.0753,-0.109,-0.1274,-0.1189,-0.07,-0.0036,-0.0044,-0.0371,-0.0645,-0.067,-0.0146,0,0.0008,0.0,0.0244,0,0.0005,-0.0049,0.0157,0.0027,-0.0115,-0.0176,-0.0222,-0.0201,-0.0192,-0.0143,0.0198,0.0319,0,0.0426,0.0659,0.0481,0.0113,-0.0217,-0.0494,-0.0739,-0.0959,-0.1173,-0.1283,-0.1143,-0.0799,-0.047,-0.0272,-0.0203,-0.0277,-0.0437,-0.0739,-0.1085,-0.1571,-0.1887,-0.1637,-0.0794,-0.0088,-0.0316,-0.0632,-0.0692,-0.0283,0,-0.0099,0,0.0085,0.0187,0,-0.0069,0.0201,-0.0003,-0.0179,-0.0244,-0.0264,-0.0319,-0.0195,-0.0036,0.0206,0.0088,0,0.0667,0.0698,0.0434,0.0165,-0.0132,-0.0431,-0.0684,-0.0887,-0.1041,-0.1003,-0.0681,-0.0272,0.0019,0.0143,0.0132,0.0003,-0.0244,-0.061,-0.1044,-0.1508,-0.2104,-0.2376,-0.1827,-0.0555,-0.0255,-0.0607,-0.0673,-0.0431,0,-0.0294,-0.0162,0.0005,0.0154,0.0036,-0.0014,0.0165,-0.0063,-0.0239,-0.0321,-0.0313,-0.0264,-0.017,0.003,0.0102,0,0.0926,0.0849,0.0599,0.0363,0.0225,-0.0011,-0.0341,-0.061,-0.0788,-0.0854,-0.0689,-0.0286,0.0159,0.0461,0.0574,0.0544,0.0396,0.0132,-0.025,-0.0769,-0.1351,-0.2,-0.2708,-0.2662,-0.1453,-0.0483,-0.0621,-0.0659,-0.0527,-0.0003,-0.0288,-0.003,0.0148,0.0093,-0.0003,0.0085,0.0096,-0.0099,-0.0239,-0.0327,-0.0343,-0.0242,-0.0393,-0.0003,0,0.1025,0.0871,0.0604,0.033,0.0242,0.0247,0.0132,-0.017,-0.0486,-0.0673,-0.0643,-0.0379,0.0044,0.0437,0.0634,0.0637,0.0505,0.0297,0.0071,-0.0233,-0.0623,-0.1178,-0.1774,-0.2656,-0.3241,-0.2456,-0.1241,-0.0769,-0.0744,-0.0541,-0.0016,-0.0036,0.0173,0.0135,0.0038,-0.0036,0.0115,0.0107,-0.0058,-0.0154,-0.0247,-0.0352,-0.0338,-0.0942,0,0.0983,0.0923,0.0654,0.0335,0.0154,0.0159,0.0247,0.0231,0.0041,-0.0231,-0.0327,-0.0217,0.0055,0.0363,0.0547,0.0549,0.0404,0.0157,-0.0154,-0.0486,-0.0777,-0.1055,-0.1434,-0.1887,-0.2519,-0.3417,-0.3323,-0.2274,-0.0964,-0.0478,-0.0209,0.0005,0.0143,0.0154,0.0038,0.0014,-0.0014,0.0099,0.0135,-0.0077,-0.0016,-0.0118,-0.0492,-0.0354,-0.0846,0.025,0.067,0.0522,0.0305,0.0115,0.0049,0.0132,0.025,0.0286,0.0261,0.0239,0.0264,0.0365,0.0516,0.0648,0.0684,0.0599,0.0393,0.0192,-0.0074,-0.0505,-0.1027,-0.1522,-0.1978,-0.2425,-0.2807,-0.3494,-0.395,-0.3076,-0.1035,0.0203,0.0332,0.0066,0.0146,0.0047,0.0011,0.0011,0.0022,0.0151,0.0099,-0.0363,0.017,0.0019,-0.0313,-0.0354,-0.0415,0.0069,0.0187,0.0126,0.0033,0.0044,0.0124,0.0275,0.0407,0.0505,0.0607,0.0684,0.0736,0.0761,0.0808,0.0819,0.0783,0.0692,0.0585,0.0464,0.0302,-0.0085,-0.0703,-0.1431,-0.2087,-0.2716,-0.331,-0.3812,-0.4362,-0.3612,-0.1332,0.0113,0.0014,0.0058,0.0104,0.0022,0.0,0.0,0.0055,0.0242,0.0016,-0.0291,0.0082,-0.0272,0,-0.0272,-0.0179,-0.0027,0.0049,0.0022,0.0071,0.0222,0.0385,0.0538,0.0706,0.086,0.0945,0.0994,0.1035,0.1035,0.0945,0.0775,0.0588,0.0448,0.0349,0.036,0.0244,-0.0047,-0.0571,-0.125,-0.1832,-0.2505,-0.3398,-0.4057,-0.4623,-0.412,-0.2044,-0.039,-0.0632,0.0008,0.0058,0.0025,0.0005,-0.0011,0.0044,0.0176,-0.0008,0,-0.0244,-0.0398,0.0129,0.0005,0.0146,0.0222,0.0173,0.0179,0.0283,0.047,0.0662,0.0876,0.1079,0.1187,0.1261,0.1346,0.1371,0.1261,0.0978,0.0585,0.0275,0.008,-0.0096,-0.019,-0.0308,-0.0566,-0.0904,-0.1162,-0.1453,-0.2153,-0.3139,-0.3966,-0.4749,-0.4708,-0.2824,-0.1107,-0.1066,-0.0082,-0.0008,0.0052,0.003,-0.0016,0.0003,-0.0047,0,-0.0472,-0.0321,-0.014,0.014,0.0228,0.0401,0.0437,0.0321,0.0302,0.0497,0.0802,0.117,0.1467,0.1588,0.161,0.1621,0.159,0.1467,0.12,0.0802,0.0352,0.0063,-0.0264,-0.0766,-0.1066,-0.1143,-0.1181,-0.1019,-0.0832,-0.1074,-0.1758,-0.2557,-0.3227,-0.4021,-0.4375,-0.3315,-0.2126,-0.1118]}],[{"header":{"parameterUnit":"m.s-1","parameterCategory":2,"la1":30.5641,"la2":29.4642,"lo1":-89.4342,"lo2":-87.9343,"dy":0.0333,"dx":0.0333,"nx":46,"ny":34,"refTime":"2024-02-26T00:00:00:Z","depth":"6","parameterNumber":2,"parameterNumberName":"U-component_of_CURRENTS"},"data":[0,0,0,0,0,0,0,0,0,0,0,0,0,0,0,0,0,0,0,0,0,0,0,0,0,0,0,0,0,0,0,0,0,0,0,0,0,0,0,0,0,-0.0033,0.0195,0.042,0.0357,0,0,0,0,0,0,0,0,0,0,0,0,0,0,0,0,0,0,0,0,0,0,0,0,0,0,0,0,0,0,0,0,0,0,0,0,0,0,0,0,0,0,-0.0049,0.0027,0.0159,0.0195,0,0,0,0,0,0,0,0,0,0,0,0,0,0,0,0,0,0,0,0,0,0,0,0,0,0,0,0,0,0,0,0,0,0,0,0,0,0,0,0,0,0,-0.0011,0.0093,0.0192,0.0203,0,0,0,0,0,0,0,0,0,0,0,0,0,0,0,0,0,0,0,0,0,0,0,0,0,0,0,0,0,0,0,0,0,0,0,0,0,0,0,0,0,0,-0.0102,0.0225,0.0283,0.028,0,0,0,0,0,0,0,0,0,0,0,0,0,0,0,0,0,0,0,0,0,0,0,0,0,0,0,0,0,0,0,0,0,0,0,0,0,0,0,0,0,-0.0091,-0.0074,0.006,0.0132,0.0225,0,0,0,0,0,0,0,0,0,0,0,0,0,0,0,0,0,0,0,0,0,0,0,0,0,0,0,0,0,0,0,0,0,0,0,0,0,0,0,0,0,-0.0055,-0.0115,-0.0137,-0.0121,-0.006,0,0,0,0,0,0,0,0,0,0,0,0,0.0096,0.0239,0.0412,0.0599,0.0566,0.0514,0.0563,0.058,0.0596,0,0,0,0,0,0,0,0,0,0,0,0,0.0338,0.0692,0.0684,0,0,0,0,0,-0.0146,-0.0354,-0.0475,-0.0558,-0.058,0,0,0,0,0,0,0,0,0,-0.008,-0.0266,-0.0069,0.0291,0.0385,0.0486,0.0541,0.0341,0.0016,-0.011,-0.006,0.0494,0.0909,0.1291,0.1673,0.1365,0.1101,0.1022,0,0,0,0,0.0041,0.0308,0.0415,0.0192,0.0085,0,0,0,0,0,-0.0269,-0.0618,-0.0808,-0.097,-0.0912,0,0,0,0,-0.0236,-0.0536,-0.0588,-0.0481,-0.0365,-0.0231,-0.011,-0.0052,0.0096,0.0308,0.0467,0.0346,0.003,-0.014,-0.0096,-0.0047,-0.0058,-0.0168,0.0253,0.0621,0.0505,0.0665,0.0519,0.0305,0.042,0.0379,0.0299,0.0225,0.0069,0.0008,0.0264,0.0428,0.0324,0.0228,-0.0104,-0.0225,-0.0242,0.0217,0.0527,0.0025,-0.036,-0.0676,0,0,0,-0.0258,-0.0431,-0.0423,-0.05,-0.0538,-0.0736,-0.0799,-0.0302,0.0168,0.0198,0.0233,0.0302,0.0242,0.019,0.0467,0.0483,0.0082,-0.0385,-0.0489,0.0085,0.0648,0.0953,0.1294,0.1766,0.1794,0.1145,0.0571,0.0423,0.0423,0.0162,-0.0272,-0.0115,0.0242,0.0761,0.1068,0.0898,0,0,0,-0.0327,-0.109,-0.1382,-0.0893,0,0,-0.0236,-0.0442,-0.0407,-0.0379,-0.0363,-0.0426,-0.0731,-0.0939,0,0,0,-0.0354,-0.0412,-0.008,-0.0071,0,0.014,0.0151,0.0011,0,0,0,0,0,0,0,-0.0313,-0.017,0.0574,0.1052,0.0775,-0.0154,-0.0585,0,0,0.0077,0.0102,0.0049,-0.0016,-0.0442,0.0439,0.1697,0,0,0,-0.0165,-0.0341,-0.0428,-0.0536,-0.0544,-0.0467,-0.0387,-0.0423,-0.0387,-0.028,-0.0321,-0.0445,-0.0538,-0.0549,0,0,-0.0261,-0.0233,0.0005,0.0286,0.0665,0.0695,0.0673,0.0467,0.0478,0.0481,0.0808,0.1022,0,0,0,-0.0077,-0.0181,0.0055,0.0552,0.0297,0.0255,0.0527,0.0519,0.0365,0.0302,0,0.025,0.0401,0.0272,0.036,-0.0637,-0.0231,-0.0467,-0.0802,-0.0989,-0.1016,-0.0516,-0.008,-0.0148,-0.0398,-0.0621,-0.053,-0.0352,0.0107,0.072,0.1044,0.086,0.0689,0.0802,0.0816,0.0739,0.0835,0.0797,0.0698,0.0766,0.0939,0.1008,0.1431,0.1351,0.0786,0.0662,0.0989,0.1121,0.1005,0.0994,0.089,0.0698,0.0648,0.0632,0.0536,0.0497,0.056,0.0629,0.0786,0.0629,0.058,0,-0.0258,-0.0648,-0.0934,-0.1159,-0.1209,0,0,-0.0547,-0.0975,-0.0687,-0.0393,-0.0099,0.0327,0.0802,0.1093,0.1118,0.0956,0.1107,0.0972,0.0843,0.0882,0.0849,0.0805,0.1038,0.1415,0.1703,0.187,0.2033,0.1994,0.1846,0.1783,0.1557,0.1233,0.1049,0.0928,0.0722,0.0615,0.0722,0.0898,0.1027,0.106,0.1104,0.103,0.0884,0.0832,-0.0703,-0.0676,-0.0975,-0.0937,-0.0659,0,0,0,-0.0461,-0.0832,-0.0582,-0.0335,-0.0091,0.0195,0.05,0.0827,0.1165,0.1184,0.111,0.0967,0.0854,0.0706,0.0706,0.0777,0.1082,0.1426,0.1582,0.1684,0.1818,0.1868,0.1788,0.1681,0.1544,0.1307,0.1123,0.0978,0.0758,0.0667,0.0753,0.0893,0.0873,0.0876,0.1063,0.1121,0.0989,0.0898,-0.0258,-0.0431,-0.0338,0,0,0,0,0,-0.0357,-0.0802,-0.0766,-0.0563,-0.0431,-0.028,0.0005,0.0437,0.1178,0.1645,0.1241,0.0819,0.0678,0.0475,0.0341,0.039,0.0706,0.1044,0.1143,0.1134,0.1154,0.1165,0.1101,0.1014,0.0959,0.0904,0.0758,0.0511,0.0459,0.0623,0.0758,0.0783,0.0819,0.089,0.0909,0.0846,0.0827,0.086,0,0,-0.0184,-0.0316,-0.019,-0.0115,0,0,-0.0192,-0.0547,-0.0637,-0.0527,-0.0464,-0.0453,-0.0426,-0.036,-0.0354,0,0.022,0.0225,0.0352,0.0242,0.0173,0.0162,0.0327,0.0613,0.0618,0.0541,0.0478,0.0415,0.0368,0.0297,0.0176,0.0058,0.0058,0.0157,0.0341,0.0486,0.0538,0.0695,0.0849,0.0865,0.0659,0.0456,0.05,0.061,0,0,0.0113,-0.0371,-0.1129,-0.0945,-0.0124,0.0297,0.003,-0.0288,-0.0352,-0.0472,-0.0643,-0.0692,-0.0821,-0.0851,-0.092,-0.1052,0,-0.0209,-0.0412,-0.003,-0.0049,-0.0052,0.0118,0.0357,0.0269,0.0099,-0.0055,-0.0225,-0.0357,-0.0415,-0.0379,-0.0294,-0.0148,-0.0016,0.0014,0.011,0.0332,0.0541,0.0698,0.0654,0.047,0.0368,0.0338,0.0286,0,0,0,0.0288,0.0577,0,0,0,-0.033,-0.0585,-0.0596,-0.0838,-0.0945,-0.0964,-0.0961,-0.0747,-0.0448,-0.0258,0,-0.0261,-0.0371,-0.0225,-0.0129,-0.0096,0.0176,0.031,0.0093,-0.017,-0.0376,-0.0637,-0.0829,-0.0799,-0.0742,-0.0648,-0.0549,-0.0409,-0.0209,-0.0022,0.0096,0.0179,0.0283,0.0442,0.0445,0.0316,0.0115,-0.011,0,0,0,0,0,0,0,-0.0088,0.0,-0.0022,-0.0464,-0.0775,-0.0893,-0.0857,-0.0711,-0.0437,-0.0088,0.0036,0,-0.0321,-0.0483,-0.0036,-0.0135,0.0137,0.0415,0.0475,0.025,-0.0082,-0.0393,-0.0684,-0.0873,-0.0956,-0.0931,-0.0744,-0.0481,-0.022,-0.0019,0.0058,0.003,0.0,0.0022,0.0151,0.0297,0.0214,-0.014,-0.0049,0,0,0,0,0,0,-0.0058,-0.0077,-0.0113,-0.0247,-0.0437,-0.056,-0.0536,-0.0533,-0.0472,-0.008,0.0082,-0.0036,0,-0.031,-0.0522,-0.0005,0.0264,0.0503,0.0656,0.0656,0.0533,0.0308,0.0038,-0.0192,-0.0321,-0.0316,-0.0179,0.0047,0.0247,0.0316,0.0266,0.0214,0.0184,0.0135,0.0038,-0.0011,0.0148,0.011,0.003,0.0481,0,0,0,0,0,0,-0.0069,-0.0135,-0.0132,-0.022,-0.0365,-0.0442,-0.0417,-0.0467,-0.0456,-0.0349,0,0,0,-0.0335,-0.0376,0.0255,0.0596,0.0755,0.0786,0.0744,0.0656,0.0574,0.0494,0.0439,0.0445,0.0511,0.0585,0.0593,0.0538,0.0494,0.0478,0.0431,0.0354,0.0294,0.0236,0.0168,0.0225,0.0368,0.0439,0.0492,0,0,0,0,0,0,-0.0077,-0.0091,-0.0052,-0.0146,-0.0338,-0.042,-0.0472,-0.0711,-0.0747,-0.0607,-0.0516,0,0,-0.0107,0.008,0.0544,0.0769,0.0819,0.0786,0.0722,0.0629,0.0566,0.0541,0.0596,0.0755,0.0986,0.1209,0.1376,0.1439,0.1409,0.1376,0.1217,0.1035,0.0923,0.0799,0.072,0.0667,0.0681,0.0593,0.0464,0,0,0,0,0,-0.0069,-0.0113,-0.0025,-0.0003,-0.0115,-0.0255,-0.033,-0.0341,0,-0.0459,-0.0593,-0.0283,0,0,0.0069,0.0385,0.0722,0.0838,0.0865,0.0786,0.067,0.0525,0.0423,0.0404,0.053,0.0777,0.1055,0.1296,0.1497,0.1643,0.1714,0.1653,0.1546,0.1447,0.1307,0.1035,0.0775,0.0728,0.072,0.0629,0.0538,0,-0.0374,-0.039,-0.0349,0,-0.0055,-0.0077,0.0003,0.0005,-0.0104,-0.0264,-0.045,-0.0687,-0.0755,-0.0621,-0.022,0.0104,0,0.0168,0.0423,0.0684,0.086,0.0948,0.0939,0.0813,0.0651,0.05,0.0407,0.0417,0.056,0.0783,0.1011,0.1217,0.1426,0.1612,0.181,0.1931,0.1818,0.1623,0.1409,0.1079,0.0761,0.0629,0.0659,0.064,0.0582,0,0.0148,0,-0.0143,-0.0288,0,0.0008,0.0047,0.0011,-0.0091,-0.0275,-0.0497,-0.0596,-0.0643,-0.0409,-0.0162,-0.019,0,0.0091,0.036,0.067,0.0865,0.0983,0.0983,0.0849,0.0678,0.058,0.0569,0.0621,0.0717,0.0849,0.103,0.1233,0.1395,0.1546,0.1739,0.1986,0.2115,0.1953,0.1634,0.1362,0.1005,0.061,0.0503,0.0519,0.0505,0,-0.0236,-0.0335,-0.0058,0.0047,0.0066,0.0176,0.0214,0.008,-0.008,-0.0242,-0.0371,-0.0407,-0.0277,-0.0184,-0.0222,0,0.022,0.0519,0.0665,0.0731,0.0838,0.0975,0.1014,0.0898,0.0764,0.072,0.0769,0.0829,0.0926,0.1137,0.1384,0.1656,0.1906,0.2065,0.2129,0.2156,0.2277,0.2285,0.1956,0.1555,0.1121,0.061,0.0349,0.0341,0.0376,-0.0552,-0.0439,-0.0063,0.022,0.0206,0.0143,0.0154,0.0173,0.0063,-0.0074,-0.0179,-0.0173,-0.0038,-0.0159,-0.0363,0,0.0239,0.0508,0.0514,0.056,0.0637,0.0717,0.0879,0.1011,0.0978,0.0873,0.0827,0.0887,0.1121,0.1453,0.1728,0.1961,0.2208,0.2499,0.2824,0.3084,0.3197,0.3156,0.2977,0.2499,0.1928,0.131,0.0588,0.0168,0.0195,0.0396,-0.0231,-0.0124,0.0115,0.0198,0.0143,0.0157,0.0201,0.0195,0.008,-0.0027,-0.0041,0.0047,0.0157,0.0179,0,0.0247,0.0508,0.0357,0.047,0.0536,0.0618,0.067,0.0758,0.0909,0.0994,0.1011,0.114,0.148,0.1881,0.2096,0.2178,0.2266,0.2398,0.2593,0.2925,0.3381,0.3735,0.3903,0.3972,0.3626,0.2802,0.1862,0.1008,0.0692,0.0959,0.1277,0.0071,0.0162,0.0157,0.0113,0.0121,0.0159,0.022,0.0179,-0.0008,-0.0033,0.0044,0.0052,0.0269,0.0824,0.1178,0.0923,0.0417,0.0242,0.0321,0.0472,0.0593,0.064,0.0681,0.0857,0.1143,0.1461,0.1859,0.2203,0.248,0.2629,0.2727,0.2851,0.3068,0.3304,0.3499,0.3793,0.4233,0.451,0.4573,0.4535,0.4007,0.2837,0.1689,0.1568,0.214,0.2357,0.0104,0.0129,0.0107,0.0102,0.011,0.0146,0.022,0.0093,-0.0225,-0.0217,-0.0096,0.0038,0.0168,0.0258,0.039,0.031,0.0179,0.0217,0.0401,0.0593,0.075,0.0931,0.1162,0.1409,0.1744,0.2167,0.2571,0.2936,0.329,0.3579,0.3906,0.4235,0.4441,0.4581,0.4746,0.4949,0.5128,0.5249,0.5265,0.5265,0.5068,0.395,0.2376,0.1794,0.1884,0.1618,0.019,0.0137,0.0113,0.0121,0.0129,0.0146,0.0195,0.0088,-0.0082,-0.0225,-0.0338,0,-0.0096,-0.0102,0.0091,0.0187,0.0165,0.0489,0.0865,0.1195,0.1472,0.1747,0.2019,0.2434,0.2851,0.3315,0.3672,0.3884,0.4145,0.445,0.4743,0.4884,0.4809,0.4743,0.493,0.5334,0.5716,0.5883,0.5845,0.5809,0.5903,0.5188,0.3192,0.1799,0.1327,0.0714,0.0239,0.0181,0.0146,0.0173,0.0187,0.0173,0.0082,0.0005,0,-0.0236,-0.036,-0.022,-0.0157,-0.0036,0.017,0.0222,0.045,0.0722,0.1049,0.145,0.1884,0.2395,0.3032,0.3675,0.4235,0.4634,0.4826,0.4829,0.4774,0.4815,0.4834,0.468,0.4395,0.4326,0.4711,0.5285,0.5697,0.5878,0.5925,0.5938,0.6045,0.6166,0.5287,0.2304,-0.0269,-0.0961,0.0222,0.0222,0.0206,0.0203,0.0214,0.0198,0.0181,0,-0.0269,-0.0431,-0.0242,-0.0137,-0.0052,0.0124,0.0264,0.0387,0.0508,0.0654,0.1005,0.1579,0.2447,0.3398,0.4282,0.4944,0.5405,0.5675,0.565,0.537,0.5002,0.4754,0.4516,0.4101,0.3746,0.384,0.4351,0.4977,0.5469,0.5773,0.5938,0.6032,0.607,0.6298,0.6367,0.5535,0.3941,0.2401]},{"header":{"parameterUnit":"m.s-1","parameterCategory":2,"la1":30.5641,"la2":29.4642,"lo1":-89.4342,"lo2":-87.9343,"dy":0.0333,"dx":0.0333,"nx":46,"ny":34,"refTime":"2024-02-26T00:00:00:Z","depth":"6","parameterNumber":3,"parameterNumberName":"V-component_of_CURRENTS"},"data":[0,0,0,0,0,0,0,0,0,0,0,0,0,0,0,0,0,0,0,0,0,0,0,0,0,0,0,0,0,0,0,0,0,0,0,0,0,0,0,0,0,-0.0181,-0.0533,-0.0165,-0.0563,0,0,0,0,0,0,0,0,0,0,0,0,0,0,0,0,0,0,0,0,0,0,0,0,0,0,0,0,0,0,0,0,0,0,0,0,0,0,0,0,0,0,-0.0393,-0.028,-0.0184,-0.0536,0,0,0,0,0,0,0,0,0,0,0,0,0,0,0,0,0,0,0,0,0,0,0,0,0,0,0,0,0,0,0,0,0,0,0,0,0,0,0,0,0,0,-0.0805,-0.0203,-0.0154,-0.039,0,0,0,0,0,0,0,0,0,0,0,0,0,0,0,0,0,0,0,0,0,0,0,0,0,0,0,0,0,0,0,0,0,0,0,0,0,0,0,0,0,0,-0.0769,-0.0321,-0.0305,-0.0297,0,0,0,0,0,0,0,0,0,0,0,0,0,0,0,0,0,0,0,0,0,0,0,0,0,0,0,0,0,0,0,0,0,0,0,0,0,0,0,0,0,-0.0733,-0.0547,-0.0478,-0.0415,-0.0198,0,0,0,0,0,0,0,0,0,0,0,0,0,0,0,0,0,0,0,0,0,0,0,0,0,0,0,0,0,0,0,0,0,0,0,0,0,0,0,0,0,-0.1052,-0.0571,-0.0525,-0.0343,-0.003,0,0,0,0,0,0,0,0,0,0,0,0,0.0176,0.0055,0.0049,0.0008,-0.014,-0.017,-0.0349,-0.0857,-0.111,0,0,0,0,0,0,0,0,0,0,0,0,-0.0255,-0.1291,-0.1566,0,0,0,0,0,-0.1209,-0.0596,-0.0489,-0.0288,0.0085,0,0,0,0,0,0,0,0,0,-0.0209,-0.0129,-0.0225,0.0022,0.0049,0.0099,0.0014,-0.0201,-0.019,-0.028,-0.0626,-0.0813,0.0588,0.0937,-0.0173,-0.0115,-0.0165,0.0033,0,0,0,0,0.0297,0.0118,-0.0492,-0.1228,-0.1343,0,0,0,0,0,-0.1582,-0.0829,-0.0574,-0.0409,0.0096,0,0,0,0,-0.0555,-0.0011,0.0107,0.0157,0.0129,0.0071,0.006,-0.017,-0.0255,-0.0027,0.017,0.0011,-0.0135,-0.0082,-0.0168,-0.0365,-0.0187,0.0439,0.0258,-0.022,-0.0077,-0.0195,-0.019,0.0151,0.0176,0.0255,0.0437,0.0211,0.0082,-0.0209,-0.0577,-0.095,-0.0665,-0.103,-0.089,0.0,0.0,-0.0934,-0.1593,-0.0904,-0.058,-0.0052,0,0,0,-0.056,-0.0401,-0.0014,0.0091,0.0099,0.0019,-0.0016,0.0118,-0.0049,-0.0201,-0.0299,0.0044,-0.0069,0.0036,0.0014,-0.0445,-0.0472,-0.0217,0.0165,-0.0209,-0.0135,-0.0003,-0.0113,-0.0211,0.0077,-0.0093,-0.003,0.0143,-0.0044,-0.0176,-0.0041,-0.0299,-0.0382,-0.0332,-0.1656,-0.1428,0,0,0,-0.2727,-0.1535,-0.0316,-0.0096,0,0,-0.0621,-0.0475,-0.0201,-0.0008,0.0036,-0.003,-0.0176,-0.0489,0,0,0,-0.0527,-0.0069,-0.0071,0.0044,0,-0.0656,-0.0354,-0.0797,0,0,0,0,0,0,0,-0.0514,-0.0154,-0.0066,-0.0099,-0.0873,-0.058,-0.1173,0,0,-0.1879,-0.1805,-0.0632,-0.0341,-0.0151,-0.1648,-0.2052,0,0,0,-0.0698,-0.0582,-0.0338,-0.011,-0.0049,-0.0033,-0.0085,-0.0255,-0.0439,0.0052,0.0118,0.0239,-0.0173,-0.0233,0,0,0.053,-0.0091,-0.0077,-0.0742,-0.0096,-0.0074,0.0025,0.0192,0.047,0.0291,0.0206,-0.1231,0,0,0,-0.1033,-0.056,-0.1118,-0.0102,-0.0071,-0.1041,-0.12,-0.0522,-0.0148,-0.0324,0,-0.1406,0.0014,0.0299,0.0277,-0.0349,-0.0354,-0.019,-0.019,-0.0173,-0.0069,-0.0033,-0.0126,-0.0357,0.0077,0.0165,0.0115,0.006,-0.0324,0.0093,0.0047,0.0206,0.0069,-0.0225,-0.0522,-0.0324,-0.0426,-0.0497,-0.0277,-0.0126,-0.0214,0.0008,-0.1082,-0.047,-0.0082,0.033,-0.0247,-0.0266,-0.0654,-0.0247,0.0066,-0.0437,-0.0915,-0.0654,0.0118,-0.0291,0.0151,-0.089,0.0036,0.0313,0.0407,0,-0.0423,-0.025,-0.0286,-0.0192,-0.0036,0,0,-0.0472,0.003,0.0071,-0.011,-0.0165,-0.0203,0.0033,0.0058,-0.0033,-0.0187,-0.0577,-0.0673,-0.0582,-0.0873,-0.1005,-0.0819,-0.0508,-0.017,0.0085,-0.0291,-0.0569,-0.0505,-0.0417,-0.067,-0.1003,-0.0851,-0.0341,-0.0058,-0.0231,-0.0659,-0.053,-0.0157,0.0184,0.0247,-0.0527,-0.0066,0.0363,0.061,0.019,-0.0514,-0.0396,-0.0137,-0.0071,0,0,0,-0.0401,-0.0036,-0.0033,-0.0173,-0.019,-0.0148,0.003,0.019,0.0352,-0.0184,-0.0409,-0.0654,-0.0884,-0.1063,-0.0972,-0.0717,-0.0387,0.0,0.0113,-0.0184,-0.0662,-0.0926,-0.0981,-0.1022,-0.1283,-0.1351,-0.1118,-0.1088,-0.0865,-0.0761,-0.0544,-0.0365,-0.022,-0.0357,-0.0764,-0.0382,0.0269,0.0621,0.0096,-0.0179,-0.0008,0,0,0,0,0,-0.0401,-0.0025,0.0168,0.0121,0.0115,0.0157,0.0313,0.0538,0.1222,-0.0107,-0.0964,-0.0744,-0.1055,-0.1014,-0.0736,-0.0508,-0.0522,-0.0236,-0.0159,-0.0497,-0.0829,-0.1044,-0.1129,-0.1178,-0.1294,-0.1445,-0.1508,-0.1456,-0.1074,-0.072,-0.0585,-0.058,-0.0857,-0.1189,-0.1527,-0.1052,-0.0272,0.0258,0,0,0.006,0.0428,0.0684,0.0124,0,0,-0.0492,0.0044,0.0459,0.0481,0.0497,0.0503,0.0643,0.0838,0.1522,0,-0.0766,-0.1126,-0.1137,-0.0854,-0.0577,-0.0456,-0.0725,-0.05,-0.0393,-0.0654,-0.092,-0.1134,-0.1239,-0.1285,-0.1318,-0.1285,-0.128,-0.1217,-0.0829,-0.0637,-0.0736,-0.0975,-0.1214,-0.1467,-0.1615,-0.1327,-0.0684,-0.0168,0,0,-0.0099,0.0165,0.0736,0.006,0.0,0.0,-0.0596,0.0159,0.0494,0.0514,0.0665,0.067,0.0783,0.0733,0.0791,0.0426,0,-0.1121,-0.0832,-0.0703,-0.0593,-0.0547,-0.0928,-0.0714,-0.0552,-0.0758,-0.0994,-0.117,-0.1288,-0.1261,-0.1217,-0.1134,-0.1016,-0.0909,-0.0876,-0.0915,-0.1003,-0.1068,-0.1134,-0.1387,-0.1483,-0.1187,-0.0695,-0.0346,0,0,0,-0.0049,0.0393,0,0,0,-0.0398,0.0206,0.0343,0.0401,0.0626,0.0643,0.0662,0.0401,0.017,0.0426,0,-0.0791,-0.0357,-0.0536,-0.0571,-0.0755,-0.1093,-0.0934,-0.0764,-0.0829,-0.1038,-0.1206,-0.1274,-0.1258,-0.1184,-0.1121,-0.1096,-0.1085,-0.1101,-0.1005,-0.0879,-0.0884,-0.0989,-0.1192,-0.1371,-0.1068,-0.0742,-0.0522,0,0,0,0,0,0,0,-0.011,-0.0052,0.0069,0.0181,0.0324,0.0453,0.0448,0.0371,0.0299,0.0005,0.0231,0,-0.0621,-0.0082,-0.0483,-0.0634,-0.095,-0.1189,-0.1154,-0.1033,-0.0981,-0.1096,-0.1225,-0.1357,-0.1426,-0.1382,-0.1274,-0.1154,-0.1022,-0.0846,-0.0709,-0.0714,-0.0772,-0.0777,-0.0906,-0.1299,-0.1173,-0.0959,-0.0783,0,0,0,0,0,0,-0.0121,-0.0093,-0.0063,-0.0104,0.0022,0.0154,0.025,0.0192,0.0146,0.0445,0.0,0.0016,0,-0.0505,0.0132,-0.0472,-0.0744,-0.1022,-0.1192,-0.1288,-0.1277,-0.1225,-0.1225,-0.1266,-0.1365,-0.1393,-0.1236,-0.0945,-0.0662,-0.0478,-0.0396,-0.0431,-0.0527,-0.0571,-0.0514,-0.0588,-0.1,-0.1324,-0.1258,-0.0613,0,0,0,0,0,0,-0.0159,-0.0058,-0.0115,-0.0173,-0.0088,-0.0014,0.017,0.003,0.0124,0.0486,0,0,0,-0.0368,0.0179,-0.0404,-0.0692,-0.092,-0.1115,-0.1277,-0.1401,-0.1445,-0.1412,-0.1384,-0.1365,-0.1239,-0.0948,-0.0634,-0.0464,-0.0453,-0.0456,-0.0445,-0.0437,-0.0407,-0.0332,-0.0338,-0.0591,-0.1118,-0.1099,-0.0151,0,0,0,0,0,0,-0.0266,-0.0011,-0.0113,-0.022,-0.0187,-0.0115,0.0077,0.0003,0.0091,0.0225,0.0302,0,0,-0.0091,0.0187,-0.0266,-0.0558,-0.081,-0.1014,-0.1209,-0.1387,-0.153,-0.1563,-0.1527,-0.1382,-0.1121,-0.0838,-0.0673,-0.0681,-0.0846,-0.0978,-0.0846,-0.067,-0.042,-0.0143,-0.019,-0.0387,-0.0758,-0.0692,-0.0074,0,0,0,0,0,-0.0102,-0.0247,0.0011,-0.0151,-0.0242,-0.0272,-0.0159,-0.0115,0,-0.0176,0.0074,0.028,0,0,0.031,0.0294,-0.0137,-0.0448,-0.072,-0.0956,-0.1159,-0.1354,-0.1527,-0.1563,-0.1412,-0.1143,-0.0862,-0.0676,-0.0648,-0.0761,-0.1014,-0.1316,-0.142,-0.1266,-0.0788,-0.0168,-0.011,-0.039,-0.0667,-0.0689,-0.0165,0,-0.0211,0.0,0.0,0,-0.0049,-0.0148,-0.0008,-0.0201,-0.0286,-0.0316,-0.017,-0.0118,0.0082,-0.0195,0.0124,0.0102,0,0.0316,0.0472,0.0324,-0.0033,-0.036,-0.0651,-0.0904,-0.111,-0.1299,-0.1415,-0.1283,-0.0975,-0.0689,-0.0505,-0.0448,-0.0552,-0.0744,-0.1041,-0.1373,-0.1791,-0.1975,-0.1607,-0.0849,-0.0217,-0.0346,-0.0651,-0.0711,-0.0305,0,-0.0368,0,-0.0088,0.0058,0,-0.0132,-0.0008,-0.0253,-0.0365,-0.0365,-0.0225,-0.0157,-0.0003,-0.0022,0.0027,-0.003,0,0.0516,0.0492,0.0294,0.0052,-0.0261,-0.058,-0.0835,-0.1035,-0.1189,-0.1167,-0.0838,-0.0456,-0.019,-0.0115,-0.0176,-0.0365,-0.0632,-0.0967,-0.1379,-0.1807,-0.2313,-0.2392,-0.1733,-0.0681,-0.0352,-0.0618,-0.0692,-0.0453,0,-0.056,-0.0228,-0.0071,0.0063,-0.0066,-0.0093,-0.0077,-0.0313,-0.0423,-0.0415,-0.0357,-0.033,-0.0157,-0.0173,-0.0038,0,0.0555,0.0662,0.0434,0.0239,0.0129,-0.0115,-0.0459,-0.0728,-0.0926,-0.1022,-0.0865,-0.0478,-0.008,0.0121,0.0159,0.008,-0.0104,-0.0382,-0.0722,-0.1189,-0.1717,-0.2302,-0.2862,-0.251,-0.1461,-0.0634,-0.0632,-0.0676,-0.0541,-0.0074,-0.0368,-0.011,0.0104,0.0055,-0.0063,-0.0022,-0.0148,-0.0346,-0.0426,-0.0439,-0.0514,-0.0445,-0.0527,-0.0162,0,0.0508,0.0615,0.0464,0.0209,0.014,0.0173,0.0041,-0.0272,-0.0596,-0.0805,-0.0849,-0.0626,-0.0277,0.0025,0.0201,0.0258,0.0176,-0.0019,-0.0294,-0.0673,-0.1093,-0.1623,-0.2173,-0.2958,-0.32,-0.2362,-0.1338,-0.0821,-0.0755,-0.0552,-0.0082,-0.0047,0.0077,0.0107,0.0019,-0.0047,0.0014,-0.0148,-0.0343,-0.0401,-0.0464,-0.0613,-0.0582,-0.1198,0,0.0522,0.0596,0.0538,0.0228,0.0052,0.0058,0.017,0.0126,-0.0113,-0.0442,-0.0626,-0.0607,-0.0428,-0.0165,0.008,0.025,0.0297,0.0214,-0.0014,-0.0346,-0.0783,-0.1244,-0.1755,-0.2263,-0.2898,-0.3601,-0.3263,-0.2263,-0.1129,-0.0571,-0.0264,-0.0055,0.0077,0.0099,0.0027,0.0003,-0.0019,0.0027,-0.0168,-0.0407,-0.0346,-0.0404,-0.0643,-0.0665,-0.122,-0.05,0.0272,0.0464,0.0324,0.0124,-0.0019,0.0027,0.0102,0.0063,-0.0071,-0.0222,-0.0302,-0.0214,-0.0047,0.0151,0.0341,0.0503,0.0574,0.0459,0.0173,-0.0233,-0.0725,-0.1294,-0.1936,-0.2532,-0.3065,-0.3799,-0.4007,-0.2972,-0.1118,0.0016,0.0206,0.0003,0.0118,0.0038,0.0003,0.0003,0.0019,0.0074,-0.0239,-0.0434,-0.0222,-0.0327,-0.031,-0.0706,-0.0698,-0.0393,-0.0014,0.0236,0.0228,0.0033,-0.0036,0.0019,0.0041,0.0011,0.0,0.0096,0.017,0.0266,0.0412,0.058,0.0736,0.0786,0.075,0.0585,0.0297,-0.0113,-0.0645,-0.1283,-0.1953,-0.2681,-0.3376,-0.4035,-0.4513,-0.3458,-0.1115,-0.0047,-0.0121,0.0,0.0082,0.0016,-0.0005,-0.0005,0.0052,0.014,-0.0327,-0.0198,-0.0387,-0.045,0,-0.0511,-0.0319,-0.0184,0.0132,0.0338,0.0137,-0.0005,-0.0005,-0.0011,0.0093,0.0253,0.0415,0.05,0.0602,0.0687,0.0764,0.0799,0.0766,0.0681,0.0585,0.0431,0.0203,-0.0118,-0.0626,-0.1296,-0.1961,-0.2708,-0.3521,-0.4227,-0.484,-0.4038,-0.1777,-0.0634,-0.0829,-0.0049,0.0027,0.0019,0.0,-0.0019,0.0041,0.0074,-0.0187,0,-0.0585,-0.0497,0.0022,-0.006,-0.0008,0.0137,0.0536,0.0376,0.0228,0.0195,0.0228,0.0398,0.0634,0.0829,0.0956,0.1077,0.1173,0.1192,0.1079,0.0873,0.0656,0.0489,0.0338,0.0181,-0.0016,-0.0308,-0.07,-0.1178,-0.1774,-0.2565,-0.3453,-0.4222,-0.5024,-0.4746,-0.281,-0.1346,-0.128,-0.0162,-0.0069,0.0027,0.0016,-0.0027,-0.0005,-0.019,0,-0.0025,-0.0239,-0.0225,0.008,0.0184,0.0206,0.0717,0.0588,0.0503,0.0558,0.0648,0.0879,0.1167,0.1395,0.1483,0.1505,0.1546,0.1582,0.1491,0.1261,0.0912,0.0604,0.0341,0.0038,-0.0228,-0.0461,-0.0698,-0.0816,-0.0862,-0.1283,-0.206,-0.2911,-0.3593,-0.4384,-0.4623,-0.3527,-0.2384,-0.1423]}],[{"header":{"parameterUnit":"m.s-1","parameterCategory":2,"la1":30.5641,"la2":29.4642,"lo1":-89.4342,"lo2":-87.9343,"dy":0.0333,"dx":0.0333,"nx":46,"ny":34,"refTime":"2024-02-26T00:00:00:Z","depth":"8","parameterNumber":2,"parameterNumberName":"U-component_of_CURRENTS"},"data":[0,0,0,0,0,0,0,0,0,0,0,0,0,0,0,0,0,0,0,0,0,0,0,0,0,0,0,0,0,0,0,0,0,0,0,0,0,0,0,0,0,0.0423,0.092,0.0821,0.0412,0,0,0,0,0,0,0,0,0,0,0,0,0,0,0,0,0,0,0,0,0,0,0,0,0,0,0,0,0,0,0,0,0,0,0,0,0,0,0,0,0,0,0.008,0.0338,0.0527,0.033,0,0,0,0,0,0,0,0,0,0,0,0,0,0,0,0,0,0,0,0,0,0,0,0,0,0,0,0,0,0,0,0,0,0,0,0,0,0,0,0,0,0,0.0058,0.0201,0.0297,0.0198,0,0,0,0,0,0,0,0,0,0,0,0,0,0,0,0,0,0,0,0,0,0,0,0,0,0,0,0,0,0,0,0,0,0,0,0,0,0,0,0,0,0,0.0453,0.0327,0.025,0.0168,0,0,0,0,0,0,0,0,0,0,0,0,0,0,0,0,0,0,0,0,0,0,0,0,0,0,0,0,0,0,0,0,0,0,0,0,0,0,0,0,0,0.0038,0.0063,0.0085,0.0162,0.0225,0,0,0,0,0,0,0,0,0,0,0,0,0,0,0,0,0,0,0,0,0,0,0,0,0,0,0,0,0,0,0,0,0,0,0,0,0,0,0,0,0,-0.0022,-0.0099,-0.0115,-0.0014,0.0179,0,0,0,0,0,0,0,0,0,0,0,0,0.0049,0.0198,0.0346,0.0305,0.0275,0.0376,0.05,0.036,0.0143,0,0,0,0,0,0,0,0,0,0,0,0,0.0187,0.0352,0.0332,0,0,0,0,0,-0.006,-0.0102,-0.0118,-0.0187,-0.0063,0,0,0,0,0,0,0,0,0,-0.0058,-0.008,0.0104,0.0294,0.0365,0.0412,0.0324,0.0231,0.0247,0.0409,0.0623,0.0882,0.092,0.0709,0.0673,0.0673,0.0731,0.0797,0,0,0,0,0.042,0.1247,0.1675,0.1266,0.0835,0,0,0,0,0,0.0113,0.0187,0.0129,0.0027,-0.0047,0,0,0,0,-0.0082,-0.0195,-0.0173,-0.0063,0.0014,0.0066,0.0074,0.0077,0.0115,0.0195,0.0316,0.0294,0.0305,0.0423,0.0621,0.0871,0.1016,0.1033,0.1151,0.1055,0.0747,0.075,0.0893,0.0788,0.0659,0.0846,0.1217,0.1332,0.111,0.1101,0.122,0.0912,0.0374,0.0074,-0.0159,-0.0291,-0.0165,0.0313,0.0467,0.0236,0.0195,0.0129,0,0,0,-0.0074,-0.0137,-0.0154,-0.017,-0.0121,-0.0099,-0.0146,0.0025,0.0244,0.0299,0.0151,0.0016,0.0104,0.0316,0.0585,0.0654,0.0648,0.0563,0.0563,0.0983,0.1099,0.0816,0.0662,0.0643,0.0747,0.1014,0.1206,0.1165,0.117,0.1052,0.0857,0.0645,0.0637,0.0939,0.0934,0.0758,0,0,0,0.0115,-0.0181,-0.0648,-0.0569,0,0,-0.0118,-0.0214,-0.0206,-0.0225,-0.0209,-0.0151,-0.0088,-0.0055,0,0,0,-0.0099,-0.033,-0.0255,-0.0044,0,0.0036,0.0151,0.0231,0,0,0,0,0,0,0,0.0198,0.0629,0.0928,0.1038,0.0989,0.0758,0.0634,0,0,0.0283,0.0428,0.0096,-0.0118,-0.0247,0.0264,0.0882,0,0,0,-0.008,-0.0179,-0.0244,-0.031,-0.0286,-0.019,-0.008,0.0019,0.0179,0.0231,0.011,-0.0025,-0.017,-0.0242,0,0,-0.0104,-0.0085,0.025,0.0788,0.1038,0.0808,0.0632,0.0527,0.0618,0.0703,0.0445,0.0192,0,0,0,0.0137,0.0363,0.0393,0.0321,0.0294,0.0297,0.0398,0.0258,0.0426,0.067,0,0.0159,0.0181,0.0154,0.0198,-0.0442,-0.0143,-0.0294,-0.0387,-0.0291,-0.0201,0.0003,0.0211,0.0192,0.0096,-0.0005,-0.0038,0.0003,0.0244,0.0516,0.0648,0.0525,0.0343,0.0461,0.084,0.0711,0.0305,0.0357,0.056,0.0618,0.0667,0.117,0.1574,0.142,0.1044,0.0819,0.0643,0.07,0.0753,0.0659,0.0618,0.0442,0.0316,0.0346,0.0316,0.0236,0.0146,0.0442,0.0569,0.0401,0.0426,0,-0.0179,-0.0417,-0.0393,-0.022,-0.0137,0,0,-0.0126,-0.0288,-0.025,-0.0115,0.0016,0.017,0.0288,0.0363,0.0396,0.0423,0.0703,0.0912,0.0615,0.0233,0.0209,0.0335,0.0596,0.1118,0.1467,0.1621,0.1588,0.1228,0.0948,0.0917,0.0937,0.0871,0.0742,0.0555,0.0417,0.0417,0.0626,0.0879,0.0824,0.0582,0.047,0.047,0.0511,0.0596,-0.0426,-0.0354,-0.047,-0.042,-0.028,0,0,0,-0.0143,-0.0404,-0.039,-0.019,-0.0058,0.0082,0.019,0.0236,0.0387,0.0544,0.0717,0.0805,0.0365,0.0124,0.0016,0.0146,0.0536,0.109,0.136,0.1351,0.1263,0.1112,0.0912,0.0689,0.056,0.0555,0.0566,0.053,0.058,0.0673,0.078,0.0873,0.0832,0.0728,0.0717,0.0681,0.0604,0.0558,-0.0096,-0.0228,-0.0264,0,0,0,0,0,-0.0121,-0.039,-0.0437,-0.0275,-0.0154,-0.0027,0.0074,0.0168,0.0571,0.0948,0.0742,0.064,0.0313,0.0283,0.0385,0.0231,0.0195,0.0602,0.0728,0.0503,0.0316,0.025,0.0264,0.0261,0.0201,0.0173,0.0222,0.0412,0.0711,0.0898,0.0882,0.0764,0.0637,0.0552,0.0599,0.0662,0.0607,0.0563,0,0,-0.0025,-0.0027,0.0107,0.0225,0,0,-0.0151,-0.0346,-0.0393,-0.0349,-0.0255,-0.0187,-0.0184,-0.0255,-0.0316,0,0.0184,0.0258,0.0107,0.0217,0.0335,0.0104,-0.011,0.0162,0.0201,-0.0102,-0.0291,-0.0283,-0.0242,-0.0179,-0.0118,0.0027,0.0379,0.0829,0.1044,0.1008,0.0846,0.0637,0.0522,0.0426,0.0404,0.0511,0.0626,0.0764,0,0,-0.0014,-0.0214,-0.0423,-0.0228,0.0146,0.0277,0.0121,-0.0154,-0.0354,-0.0393,-0.0346,-0.0324,-0.0374,-0.0544,-0.0819,-0.0967,0,-0.0121,-0.0231,0.0003,0.0187,-0.0047,-0.0305,-0.0126,-0.0176,-0.0396,-0.0582,-0.0654,-0.0558,-0.0305,0.0003,0.0365,0.0678,0.0802,0.0753,0.0709,0.0714,0.0643,0.0508,0.0385,0.0434,0.0626,0.0769,0.086,0,0,0,-0.0071,-0.0143,0,0,0,-0.0198,-0.0431,-0.0467,-0.0456,-0.0428,-0.0434,-0.0486,-0.0569,-0.0648,-0.0676,0,-0.0217,-0.0401,-0.0077,0.0121,-0.006,-0.0324,-0.0286,-0.0275,-0.0497,-0.0706,-0.0651,-0.0486,-0.0266,-0.0049,0.0115,0.0192,0.0198,0.0192,0.0264,0.0354,0.0385,0.045,0.0555,0.0629,0.0692,0.0711,0.0709,0,0,0,0,0,0,0,-0.0206,-0.0459,-0.0505,-0.0511,-0.0511,-0.0505,-0.0503,-0.0516,-0.0536,-0.0621,-0.0689,0,-0.0225,-0.05,-0.0168,0.0129,0.006,-0.0195,-0.0236,-0.0217,-0.0456,-0.0654,-0.0799,-0.0808,-0.0722,-0.0593,-0.047,-0.0341,-0.0176,0.0005,0.0085,0.0044,0.0019,0.0088,0.0434,0.0645,0.0687,0.0527,0.0511,0,0,0,0,0,0,-0.0085,-0.0357,-0.0508,-0.0489,-0.0519,-0.0538,-0.0547,-0.0541,-0.0555,-0.0577,-0.0489,-0.0404,0,-0.0236,-0.0547,-0.028,0.0038,-0.0003,-0.0025,-0.0143,-0.0115,-0.028,-0.0478,-0.0621,-0.0698,-0.0648,-0.0478,-0.0206,0.006,0.0222,0.0253,0.0217,0.0184,0.0135,0.0041,0.017,0.0434,0.0313,0.0286,0.0516,0,0,0,0,0,0,-0.0148,-0.039,-0.0481,-0.0503,-0.0541,-0.0555,-0.0563,-0.0549,-0.0604,-0.0681,0,0,0,-0.0236,-0.0613,-0.0319,-0.0052,0.0082,0.0047,-0.0063,-0.0055,-0.0198,-0.0209,-0.0225,-0.0165,-0.0011,0.0154,0.0225,0.0187,0.0154,0.0209,0.0297,0.0335,0.0297,0.0236,0.0187,0.0305,0.0335,0.031,0.0437,0,0,0,0,0,0,-0.0233,-0.0483,-0.0508,-0.0536,-0.0563,-0.0607,-0.0687,-0.0613,-0.0563,-0.0662,-0.0687,0,0,-0.0228,-0.0494,-0.0211,-0.0014,0.014,0.0091,-0.003,-0.0033,-0.0044,-0.0069,-0.0093,0.0044,0.033,0.0618,0.0791,0.0838,0.0799,0.0813,0.0761,0.0731,0.0777,0.0766,0.072,0.067,0.0632,0.0538,0.0467,0,0,0,0,0,-0.0107,-0.0376,-0.0533,-0.0516,-0.0533,-0.0555,-0.0615,-0.0676,0,-0.0275,-0.0596,-0.0637,0,0,-0.0151,-0.0349,-0.0104,0.0093,0.0203,0.0126,-0.0022,-0.008,-0.0124,-0.0173,-0.0093,0.0151,0.0428,0.064,0.0788,0.089,0.0948,0.089,0.0862,0.0887,0.0915,0.0854,0.0733,0.0728,0.072,0.0629,0.0544,0,-0.0376,-0.0404,-0.0368,0,-0.0115,-0.0228,-0.0376,-0.0514,-0.0525,-0.0574,-0.0618,-0.0585,-0.0582,-0.0626,-0.0596,-0.0574,0,0.0118,0.0008,-0.0085,0.011,0.0255,0.0308,0.0176,-0.0022,-0.0148,-0.0242,-0.022,-0.0005,0.0228,0.0365,0.056,0.0753,0.0887,0.1008,0.109,0.1008,0.0956,0.0887,0.0722,0.0637,0.0621,0.0654,0.0637,0.0582,0,-0.0104,0,-0.0151,-0.0305,0,-0.0066,-0.0313,-0.05,-0.0527,-0.058,-0.0591,-0.0593,-0.067,-0.0744,-0.0621,-0.0494,0,-0.0124,-0.017,0.0008,0.0264,0.0371,0.0401,0.0231,0.0058,-0.0058,-0.006,0.0047,0.0266,0.0393,0.0626,0.0788,0.0937,0.1093,0.1189,0.125,0.1241,0.1126,0.1005,0.0909,0.0755,0.0558,0.05,0.0516,0.0505,0,-0.0124,-0.0346,-0.0313,-0.0102,0.0011,0.008,-0.0233,-0.0536,-0.0514,-0.0563,-0.0615,-0.0714,-0.0838,-0.075,-0.0621,0,0.0113,0.003,0.0008,0.0113,0.0327,0.0481,0.0544,0.0385,0.022,0.0143,0.0209,0.0363,0.0525,0.0766,0.095,0.1077,0.1167,0.1255,0.1412,0.1549,0.1555,0.1343,0.1143,0.0992,0.0753,0.0489,0.0346,0.0341,0.0376,-0.0244,-0.0277,-0.0316,-0.0126,0.0135,0.014,-0.0036,-0.0368,-0.0516,-0.0467,-0.0472,-0.058,-0.0698,-0.0728,-0.0758,0,0.0096,-0.0005,-0.0099,-0.0206,0.0014,0.0258,0.0522,0.067,0.0582,0.0437,0.0374,0.053,0.0722,0.1025,0.1263,0.1437,0.1513,0.1571,0.1577,0.1651,0.181,0.1972,0.1879,0.1472,0.1178,0.0805,0.0349,0.0143,0.0198,0.0396,-0.0242,-0.0283,-0.0148,0.008,0.0143,0.0157,0.0027,-0.0302,-0.0453,-0.0401,-0.0376,-0.045,-0.0481,-0.0434,0,0.0047,-0.0008,-0.0121,-0.0143,-0.0129,0.0038,0.0297,0.0426,0.0481,0.0486,0.0472,0.0615,0.0873,0.1071,0.1329,0.1601,0.1827,0.1953,0.1991,0.1989,0.1983,0.2024,0.2148,0.2395,0.2263,0.1755,0.1159,0.0604,0.0516,0.0887,0.1233,-0.022,-0.0113,0.0066,0.0115,0.0124,0.0162,0.0107,-0.0165,-0.036,-0.0332,-0.0288,-0.0244,-0.0091,0.042,0.0783,0.0547,0.0214,0.0121,-0.0003,-0.0113,-0.0011,0.0121,0.0104,0.0181,0.0354,0.0596,0.0882,0.1145,0.1335,0.1574,0.1936,0.2258,0.251,0.2683,0.2755,0.2777,0.2829,0.2813,0.2832,0.2922,0.2653,0.1862,0.1143,0.1302,0.1969,0.2236,-0.0143,0.0025,0.0107,0.0104,0.0113,0.0148,0.0162,-0.0085,-0.0335,-0.0302,-0.0261,-0.011,0.0082,0.0173,0.0255,0.0291,0.0291,0.0209,0.0027,0.0027,0.0022,0.0011,0.0211,0.0417,0.064,0.0904,0.1269,0.1673,0.2142,0.2648,0.3038,0.3249,0.3356,0.3475,0.3628,0.3788,0.3939,0.3933,0.37,0.3593,0.3527,0.2725,0.1728,0.1582,0.1714,0.1423,-0.0085,0.0052,0.0113,0.0121,0.0129,0.0148,0.0176,-0.0052,-0.0261,-0.0258,-0.0286,0,-0.0036,-0.003,0.0093,0.0277,0.0407,0.0236,0.0236,0.0261,0.0242,0.0492,0.0736,0.1035,0.1502,0.198,0.2502,0.2994,0.3417,0.3719,0.3881,0.3884,0.3785,0.376,0.3947,0.4282,0.4573,0.4661,0.4488,0.4268,0.4367,0.3807,0.2293,0.1417,0.1129,0.0574,-0.006,0.0063,0.0143,0.0173,0.0187,0.0173,0.0159,0.0157,0,-0.0181,-0.0192,-0.0104,-0.0157,-0.0071,0.0107,0.0382,0.0412,0.042,0.0412,0.0525,0.0827,0.1299,0.1892,0.2656,0.3321,0.3799,0.4112,0.4219,0.42,0.4172,0.4109,0.3892,0.3615,0.3584,0.3972,0.4543,0.4889,0.4922,0.4768,0.4581,0.4612,0.4818,0.4109,0.1703,-0.0233,-0.0824,-0.0047,0.0,0.0124,0.0203,0.0214,0.0192,0.0173,0,-0.0242,-0.0409,-0.0277,-0.0201,-0.0129,-0.0019,0.025,0.0409,0.0478,0.0602,0.0887,0.1299,0.1901,0.2769,0.3683,0.4452,0.498,0.5205,0.5098,0.4691,0.4255,0.398,0.3708,0.3299,0.3052,0.3288,0.3919,0.4601,0.5051,0.5202,0.5142,0.5024,0.4947,0.5166,0.521,0.4447,0.3082,0.173]},{"header":{"parameterUnit":"m.s-1","parameterCategory":2,"la1":30.5641,"la2":29.4642,"lo1":-89.4342,"lo2":-87.9343,"dy":0.0333,"dx":0.0333,"nx":46,"ny":34,"refTime":"2024-02-26T00:00:00:Z","depth":"8","parameterNumber":3,"parameterNumberName":"V-component_of_CURRENTS"},"data":[0,0,0,0,0,0,0,0,0,0,0,0,0,0,0,0,0,0,0,0,0,0,0,0,0,0,0,0,0,0,0,0,0,0,0,0,0,0,0,0,0,-0.011,0.003,-0.0201,-0.0363,0,0,0,0,0,0,0,0,0,0,0,0,0,0,0,0,0,0,0,0,0,0,0,0,0,0,0,0,0,0,0,0,0,0,0,0,0,0,0,0,0,0,-0.0093,-0.0261,-0.0453,-0.0519,0,0,0,0,0,0,0,0,0,0,0,0,0,0,0,0,0,0,0,0,0,0,0,0,0,0,0,0,0,0,0,0,0,0,0,0,0,0,0,0,0,0,-0.0063,-0.0264,-0.0475,-0.0533,0,0,0,0,0,0,0,0,0,0,0,0,0,0,0,0,0,0,0,0,0,0,0,0,0,0,0,0,0,0,0,0,0,0,0,0,0,0,0,0,0,0,-0.0266,-0.0434,-0.0549,-0.0547,0,0,0,0,0,0,0,0,0,0,0,0,0,0,0,0,0,0,0,0,0,0,0,0,0,0,0,0,0,0,0,0,0,0,0,0,0,0,0,0,0,-0.0448,-0.056,-0.0656,-0.0667,-0.0667,0,0,0,0,0,0,0,0,0,0,0,0,0,0,0,0,0,0,0,0,0,0,0,0,0,0,0,0,0,0,0,0,0,0,0,0,0,0,0,0,0,-0.0354,-0.0492,-0.0566,-0.0621,-0.0769,0,0,0,0,0,0,0,0,0,0,0,0,0.0091,0.0049,-0.0008,-0.0027,-0.0008,0.0,-0.0321,-0.0599,-0.1025,0,0,0,0,0,0,0,0,0,0,0,0,0.0173,-0.0332,-0.003,0,0,0,0,0,-0.0047,-0.0135,-0.0198,-0.0316,-0.058,0,0,0,0,0,0,0,0,0,-0.0173,-0.0027,-0.0148,-0.0016,0.0044,0.0038,-0.0069,-0.0052,-0.0102,-0.0228,-0.0393,-0.0571,0.0184,0.014,0.0055,0.0052,0.0033,0.0346,0,0,0,0,0.0786,0.0286,0.003,-0.0412,-0.0005,0,0,0,0,0,0.014,0.0085,0.0055,0.0058,-0.0071,0,0,0,0,-0.0319,-0.0099,-0.0077,-0.0091,-0.0055,-0.0033,0.0113,-0.0093,-0.0132,-0.0121,-0.0041,-0.0102,-0.0052,-0.0198,-0.0179,-0.0173,-0.0066,0.0352,0.0269,0.0093,0.0041,-0.0027,0.0074,0.0085,-0.0027,-0.0137,-0.0146,0.033,0.0124,0.0036,-0.0236,-0.0008,0.0014,0.0052,-0.0343,0.0,0.0,0.0085,-0.0041,-0.0162,0.0014,0.0165,0,0,0,-0.0387,-0.0288,-0.0096,-0.0047,-0.0063,-0.0082,-0.006,0.0129,-0.0019,-0.0071,-0.0338,-0.0222,-0.0085,0.0033,-0.0093,-0.039,-0.0349,-0.0192,0.0261,0.0198,0.0066,0.0016,-0.0044,-0.0099,0.0044,0.0025,-0.0132,-0.0143,-0.0146,-0.0324,-0.0179,-0.0379,-0.0019,0.0005,-0.0437,-0.0533,0,0,0,-0.0544,-0.0492,-0.0088,0.0063,0,0,-0.0423,-0.0371,-0.0225,-0.006,-0.0005,-0.0041,-0.014,-0.0294,0,0,0,-0.0299,-0.022,-0.0038,0.0038,0,-0.0527,-0.0591,-0.0632,0,0,0,0,0,0,0,-0.0286,-0.006,-0.0071,-0.0077,-0.0819,-0.0753,-0.0857,0,0,-0.0676,-0.0585,-0.0266,-0.0453,-0.0728,-0.0461,-0.0648,0,0,0,-0.0527,-0.045,-0.0321,-0.0129,-0.0052,-0.003,-0.0085,-0.0192,-0.0346,-0.0294,-0.0187,-0.0052,-0.0154,-0.0283,0,0,0.0385,-0.0233,-0.0478,-0.0654,-0.0008,0.0253,0.0222,0.0239,0.053,0.0588,0.0168,-0.0703,0,0,0,-0.0829,-0.0893,-0.0791,0.0025,-0.014,-0.0522,-0.0566,-0.0404,-0.0525,-0.0461,0,-0.0173,0.0494,0.0195,0.0022,-0.0264,-0.0376,-0.0211,-0.0121,-0.0179,-0.0192,-0.006,-0.0107,-0.0448,-0.0338,-0.019,-0.0107,-0.0148,-0.0371,-0.0319,-0.0258,0.0214,0.0008,-0.0269,-0.0503,0.0151,0.0409,0.0239,0.0396,0.0558,0.0239,-0.014,-0.1156,-0.058,-0.0093,0.0349,-0.0371,-0.0253,-0.0302,0.003,0.0003,-0.0266,-0.036,-0.0242,-0.0159,-0.0291,-0.0412,-0.0115,0.0074,0.0082,0.0016,0,-0.0387,-0.0253,-0.0264,-0.031,-0.0157,0,0,-0.056,-0.0376,-0.0244,-0.0203,-0.0222,-0.0294,-0.0275,-0.0214,-0.0003,-0.0093,-0.0428,-0.0398,0.0321,0.0321,-0.0173,-0.0066,-0.0069,-0.0217,-0.014,-0.0786,-0.0788,-0.0242,0.0228,0.0011,-0.019,-0.0148,0.017,0.0321,0.0165,0.0044,0.0052,0.0269,0.0275,0.0093,-0.0096,0.0099,0.0041,0.0052,0.0091,-0.0324,-0.0159,-0.0179,-0.017,0,0,0,-0.0445,-0.033,-0.0253,-0.0214,-0.0198,-0.0165,-0.0099,0.0019,0.0102,-0.0181,-0.0481,-0.0461,0.0074,0.0,-0.0228,-0.0148,-0.017,-0.0082,-0.0099,-0.05,-0.0898,-0.0791,-0.0613,-0.064,-0.0596,-0.0239,0.0179,0.0407,0.042,0.0352,0.039,0.0514,0.0643,0.0544,0.0305,0.0398,0.0439,0.0494,0.0047,-0.0071,-0.0016,0,0,0,0,0,-0.033,-0.0244,-0.0154,-0.0115,-0.0049,0.0041,0.0201,0.0428,0.0613,-0.0099,-0.0681,-0.0832,-0.0258,-0.0102,-0.0038,0.0063,-0.0055,-0.0214,-0.0308,-0.0442,-0.0615,-0.0698,-0.056,-0.0453,-0.0412,-0.0305,-0.0082,0.0222,0.0461,0.0596,0.0703,0.0711,0.0632,0.0401,0.0313,0.0519,0.0678,0.0775,0,0,-0.0222,-0.0275,0.0066,0.0159,0,0,-0.0357,-0.0206,-0.0049,0.0,0.0071,0.019,0.0368,0.0602,0.0873,0,-0.0437,-0.0829,-0.0439,-0.0132,-0.0074,0.0093,-0.0129,-0.0434,-0.0525,-0.0503,-0.0453,-0.0456,-0.0352,-0.0228,-0.0157,-0.0176,-0.006,0.0286,0.0538,0.0626,0.0533,0.0319,0.0096,0.0044,0.0228,0.0481,0.0607,0.0739,0,0,-0.0184,-0.0327,-0.0091,0.008,0.0,0.0,-0.0536,-0.0247,-0.0027,0.0019,0.008,0.0198,0.0335,0.0437,0.0467,0.0198,0,-0.0791,-0.0368,-0.0036,-0.014,0.0014,-0.0275,-0.0626,-0.058,-0.0538,-0.0382,-0.0297,-0.0162,-0.0025,0.0124,0.0214,0.0297,0.0379,0.0313,0.003,-0.0313,-0.0552,-0.0511,-0.0228,0.0102,0.0338,0.0475,0.0692,0,0,0,-0.019,-0.0124,0,0,0,-0.0593,-0.0231,-0.008,-0.0036,0.0038,0.0157,0.0236,0.0233,0.0146,0.0225,0,-0.0643,-0.0332,0.0093,-0.0096,-0.0041,-0.0376,-0.0786,-0.0703,-0.0613,-0.0341,-0.022,-0.0137,-0.0049,-0.0005,-0.0008,-0.008,-0.0211,-0.045,-0.0662,-0.0794,-0.0821,-0.0725,-0.0357,0.0069,0.0253,0.0368,0.0659,0,0,0,0,0,0,0,-0.017,-0.0297,-0.0132,-0.0088,-0.0058,0.0008,0.0088,0.0113,0.0132,0.0121,0.0038,0,-0.0514,-0.0321,0.0209,0.0066,-0.0071,-0.0519,-0.0959,-0.0945,-0.0769,-0.0563,-0.0492,-0.0503,-0.0536,-0.0615,-0.0689,-0.0714,-0.0731,-0.0717,-0.0695,-0.0709,-0.0755,-0.0736,-0.075,-0.0393,0.0069,0.0244,0.0176,0,0,0,0,0,0,-0.014,-0.0209,-0.0118,-0.0099,-0.0074,-0.0052,-0.0016,0.0014,0.0033,0.006,0.0058,-0.0085,0,-0.0431,-0.0214,0.033,0.0198,-0.0143,-0.0665,-0.1025,-0.1123,-0.106,-0.0975,-0.0978,-0.1011,-0.1041,-0.0994,-0.0854,-0.0678,-0.0563,-0.0426,-0.0434,-0.0527,-0.0569,-0.0508,-0.0582,-0.0786,-0.0387,-0.0335,-0.0327,0,0,0,0,0,0,-0.0201,-0.0253,-0.0159,-0.0129,-0.0085,-0.0055,-0.003,-0.0008,-0.0019,-0.006,0,0,0,-0.0335,-0.0074,0.0371,0.0181,-0.0316,-0.0714,-0.0948,-0.1107,-0.1099,-0.1093,-0.1134,-0.1184,-0.1165,-0.0978,-0.0725,-0.0569,-0.0514,-0.0448,-0.0467,-0.0456,-0.0409,-0.0335,-0.0346,-0.0615,-0.0805,-0.0824,-0.022,0,0,0,0,0,0,-0.0368,-0.0231,-0.0201,-0.0162,-0.0115,-0.011,-0.0173,-0.0003,-0.014,-0.0222,0.0137,0,0,-0.0154,0.0077,0.033,0.0049,-0.0437,-0.0706,-0.0838,-0.0906,-0.092,-0.0972,-0.1016,-0.1099,-0.1066,-0.0898,-0.0753,-0.0761,-0.0876,-0.0942,-0.0827,-0.0654,-0.0472,-0.0206,-0.0201,-0.0398,-0.0799,-0.0747,-0.0091,0,0,0,0,0,-0.014,-0.0335,-0.0203,-0.0247,-0.0198,-0.0165,-0.017,-0.0228,0,-0.0288,-0.0201,0.0118,0,0,0.0137,0.0187,0.0242,-0.0033,-0.0431,-0.0703,-0.0799,-0.0819,-0.0898,-0.0967,-0.0956,-0.0961,-0.0854,-0.0706,-0.0615,-0.0733,-0.095,-0.1252,-0.1239,-0.1077,-0.072,-0.0253,-0.019,-0.0404,-0.0678,-0.0698,-0.0179,0,-0.0376,0.0,-0.0332,0,-0.0069,-0.0187,-0.0244,-0.0291,-0.0231,-0.0214,-0.0203,-0.019,-0.0099,-0.0176,-0.0022,-0.0025,0,0.0242,0.0291,0.0258,0.0126,-0.0113,-0.0456,-0.0706,-0.0827,-0.0893,-0.1003,-0.0975,-0.0871,-0.0698,-0.0464,-0.0349,-0.0324,-0.0478,-0.0766,-0.1192,-0.1579,-0.1612,-0.128,-0.0739,-0.0332,-0.0379,-0.0662,-0.0722,-0.0324,0,-0.0393,0,-0.0297,-0.0099,0,-0.0187,-0.0283,-0.0332,-0.0266,-0.0272,-0.0269,-0.0269,-0.0159,-0.0055,-0.0071,-0.0074,0,0.0313,0.0327,0.0275,0.0074,-0.0179,-0.0519,-0.0739,-0.0884,-0.097,-0.1003,-0.0764,-0.0536,-0.0231,-0.0044,0.0014,-0.0003,-0.0132,-0.042,-0.0873,-0.1544,-0.2008,-0.1945,-0.1382,-0.0665,-0.0437,-0.0626,-0.0703,-0.047,0,-0.0409,-0.0093,-0.0173,-0.0058,-0.008,-0.0181,-0.033,-0.0354,-0.0308,-0.0335,-0.0379,-0.0417,-0.0255,-0.0231,-0.0093,0,0.0412,0.0461,0.0365,0.0239,0.0115,-0.0137,-0.0494,-0.0747,-0.0953,-0.0989,-0.0827,-0.0442,-0.0038,0.0206,0.0332,0.0335,0.0214,0.0011,-0.0258,-0.061,-0.1211,-0.203,-0.2445,-0.203,-0.1244,-0.0744,-0.0637,-0.0684,-0.0555,-0.031,-0.028,-0.0069,-0.008,0.0,-0.0074,-0.0168,-0.0401,-0.0371,-0.0352,-0.0407,-0.0522,-0.0607,-0.0555,-0.0179,0,0.0321,0.0412,0.0445,0.0327,0.0264,0.0154,-0.0027,-0.0354,-0.0692,-0.0906,-0.0819,-0.0489,-0.0055,0.0294,0.0511,0.0613,0.0577,0.0407,0.0088,-0.0341,-0.0728,-0.1112,-0.184,-0.2714,-0.2705,-0.2013,-0.1277,-0.0849,-0.0758,-0.0558,-0.0261,-0.0146,-0.006,-0.0022,0.0003,-0.0052,-0.0146,-0.0396,-0.0385,-0.0385,-0.045,-0.0604,-0.0758,-0.1011,0,0.0505,0.0398,0.0412,0.039,0.0357,0.0346,0.0159,0.0049,-0.0173,-0.0456,-0.0634,-0.05,-0.0239,0.0192,0.0555,0.0797,0.0868,0.0791,0.0585,0.0255,-0.0228,-0.0821,-0.1338,-0.1857,-0.278,-0.3299,-0.287,-0.2002,-0.1178,-0.0656,-0.0327,-0.019,-0.0102,-0.0014,0.0019,-0.0003,-0.0022,-0.008,-0.0368,-0.0365,-0.0352,-0.0396,-0.0503,-0.0654,-0.0942,-0.0319,0.0338,0.0376,0.0335,0.0401,0.0472,0.0327,0.0209,0.0192,0.0038,-0.0154,-0.0247,-0.019,0.0091,0.0516,0.0882,0.0997,0.0931,0.0753,0.0481,0.0135,-0.028,-0.0824,-0.1469,-0.2049,-0.2835,-0.3686,-0.3722,-0.2582,-0.097,-0.0118,0.0066,-0.0203,-0.003,0.0033,0.0003,0.0003,0.0016,-0.0005,-0.0341,-0.0264,-0.0253,-0.0338,-0.0195,-0.0472,-0.0497,-0.0203,0.0104,0.0162,0.0253,0.0398,0.0363,0.0286,0.0321,0.0236,0.0132,0.0135,0.0181,0.0382,0.0665,0.0934,0.1014,0.0934,0.0766,0.0547,0.0253,-0.0132,-0.058,-0.1071,-0.1643,-0.2263,-0.2966,-0.3887,-0.4403,-0.295,-0.0681,-0.0077,-0.0261,-0.0228,-0.0016,0.0016,-0.0005,-0.0005,0.0052,0.0041,-0.0236,-0.0093,-0.0346,-0.0401,0,-0.0365,-0.0198,-0.0063,-0.0003,0.0165,0.0385,0.033,0.0327,0.0396,0.0299,0.0286,0.0341,0.0494,0.0678,0.0843,0.0961,0.097,0.0849,0.0689,0.0544,0.0379,0.0148,-0.019,-0.0695,-0.1329,-0.1939,-0.2563,-0.3192,-0.4016,-0.4826,-0.3623,-0.1329,-0.0764,-0.103,-0.0233,-0.0085,0.0016,0.0,-0.0022,0.0038,-0.0005,-0.008,0,-0.0428,-0.0396,-0.0137,-0.0124,-0.0041,-0.0011,0.0074,0.0445,0.0497,0.0569,0.0596,0.0549,0.0621,0.0805,0.0945,0.1063,0.1145,0.1132,0.1011,0.0802,0.0604,0.045,0.0316,0.019,0.0011,-0.0255,-0.0662,-0.1225,-0.1912,-0.2689,-0.3414,-0.4131,-0.5035,-0.4548,-0.2565,-0.15,-0.1417,-0.0214,-0.0198,-0.0027,0.0008,-0.0038,-0.0011,-0.0211,0,0.0266,-0.0121,-0.0143,-0.0019,0.0055,0.0036,0.0165,0.056,0.0692,0.0794,0.0873,0.0997,0.1178,0.1409,0.1566,0.1629,0.1618,0.1549,0.1393,0.1129,0.0808,0.0522,0.0275,0.0041,-0.0093,-0.019,-0.0382,-0.0615,-0.0912,-0.1486,-0.2296,-0.3123,-0.3746,-0.4554,-0.4689,-0.3598,-0.2519,-0.1601]}],[{"header":{"parameterUnit":"m.s-1","parameterCategory":2,"la1":30.5641,"la2":29.4642,"lo1":-89.4342,"lo2":-87.9343,"dy":0.0333,"dx":0.0333,"nx":46,"ny":34,"refTime":"2024-02-26T00:00:00:Z","depth":"10","parameterNumber":2,"parameterNumberName":"U-component_of_CURRENTS"},"data":[0,0,0,0,0,0,0,0,0,0,0,0,0,0,0,0,0,0,0,0,0,0,0,0,0,0,0,0,0,0,0,0,0,0,0,0,0,0,0,0,0,0.008,0.0137,0.0033,-0.0077,0,0,0,0,0,0,0,0,0,0,0,0,0,0,0,0,0,0,0,0,0,0,0,0,0,0,0,0,0,0,0,0,0,0,0,0,0,0,0,0,0,0,-0.0014,0.0044,0.0088,0.0019,0,0,0,0,0,0,0,0,0,0,0,0,0,0,0,0,0,0,0,0,0,0,0,0,0,0,0,0,0,0,0,0,0,0,0,0,0,0,0,0,0,0,-0.0044,-0.0049,0.0008,0.0025,0,0,0,0,0,0,0,0,0,0,0,0,0,0,0,0,0,0,0,0,0,0,0,0,0,0,0,0,0,0,0,0,0,0,0,0,0,0,0,0,0,0,0.0093,0.0038,0.0033,0.0033,0,0,0,0,0,0,0,0,0,0,0,0,0,0,0,0,0,0,0,0,0,0,0,0,0,0,0,0,0,0,0,0,0,0,0,0,0,0,0,0,0,0.0025,0.0055,0.0074,0.0099,0.0121,0,0,0,0,0,0,0,0,0,0,0,0,0,0,0,0,0,0,0,0,0,0,0,0,0,0,0,0,0,0,0,0,0,0,0,0,0,0,0,0,0,0.0,0.0044,0.0093,0.0132,0.0214,0,0,0,0,0,0,0,0,0,0,0,0,0.0047,0.0195,0.0335,0.0294,0.0253,0.0371,0.0428,0.0393,0.0374,0,0,0,0,0,0,0,0,0,0,0,0,0.0096,0.014,0.0085,0,0,0,0,0,0.0005,0.0082,0.0179,0.0192,0.0206,0,0,0,0,0,0,0,0,0,-0.0047,-0.0066,0.0104,0.028,0.0349,0.0396,0.031,0.0236,0.0321,0.0409,0.0456,0.0483,0.0566,0.0623,0.0582,0.0519,0.0516,0.0555,0,0,0,0,0.0099,0.0277,0.0327,0.0184,0.0066,0,0,0,0,0,0.0049,0.014,0.0214,0.0239,0.0211,0,0,0,0,-0.0063,-0.0154,-0.0143,-0.0044,0.0025,0.0071,0.0077,0.008,0.0115,0.0184,0.0283,0.0261,0.0253,0.0343,0.0407,0.0456,0.0533,0.0538,0.056,0.0632,0.0602,0.0511,0.0445,0.0437,0.0475,0.0486,0.0492,0.0417,0.0313,0.0319,0.0258,0.0118,0.0066,0.0047,-0.0055,-0.0082,0.0137,0.0146,0.0069,0.0192,0.0209,0.0168,0,0,0,-0.0058,-0.011,-0.0129,-0.0146,-0.0096,-0.008,-0.0135,0.0025,0.0228,0.0261,0.0195,0.0135,0.0148,0.025,0.0434,0.0453,0.0352,0.0332,0.0371,0.05,0.0665,0.0692,0.058,0.0423,0.0368,0.039,0.0442,0.0461,0.0412,0.0357,0.0371,0.0272,0.0132,0.0173,0.0236,0.0239,0,0,0,0.0146,0.0244,0.0143,-0.0038,0,0,-0.011,-0.0201,-0.0195,-0.0217,-0.0201,-0.0137,-0.0071,-0.0041,0,0,0,-0.0055,-0.0107,-0.0074,-0.0041,0,0.0025,0.0121,0.019,0,0,0,0,0,0,0,0.0143,0.0294,0.0371,0.0459,0.0396,0.0352,0.0382,0,0,0.0135,0.0129,-0.0033,-0.0036,-0.0011,0.0308,0.0626,0,0,0,-0.0074,-0.0162,-0.0228,-0.0297,-0.0277,-0.0187,-0.008,0.0019,0.0151,0.0214,0.0126,-0.0003,-0.0038,-0.0014,0,0,-0.0088,-0.0074,0.0201,0.0536,0.0645,0.0769,0.0549,0.0467,0.0428,0.0415,0.0269,0.0151,0,0,0,0.0104,0.0283,0.0173,0.017,0.0135,0.0228,0.0217,0.0173,0.0286,0.0407,0,0.0044,0.0,-0.0052,0.0038,-0.0407,-0.0135,-0.0283,-0.0376,-0.0283,-0.019,-0.0016,0.0176,0.0181,0.0093,0.0,-0.0033,0.0044,0.0231,0.0393,0.0481,0.0396,0.0286,0.0393,0.0552,0.0871,0.0758,0.0593,0.0623,0.0525,0.0415,0.0728,0.0758,0.0733,0.0596,0.0533,0.0431,0.0588,0.061,0.0393,0.028,0.0222,0.014,0.0154,0.0264,0.014,0.0253,0.0428,0.0365,0.0247,0.0242,0,-0.0143,-0.0349,-0.0352,-0.0209,-0.0132,0,0,-0.0066,-0.0173,-0.0187,-0.011,0.0014,0.0157,0.0253,0.0291,0.031,0.036,0.0464,0.0618,0.0764,0.047,0.033,0.0404,0.0514,0.0843,0.1079,0.1228,0.1239,0.0909,0.0445,0.0176,0.0253,0.0442,0.0459,0.0283,0.014,0.0253,0.0516,0.0626,0.0428,0.0242,0.0286,0.0346,0.0335,0.0382,-0.0401,-0.0297,-0.0308,-0.0299,-0.0266,0,0,0,-0.0129,-0.0264,-0.0255,-0.0181,-0.0055,0.008,0.0173,0.0195,0.0316,0.0467,0.0492,0.0558,0.0621,0.0247,0.022,0.0233,0.0203,0.0511,0.0733,0.0552,0.0335,0.0198,0.0063,-0.0016,0.0115,0.0291,0.0357,0.0291,0.0211,0.0239,0.0371,0.0547,0.0665,0.0623,0.0522,0.0464,0.0445,0.0461,-0.0096,-0.0148,-0.0102,0,0,0,0,0,-0.0113,-0.0253,-0.0297,-0.0258,-0.0143,-0.0019,0.0071,0.0151,0.05,0.0824,0.0645,0.0401,0.0459,0.0233,0.0379,0.0316,0.0071,0.0003,-0.0019,-0.017,-0.0195,-0.014,-0.0027,0.006,0.0118,0.0173,0.0231,0.0275,0.0286,0.0332,0.0428,0.0508,0.0547,0.053,0.0511,0.0489,0.0461,0.042,0,0,0.0008,0.0016,0.0107,0.0195,0,0,-0.0093,-0.0228,-0.0308,-0.0316,-0.0239,-0.0176,-0.0173,-0.0231,-0.0277,0,0.0135,0.0168,0.0146,0.0107,0.0321,0.0203,-0.0148,-0.0258,-0.0184,-0.025,-0.0168,-0.0033,0.0091,0.0165,0.0231,0.0341,0.0538,0.0645,0.0582,0.05,0.042,0.0346,0.0297,0.0286,0.0321,0.0349,0.0321,0.0343,0,0,-0.0047,-0.0113,-0.011,0.0082,0.0269,0.0266,0.0115,-0.0143,-0.0324,-0.036,-0.0321,-0.0297,-0.0338,-0.0467,-0.0604,-0.0648,0,-0.0113,-0.0179,-0.0159,0.0192,0.0176,-0.0099,-0.0264,-0.0225,-0.0121,-0.0066,0.0014,0.0173,0.0363,0.0527,0.0673,0.0794,0.0819,0.0764,0.0687,0.0593,0.0486,0.0346,0.0269,0.0286,0.0302,0.0385,0.0582,0,0,0,-0.0071,-0.0143,0,0,0,-0.0181,-0.0396,-0.0434,-0.0423,-0.0398,-0.0393,-0.0428,-0.0464,-0.042,-0.0363,0,-0.0198,-0.0346,-0.031,0.0107,0.0198,0.0014,-0.0294,-0.0217,-0.017,-0.006,0.0055,0.0192,0.0335,0.0445,0.0522,0.0549,0.0552,0.0588,0.0629,0.0588,0.0527,0.0571,0.0582,0.0439,0.0415,0.0566,0.0684,0,0,0,0,0,0,0,-0.0168,-0.0387,-0.0456,-0.0475,-0.0475,-0.0467,-0.0459,-0.0461,-0.045,-0.0407,-0.0382,0,-0.0209,-0.0398,-0.0428,0.0019,0.0214,0.0165,-0.0198,-0.0239,-0.0288,-0.0217,-0.0187,-0.0228,-0.0299,-0.0277,-0.0124,0.0066,0.0173,0.0247,0.0308,0.031,0.0277,0.0434,0.0654,0.0689,0.0629,0.0519,0.0577,0,0,0,0,0,0,-0.0104,-0.0338,-0.0453,-0.045,-0.0478,-0.0494,-0.0505,-0.0492,-0.0464,-0.0434,-0.0387,-0.0363,0,-0.022,-0.0445,-0.0514,-0.0104,0.0162,0.0225,0.0027,-0.0104,-0.0321,-0.039,-0.0516,-0.0615,-0.061,-0.0511,-0.0321,-0.0118,0.006,0.0184,0.0222,0.0203,0.0184,0.0228,0.0453,0.0519,0.0459,0.0442,0.0558,0,0,0,0,0,0,-0.0137,-0.0363,-0.0456,-0.0472,-0.0494,-0.0494,-0.0505,-0.0492,-0.0475,-0.0481,0,0,0,-0.022,-0.0467,-0.0563,-0.0198,0.0091,0.0181,0.0091,0.0033,-0.0052,-0.0135,-0.0299,-0.0365,-0.0308,-0.0231,-0.0195,-0.0137,-0.0041,0.0019,0.0181,0.0321,0.0297,0.0239,0.0264,0.0363,0.033,0.0313,0.0437,0,0,0,0,0,0,-0.0195,-0.0426,-0.0472,-0.05,-0.0503,-0.0475,-0.0497,-0.0489,-0.0494,-0.0459,-0.0371,0,0,-0.0201,-0.0467,-0.0547,-0.0269,0.0077,0.0179,0.0085,0.0071,0.0137,0.0135,0.0077,0.0044,0.0115,0.0253,0.0387,0.0415,0.0437,0.0426,0.0407,0.0483,0.0648,0.0747,0.0722,0.0681,0.0582,0.0478,0.0475,0,0,0,0,0,-0.0148,-0.0338,-0.0409,-0.0456,-0.0494,-0.0503,-0.0442,-0.0398,0,-0.0239,-0.0412,-0.0346,0,0,-0.0162,-0.0401,-0.0472,-0.0266,0.008,0.0203,0.0082,0.0014,0.0016,-0.0011,0.0022,0.0151,0.031,0.0445,0.053,0.0563,0.0571,0.0555,0.0577,0.0563,0.0629,0.0695,0.0714,0.0728,0.0717,0.0629,0.0547,0,-0.0266,-0.0272,-0.0261,0,-0.0093,-0.022,-0.0327,-0.0434,-0.0492,-0.0522,-0.0497,-0.042,-0.0464,-0.0547,-0.0453,-0.0368,0,0.0093,-0.0071,-0.0393,-0.0404,-0.0211,0.0102,0.019,-0.0019,-0.0168,-0.0231,-0.0206,0.0022,0.0286,0.0555,0.0742,0.0857,0.0917,0.0909,0.084,0.0764,0.0736,0.0596,0.047,0.053,0.0618,0.0648,0.0629,0.0585,0,-0.0099,0,-0.0115,-0.0233,0,-0.0096,-0.0291,-0.0428,-0.0492,-0.0538,-0.0544,-0.0522,-0.0514,-0.0505,-0.0439,-0.0387,0,-0.014,-0.033,-0.0459,-0.0374,-0.0148,0.0115,0.0135,-0.0071,-0.0173,-0.0107,0.0071,0.0379,0.067,0.0895,0.1027,0.1099,0.1162,0.1176,0.1115,0.0981,0.0849,0.0766,0.0681,0.0613,0.0527,0.0497,0.0516,0.0505,0,-0.0069,-0.0203,-0.0233,-0.0118,0.0005,0.0025,-0.0206,-0.0437,-0.0481,-0.0516,-0.0527,-0.0525,-0.0494,-0.0505,-0.0549,0,0.0038,-0.0104,-0.0319,-0.0363,-0.036,-0.0126,0.0102,0.0118,0.0066,0.0085,0.022,0.0483,0.081,0.1099,0.1266,0.1327,0.1318,0.1307,0.1371,0.1442,0.1318,0.1033,0.086,0.0706,0.05,0.0379,0.0346,0.0341,0.0376,-0.0063,-0.0157,-0.0206,-0.0115,0.0091,0.0137,-0.0088,-0.0338,-0.0415,-0.0439,-0.0439,-0.0439,-0.0407,-0.0489,-0.0613,0,0.0055,-0.0049,-0.0214,-0.0266,-0.0258,-0.0228,-0.0066,0.0102,0.0231,0.0341,0.0445,0.0599,0.0953,0.1343,0.1632,0.1777,0.1807,0.1744,0.1612,0.1508,0.1557,0.1673,0.1467,0.1068,0.0802,0.0519,0.0261,0.0157,0.0206,0.0398,-0.014,-0.0165,-0.0121,0.0033,0.0132,0.0157,-0.0019,-0.0291,-0.0379,-0.0376,-0.0352,-0.0313,-0.028,-0.0272,0,0.0038,-0.0019,-0.0129,-0.0146,-0.0148,-0.0154,-0.0154,-0.0055,-0.0016,0.0151,0.0396,0.0563,0.0846,0.1241,0.1596,0.1838,0.2008,0.2109,0.2115,0.2011,0.1829,0.1675,0.1719,0.1816,0.1571,0.1129,0.0728,0.0456,0.0481,0.0808,0.1176,-0.0154,-0.0085,0.0052,0.0115,0.0126,0.0162,0.0058,-0.0179,-0.031,-0.0316,-0.0269,-0.0206,-0.008,0.033,0.0654,0.0475,0.0192,0.0074,0.0066,0.0041,-0.0036,-0.0093,-0.006,0.0055,0.0258,0.0442,0.0698,0.0978,0.131,0.1651,0.1942,0.2173,0.2337,0.2431,0.2425,0.2332,0.217,0.1991,0.1958,0.1945,0.1664,0.1126,0.0862,0.1217,0.1805,0.2085,-0.0102,0.0014,0.0107,0.0104,0.0115,0.0148,0.0137,-0.0091,-0.0291,-0.0264,-0.0225,-0.0102,0.0066,0.0154,0.0209,0.0222,0.022,0.0297,0.0299,0.0305,0.0228,0.0019,-0.0027,0.019,0.0374,0.0607,0.0906,0.128,0.1747,0.2156,0.2447,0.2623,0.2736,0.2843,0.2933,0.2966,0.2936,0.2793,0.2546,0.2412,0.2214,0.1607,0.1302,0.153,0.1541,0.1209,-0.0071,0.0049,0.0113,0.0121,0.0132,0.0148,0.0173,-0.0052,-0.0255,-0.022,-0.0214,0,-0.003,-0.0036,0.0066,0.019,0.036,0.0453,0.0626,0.0645,0.0398,0.0239,0.0294,0.0544,0.0876,0.1338,0.1857,0.2343,0.2703,0.2964,0.3112,0.3128,0.3076,0.3082,0.3203,0.3387,0.3518,0.3483,0.3214,0.3005,0.2997,0.2428,0.1552,0.1178,0.0906,0.0338,-0.0058,0.0041,0.0137,0.017,0.0187,0.0162,0.0151,0.0162,0,-0.0165,-0.0181,-0.0099,-0.0143,-0.008,0.0058,0.0261,0.0456,0.0593,0.064,0.0714,0.0725,0.0981,0.1445,0.198,0.2601,0.3112,0.3444,0.3573,0.3587,0.3584,0.3527,0.3321,0.3071,0.301,0.3252,0.3642,0.3865,0.3818,0.3516,0.3241,0.3238,0.3447,0.295,0.131,-0.0014,-0.0596,-0.0044,-0.0033,0.0085,0.0195,0.0214,0.0187,0.0162,0,-0.0228,-0.039,-0.0264,-0.0187,-0.0124,-0.0047,0.0104,0.0313,0.0423,0.067,0.0948,0.1134,0.1659,0.2304,0.3106,0.3837,0.434,0.4562,0.4485,0.415,0.3782,0.3538,0.3271,0.2889,0.2648,0.2826,0.3378,0.3985,0.4331,0.434,0.4112,0.3818,0.3623,0.3867,0.398,0.3367,0.2255,0.1071]},{"header":{"parameterUnit":"m.s-1","parameterCategory":2,"la1":30.5641,"la2":29.4642,"lo1":-89.4342,"lo2":-87.9343,"dy":0.0333,"dx":0.0333,"nx":46,"ny":34,"refTime":"2024-02-26T00:00:00:Z","depth":"10","parameterNumber":3,"parameterNumberName":"V-component_of_CURRENTS"},"data":[0,0,0,0,0,0,0,0,0,0,0,0,0,0,0,0,0,0,0,0,0,0,0,0,0,0,0,0,0,0,0,0,0,0,0,0,0,0,0,0,0,0.0159,0.025,0.0173,0.0066,0,0,0,0,0,0,0,0,0,0,0,0,0,0,0,0,0,0,0,0,0,0,0,0,0,0,0,0,0,0,0,0,0,0,0,0,0,0,0,0,0,0,0.0088,0.0159,0.0102,0.0014,0,0,0,0,0,0,0,0,0,0,0,0,0,0,0,0,0,0,0,0,0,0,0,0,0,0,0,0,0,0,0,0,0,0,0,0,0,0,0,0,0,0,0.0102,0.0107,0.0036,-0.0008,0,0,0,0,0,0,0,0,0,0,0,0,0,0,0,0,0,0,0,0,0,0,0,0,0,0,0,0,0,0,0,0,0,0,0,0,0,0,0,0,0,0,0.0184,0.011,0.0019,-0.0041,0,0,0,0,0,0,0,0,0,0,0,0,0,0,0,0,0,0,0,0,0,0,0,0,0,0,0,0,0,0,0,0,0,0,0,0,0,0,0,0,0,0.0102,0.0151,0.0091,0.0011,-0.0063,0,0,0,0,0,0,0,0,0,0,0,0,0,0,0,0,0,0,0,0,0,0,0,0,0,0,0,0,0,0,0,0,0,0,0,0,0,0,0,0,0,0.0135,0.0192,0.0154,0.0082,0.0,0,0,0,0,0,0,0,0,0,0,0,0,0.0091,0.0047,-0.0008,-0.0025,0.003,-0.0044,-0.0038,-0.0088,-0.0255,0,0,0,0,0,0,0,0,0,0,0,0,0.0239,0.0192,0.0288,0,0,0,0,0,0.0288,0.0291,0.0261,0.0214,0.0157,0,0,0,0,0,0,0,0,0,-0.0129,-0.0022,-0.0126,-0.0008,0.0044,0.0036,-0.0063,-0.0008,-0.0052,-0.0063,-0.0066,-0.011,0.0104,0.0135,0.0063,0.0055,0.0044,0.0179,0,0,0,0,0.0461,0.0385,0.0313,0.0305,0.0357,0,0,0,0,0,0.028,0.0288,0.0239,0.0231,0.0217,0,0,0,0,-0.0255,-0.0088,-0.0074,-0.0082,-0.0049,-0.0011,0.0113,-0.0069,-0.0093,-0.0071,-0.0014,-0.0085,-0.0008,-0.0058,-0.0091,-0.0019,0.0055,0.017,0.017,0.0093,0.0047,-0.0014,0.0082,0.0148,0.0036,0.0071,0.0102,0.0349,0.0316,0.0313,0.0291,0.0327,0.0195,0.0044,-0.0124,0.0,0.0,0.0102,0.0214,0.0069,0.0019,0.0102,0,0,0,-0.0349,-0.025,-0.0093,-0.0049,-0.0058,-0.0069,-0.0052,0.0124,-0.0005,-0.0038,-0.0228,-0.0107,-0.0036,0.0052,-0.0027,-0.0261,-0.0099,-0.0063,0.0118,0.0102,0.0063,0.0016,-0.0036,-0.0008,0.0074,0.0005,0.0044,0.0102,0.0165,0.0206,0.0184,0.0129,0.0115,0.0099,0.0096,0.0019,0,0,0,0.0052,-0.0209,-0.0071,0.0011,0,0,-0.0398,-0.0343,-0.0214,-0.006,-0.0005,-0.0033,-0.011,-0.0244,0,0,0,-0.0201,-0.0066,-0.0003,0.0038,0,-0.0401,-0.0272,-0.0376,0,0,0,0,0,0,0,-0.0148,0.0011,0.0052,0.0047,0.0066,0.0058,0.0074,0,0,0.0118,0.0135,-0.0016,-0.0231,-0.0354,-0.0033,-0.039,0,0,0,-0.0494,-0.0423,-0.031,-0.0126,-0.0049,-0.0025,-0.006,-0.0148,-0.0288,-0.0236,-0.0148,-0.0041,-0.0085,-0.0113,0,0,0.0332,-0.0162,-0.0299,-0.0417,-0.0022,-0.0027,0.0,-0.0052,0.0041,0.0121,0.0016,-0.0316,0,0,0,-0.006,-0.0027,0.0126,0.0096,0.0011,0.0047,0.0066,-0.0022,-0.0198,-0.0129,0,0.0033,0.0417,0.0327,0.0151,-0.0247,-0.0363,-0.0206,-0.0115,-0.017,-0.0176,-0.0047,-0.0082,-0.039,-0.0283,-0.0146,-0.0096,-0.011,-0.0233,-0.0173,-0.0113,0.0203,0.0027,-0.0231,-0.0299,-0.0209,-0.0003,0.0225,0.0266,0.0481,0.0439,-0.006,-0.0308,-0.0041,0.0151,0.0124,-0.0382,-0.0602,-0.0398,-0.0003,-0.0093,-0.0264,-0.0368,-0.0396,-0.0448,0.0036,-0.0168,0.0299,0.0371,0.0242,0.0088,0,-0.0343,-0.0206,-0.0239,-0.0302,-0.0146,0,0,-0.0497,-0.0297,-0.0176,-0.0195,-0.0214,-0.0247,-0.0179,-0.011,0.0033,-0.0069,-0.0236,-0.0341,-0.0192,0.0365,0.0409,0.0508,0.058,0.0135,-0.0277,-0.0722,-0.0363,0.0074,0.0214,0.0082,0.0011,0.0,0.014,0.0099,-0.0071,-0.006,-0.014,-0.0239,-0.0299,-0.0374,-0.0255,-0.0074,0.0003,0.0019,0.0091,-0.0253,-0.0055,-0.0157,-0.0168,0,0,0,-0.0415,-0.0198,-0.0181,-0.0206,-0.019,-0.0148,-0.0074,0.0044,0.011,-0.0157,-0.0354,-0.039,-0.0228,0.0195,0.0173,0.0371,0.0401,0.0124,-0.003,-0.0401,-0.0387,0.0102,0.0503,0.0445,0.0321,0.0313,0.0472,0.0453,0.0308,0.0209,0.011,0.0049,0.0074,0.0077,0.0047,0.0058,0.0011,0.0121,0.0044,-0.0047,-0.0022,0,0,0,0,0,-0.031,-0.0135,-0.0115,-0.011,-0.0047,0.0041,0.0192,0.039,0.053,-0.0088,-0.0585,-0.0514,-0.045,-0.0003,0.0198,0.0459,0.067,0.0286,0.0082,0.011,0.0008,0.0187,0.0437,0.0571,0.0651,0.0725,0.0725,0.061,0.0489,0.0431,0.0478,0.0503,0.0566,0.0533,0.0404,0.0368,0.0288,0.0368,0,0,-0.0214,-0.0093,0.0019,0.0146,0,0,-0.033,-0.0173,-0.0049,-0.0003,0.0066,0.0176,0.0346,0.0544,0.0736,0,-0.0363,-0.0665,-0.0709,-0.0052,0.0242,0.0467,0.07,0.0321,0.0217,0.0415,0.0409,0.0503,0.0615,0.0689,0.0687,0.0662,0.0643,0.0618,0.0648,0.0711,0.0766,0.0722,0.0692,0.0621,0.0492,0.0434,0.0448,0.053,0,0,-0.0107,-0.0225,-0.0115,0.0074,0.0,0.0,-0.0492,-0.0239,-0.0036,0.0016,0.0071,0.0179,0.0308,0.039,0.0374,-0.0124,0,-0.0711,-0.0599,0.0011,0.0247,0.0439,0.0632,0.0266,0.0272,0.0472,0.0494,0.0569,0.0648,0.0678,0.07,0.0687,0.067,0.0714,0.0819,0.0827,0.0753,0.0651,0.058,0.0516,0.0428,0.0387,0.0431,0.0698,0,0,0,-0.0179,-0.0124,0,0,0,-0.0525,-0.022,-0.0074,-0.0036,0.0033,0.014,0.0209,0.0203,0.0085,-0.0129,0,-0.0596,-0.0404,0.0041,0.0272,0.0393,0.0461,0.0165,0.0184,0.031,0.0365,0.0407,0.0505,0.0596,0.0667,0.0667,0.0591,0.0478,0.0258,-0.0104,-0.0239,0.0102,0.047,0.0544,0.0464,0.0349,0.0489,0.0794,0,0,0,0,0,0,0,-0.0181,-0.025,-0.0124,-0.0082,-0.0055,0.0005,0.008,0.0099,0.0107,0.0063,-0.0148,0,-0.0481,-0.0291,0.0008,0.033,0.0393,0.0299,0.0027,-0.0038,0.0058,0.0135,0.0198,0.0233,0.0201,0.0099,-0.0044,-0.019,-0.0316,-0.047,-0.0547,-0.0574,-0.039,-0.0132,0.0132,0.0387,0.0423,0.0525,0.0591,0,0,0,0,0,0,-0.0143,-0.0184,-0.0104,-0.0091,-0.0069,-0.0047,-0.0014,0.0011,0.0022,0.0041,0.0033,-0.0082,0,-0.0409,-0.0195,0.0027,0.0398,0.0448,0.0236,-0.0036,-0.0203,-0.0225,-0.0173,-0.0201,-0.0294,-0.0423,-0.0508,-0.0514,-0.0497,-0.0492,-0.0461,-0.0428,-0.0514,-0.0489,-0.039,-0.0461,-0.0126,0.0283,0.0209,-0.0027,0,0,0,0,0,0,-0.0203,-0.0206,-0.0148,-0.0118,-0.0077,-0.0049,-0.003,-0.0008,-0.0025,-0.006,0,0,0,-0.0319,-0.0104,0.0091,0.045,0.0486,0.0214,-0.0027,-0.0217,-0.031,-0.0379,-0.0439,-0.0577,-0.0665,-0.061,-0.0459,-0.0321,-0.0319,-0.0319,-0.0396,-0.0453,-0.0407,-0.0335,-0.0368,-0.0503,-0.0299,-0.0426,-0.0195,0,0,0,0,0,0,-0.0277,-0.0203,-0.0184,-0.0151,-0.0107,-0.0091,-0.0143,-0.0003,-0.0132,-0.0157,-0.0242,0,0,-0.0159,-0.0014,0.014,0.0467,0.0483,0.0192,-0.0008,-0.0159,-0.0231,-0.0332,-0.0374,-0.0426,-0.0448,-0.0401,-0.0327,-0.0305,-0.0368,-0.0505,-0.0552,-0.0514,-0.0442,-0.0239,-0.0211,-0.045,-0.0673,-0.07,-0.011,0,0,0,0,0,-0.0165,-0.0242,-0.0184,-0.0217,-0.0187,-0.0154,-0.0137,-0.0187,0,-0.0269,-0.0151,-0.0195,0,0,-0.0019,0.0063,0.022,0.0483,0.0481,0.017,-0.0011,-0.0113,-0.0211,-0.0302,-0.0319,-0.0269,-0.0184,-0.0071,-0.0014,-0.0096,-0.0299,-0.0593,-0.0667,-0.0651,-0.0503,-0.0247,-0.0231,-0.0409,-0.0689,-0.0706,-0.019,0,-0.0211,0.0,-0.0228,0,-0.0082,-0.0214,-0.0217,-0.0244,-0.022,-0.0201,-0.0176,-0.0168,-0.0085,-0.0165,-0.0069,-0.0154,0,0.0206,0.0069,0.0157,0.0335,0.0494,0.0483,0.0157,-0.0052,-0.0173,-0.0297,-0.0341,-0.0299,-0.0148,0.003,0.0187,0.0253,0.0176,-0.0036,-0.042,-0.0802,-0.0931,-0.0805,-0.05,-0.036,-0.039,-0.0673,-0.0733,-0.0335,0,-0.0217,0,-0.0206,-0.0085,0,-0.0228,-0.0269,-0.0272,-0.0253,-0.025,-0.0244,-0.0239,-0.0135,-0.006,-0.0104,-0.008,0,0.0231,0.0165,0.0211,0.0431,0.0489,0.045,0.0121,-0.0157,-0.0297,-0.0374,-0.033,-0.0211,0.0008,0.0187,0.0299,0.0343,0.0308,0.0124,-0.0231,-0.0802,-0.1225,-0.1277,-0.0915,-0.0555,-0.0472,-0.0632,-0.0717,-0.0481,0,-0.0214,-0.0074,-0.0126,-0.0063,-0.0085,-0.0214,-0.0291,-0.0283,-0.0294,-0.031,-0.033,-0.0319,-0.0236,-0.0209,-0.0085,0,0.0316,0.0299,0.0294,0.028,0.0401,0.0415,0.0349,-0.0003,-0.025,-0.0363,-0.0305,-0.017,0.0011,0.019,0.033,0.039,0.0363,0.0288,0.0159,-0.0096,-0.0604,-0.134,-0.1681,-0.1428,-0.0937,-0.0794,-0.0643,-0.0695,-0.056,-0.0148,-0.0162,-0.0063,-0.0096,-0.0036,-0.0077,-0.0211,-0.0269,-0.0294,-0.0335,-0.0382,-0.0417,-0.0398,-0.0428,-0.0154,0,0.0283,0.0349,0.033,0.031,0.0277,0.0363,0.0316,0.0291,-0.0041,-0.0195,-0.0192,-0.0016,0.0143,0.0308,0.0461,0.0582,0.0602,0.0508,0.0299,0.0069,-0.0173,-0.0519,-0.1247,-0.2019,-0.2,-0.153,-0.1132,-0.0797,-0.0761,-0.056,-0.0146,-0.011,-0.0074,-0.0052,-0.0025,-0.0055,-0.0184,-0.0258,-0.031,-0.0368,-0.0423,-0.0464,-0.0467,-0.0742,0,0.0453,0.0363,0.0376,0.0302,0.0286,0.0294,0.0363,0.0272,0.028,0.0115,0.0005,0.0066,0.0233,0.0439,0.067,0.0851,0.0931,0.0895,0.075,0.0467,0.0088,-0.0261,-0.0591,-0.114,-0.2131,-0.2535,-0.2222,-0.1571,-0.1041,-0.0742,-0.0393,-0.0126,-0.0093,-0.0025,0.0016,-0.0008,-0.0022,-0.0104,-0.0269,-0.0294,-0.033,-0.0368,-0.0379,-0.0456,-0.0733,-0.0236,0.0313,0.0354,0.0308,0.0264,0.0286,0.0341,0.0335,0.0321,0.028,0.0209,0.0154,0.0247,0.0511,0.0829,0.1055,0.1132,0.1079,0.0931,0.0695,0.0398,0.0014,-0.0415,-0.0794,-0.12,-0.2063,-0.2909,-0.2991,-0.1978,-0.0755,-0.0261,-0.0077,-0.014,-0.0044,0.0033,0.0003,0.0003,0.0019,-0.0016,-0.0277,-0.022,-0.0222,-0.0275,-0.0146,-0.0407,-0.0412,-0.0137,0.0135,0.0198,0.0206,0.0225,0.0253,0.0201,0.0192,0.0299,0.0349,0.0357,0.0472,0.0714,0.1003,0.1167,0.1173,0.1055,0.0871,0.0656,0.039,0.0052,-0.0343,-0.081,-0.1258,-0.1615,-0.214,-0.3145,-0.3804,-0.2195,-0.0349,-0.0113,-0.0396,-0.017,-0.0022,0.0016,-0.0003,-0.0003,0.0052,0.0036,-0.022,-0.0085,-0.0291,-0.0291,0,-0.0319,-0.0148,-0.0014,0.0085,0.0118,0.0198,0.0214,0.0168,0.0093,0.0091,0.0478,0.0492,0.0648,0.0865,0.1074,0.1167,0.1143,0.1008,0.0816,0.0618,0.0426,0.0211,-0.0102,-0.0563,-0.1145,-0.1752,-0.2222,-0.2524,-0.3387,-0.4455,-0.2972,-0.0851,-0.0794,-0.1222,-0.0173,-0.0091,0.0016,0.0,-0.0022,0.0036,-0.0011,-0.0077,0,-0.0374,-0.0313,-0.0077,-0.0096,0.0,0.0033,0.0063,0.0179,0.028,0.0302,0.022,0.0437,0.0709,0.0777,0.0906,0.1033,0.1123,0.1132,0.1049,0.0926,0.0755,0.0555,0.0374,0.0233,0.0088,-0.0173,-0.0591,-0.117,-0.1876,-0.2601,-0.2999,-0.365,-0.4689,-0.4093,-0.22,-0.1538,-0.1533,-0.0159,-0.0157,-0.0049,0.0,-0.0041,-0.0014,-0.0201,0,0.0261,-0.0102,-0.0118,0.0014,0.0066,0.006,0.0082,0.0159,0.0272,0.0481,0.0588,0.0953,0.1151,0.1307,0.1417,0.1456,0.1426,0.1346,0.1222,0.1027,0.0788,0.0522,0.025,0.0071,0.0016,-0.0019,-0.019,-0.0486,-0.0915,-0.1535,-0.2357,-0.3068,-0.3653,-0.4483,-0.4573,-0.3507,-0.2497,-0.1634]}],[{"header":{"parameterUnit":"m.s-1","parameterCategory":2,"la1":30.5641,"la2":29.4642,"lo1":-89.4342,"lo2":-87.9343,"dy":0.0333,"dx":0.0333,"nx":46,"ny":34,"refTime":"2024-02-26T00:00:00:Z","depth":"12","parameterNumber":2,"parameterNumberName":"U-component_of_CURRENTS"},"data":[0,0,0,0,0,0,0,0,0,0,0,0,0,0,0,0,0,0,0,0,0,0,0,0,0,0,0,0,0,0,0,0,0,0,0,0,0,0,0,0,0,0,0,0,0,0,0,0,0,0,0,0,0,0,0,0,0,0,0,0,0,0,0,0,0,0,0,0,0,0,0,0,0,0,0,0,0,0,0,0,0,0,0,0,0,0,0,0,0,0,0,0,0,0,0,0,0,0,0,0,0,0,0,0,0,0,0,0,0,0,0,0,0,0,0,0,0,0,0,0,0,0,0,0,0,0,0,0,0,0,0,0,0,0,0,0,0,0,0,0,0,0,0,0,0,0,0,0,0,0,0,0,0,0,0,0,0,0,0,0,0,0,0,0,0,0,0,0,0,0,0,0,0,0,0,0,0,0,0,0,0,0,0,0,0,0,0,0,0,0,0,0,0,0,0,0,0,0,0,0,0,0,0,0,0,0,0,0,0,0,0,0,0,0,0,0,0,0,0,0,0,0,0,0,0,0,0,0,0,0,0,0,0,0,0,0,0,0,0,0,0,0,0,0,0,0,0,0,0,0,0,0,0,0,0,0,0,0,0,0,0,0,0,0,0,0,0,0,0,0,0,0,0,0,0,0,0,0,0,0,0,0,0,0,0,0,0,0,0,0,0,0,0,0,0,0,0,0,0,0,0,0,0,0,0,0,0,0,0,0,0,0,0,0,0,0,0,0,0,0,0,0,0,0,0,0,0,0,0,0,0,0,0,0,0,0,0,0,0,0,0,0,0,0,0,0,0,0,0,0,0,0,0,0,0,0,0,0,0,0,0,0,0,0,0,0,0,0,0,0,0,0,0,0,0,0,0,0,0,0,0,0,0,0,0,0,0,0,0,0,0,0,0,0,0,0,0,0,0,0,0,0,0,0,0,0,0,0,0,0,0,0,0,0,0,0,0,0,0,0,0,0,0,0,0,0,0,0,0,0,0,0,0,0,0,0,0,0,0,0,0,0,0,0,0,0,0,0,0,0,0,0,0,0,0,0,0,0,0,0,0,0,0,0,0,0,0,0,0,0,0,0,0,0,0,0,0,0,0,0,0,0,0,0,0,0,0,0,0,0,0,0,0,0,0,0,0,0,0,0,0,0,0,0,0,0,0,0,0,0,0,0,0,0,0,0,0,0,0,0,0,0,0,0,0,0,0,0.0508,0.0456,0.039,0.0382,0,0,0,0,0,0,0,0,0,-0.0096,0.0014,0,0,0,0,0,0,0,0,0,0,0,0,0,0,0,0,0,0,0,0,0,0,0,0,0,0,0,0,0,0,0.0615,0.0544,0.0489,0.047,0.0387,0.0302,0.0398,0,0.0472,0.0327,0.0217,0.0181,0.025,0.0283,0.0439,0.0297,0.0305,0.0255,0.0198,0.0253,0,0.0198,0,0.0247,0.0165,0.0184,0,0,0,0,0,0,0,0,0,0,0,0,0,0,0,0,0,0,0,0.056,0.0591,0.0544,0.0533,0.0591,0.039,0.0222,0.0415,0.0739,0.0931,0.0862,0.0645,0.0448,0.0442,0.0472,0.0525,0.0453,0.0368,0.042,0.0448,0.0393,0.0255,0.0217,0.0288,0.028,0.0275,0.0335,0,0,0,0,0,0,0,0,0,0,0,0,0,0,0,0,0,0,0,0.0505,0.0541,0.0505,0.0291,0.0354,0.0214,0.0162,0.0165,0.0088,0.0118,0.0165,0.0126,0.0118,0.0269,0.0464,0.0475,0.033,0.0217,0.0275,0.0423,0.0541,0.0558,0.0508,0.0428,0.0357,0.0374,0.0423,0,0,0,0,0,0,0,0,0,0,0,0,0,0,0,0,0,0,0,0,0.0365,0.0412,0.0206,0.0291,0.0173,-0.0071,-0.0168,-0.0192,-0.017,-0.0052,0.0082,0.0113,0.0113,0.0168,0.0198,0.0157,0.011,0.0157,0.0308,0.0472,0.0555,0.0541,0.0472,0.0428,0.042,0.0393,0,0,0,0,0,0,0,0,0,0,0,0,0,0,0,0,0,0,0,0,0.0104,0.0201,0.006,0.0211,0.0154,0.0033,0.0082,0.0173,0.0244,0.0305,0.0308,0.0283,0.0255,0.0206,0.0173,0.0135,0.0124,0.0184,0.028,0.0341,0.0352,0.0368,0.039,0.0387,0.0374,0.0338,0,0,0,0,0,0,0,0,0,0,0,0,0,0,0,0,0,0,0,0,-0.0168,-0.0085,-0.0074,0.0184,0.0272,0.0244,0.0275,0.0363,0.0415,0.0472,0.0503,0.0505,0.0527,0.0481,0.0371,0.0299,0.0277,0.0247,0.0222,0.0203,0.0176,0.0192,0.0239,0.0269,0.0283,0.0335,0,0,0,0,0,0,0,0,0,0,0,0,0,0,0,0,0,0,0,0,0,-0.0275,-0.0209,0.0124,0.0335,0.0308,0.0288,0.0363,0.0412,0.0467,0.0541,0.0574,0.0558,0.0538,0.0547,0.0538,0.0555,0.0599,0.0533,0.0437,0.0343,0.0203,0.0165,0.019,0.0288,0.0396,0,0,0,0,0,0,0,0,0,0,0,0,0,0,0,0,0,0,0,0,0,-0.0396,-0.0305,0.0019,0.0352,0.0349,0.0283,0.0283,0.0283,0.028,0.0242,0.0135,0.0014,0.0022,0.019,0.0368,0.0439,0.042,0.0363,0.0376,0.0494,0.0522,0.039,0.0341,0.0363,0.0385,0,0,0,0,0,0,0,0,0,0,0,0,0,0,0,0,0,0,0,0,0,-0.0445,-0.0398,-0.0088,0.0343,0.0415,0.0371,0.0264,0.0146,0.0019,-0.0143,-0.033,-0.0401,-0.031,-0.0146,0.0019,0.0179,0.0319,0.0349,0.0335,0.0401,0.0481,0.0453,0.0412,0.0338,0.0442,0,0,0,0,0,0,0,0,0,0,0,0,0,0,0,0,0,0,0,0,0,-0.0481,-0.0448,-0.0176,0.0299,0.0393,0.0382,0.0324,0.0209,0.0016,-0.017,-0.025,-0.0233,-0.014,-0.0016,0.0071,0.0121,0.022,0.0313,0.0302,0.0244,0.0272,0.0376,0.0316,0.0291,0.0387,0,0,0,0,0,0,0,0,0,0,0,0,0,0,0,0,0,0,0,0,0,-0.0486,-0.047,-0.0211,0.0286,0.0385,0.0327,0.028,0.0264,0.0239,0.022,0.0258,0.0357,0.0453,0.0497,0.0481,0.0417,0.0365,0.0398,0.0577,0.0744,0.0728,0.0684,0.0525,0.0448,0.0497,0,0,0,0,0,0,0,0,0,0,0,0,0,0,0,0,0,0,0,0,0,-0.0453,-0.0428,-0.0198,0.0283,0.0379,0.0239,0.0162,0.0146,0.0184,0.0297,0.0445,0.0555,0.0621,0.0654,0.0692,0.072,0.0645,0.0541,0.0486,0.0591,0.0711,0.0728,0.0714,0.0626,0.0552,0,0,0,0,0,0,0,0,0,0,0,0,0,0,0,0,0,0,0,0,-0.0379,-0.0434,-0.0409,-0.0154,0.0275,0.0313,0.008,-0.0008,0.0038,0.0222,0.0467,0.0673,0.0791,0.0835,0.0835,0.081,0.0813,0.0854,0.0777,0.058,0.0442,0.0497,0.0607,0.0615,0.0602,0.0585,0,0,0,0,0,0,0,0,0,0,0,0,0,0,0,0,0,0,0,0,-0.0379,-0.0445,-0.042,-0.0118,0.0242,0.028,0.0113,0.0159,0.0385,0.067,0.0917,0.1066,0.1118,0.111,0.1074,0.1035,0.097,0.0893,0.0854,0.0797,0.0643,0.0533,0.0497,0.0494,0.0511,0.0505,0,0,0,0,0,0,0,0,0,0,0,0,0,0,0,0,0,0,0,0,-0.0332,-0.0409,-0.0417,-0.0143,0.0209,0.0407,0.0445,0.0555,0.0783,0.1074,0.1288,0.1417,0.145,0.139,0.1285,0.1228,0.1214,0.1099,0.0937,0.084,0.0656,0.0412,0.0324,0.0343,0.0338,0.0376,0,0,0,0,0,0,0,0,0,0,0,0,0,0,0,0,0,0,0,-0.0225,-0.0239,-0.0288,-0.039,-0.017,0.019,0.0558,0.0797,0.0939,0.1198,0.1469,0.1681,0.1788,0.1829,0.1783,0.1637,0.1458,0.1382,0.1371,0.1178,0.0939,0.0717,0.0467,0.033,0.0239,0.025,0.0401,0,0,0,0,0,0,0,0,0,0,0,0,0,0,0,0,0,0,0,-0.0146,-0.0135,-0.0115,-0.0148,-0.0074,0.0115,0.0478,0.0764,0.0983,0.1305,0.1582,0.1788,0.1953,0.2071,0.2118,0.2057,0.1859,0.1618,0.1505,0.1461,0.1244,0.0917,0.067,0.0563,0.0544,0.0766,0.1121,0,0,0,0,0,0,0,0,0,0,0,0,0,0,0,0,0,0,0.0052,0.006,0.0085,0.0132,0.0093,0.0102,0.0206,0.0453,0.0687,0.1005,0.1357,0.1675,0.1945,0.2131,0.2247,0.2318,0.2324,0.2219,0.2035,0.1829,0.1697,0.1582,0.1296,0.0917,0.0887,0.1233,0.1678,0.1925,0,0,0,0,0,0,0,0,0,0,0,0,0,0,0,0,0,0.0242,0.0269,0.0302,0.0335,0.0321,0.0225,0.0096,0.0258,0.0525,0.0893,0.128,0.1675,0.2011,0.2244,0.2376,0.2445,0.2488,0.2499,0.2442,0.2343,0.2244,0.2109,0.1967,0.1645,0.1154,0.1222,0.1522,0.1379,0.1,0,0,0,0,0,0,0,0,0,0,0,0,0,0,0,0,0.0272,0.0327,0.0371,0.042,0.0618,0.0722,0.0266,0.0368,0.07,0.1099,0.1535,0.1958,0.2285,0.2527,0.2662,0.2697,0.2678,0.2672,0.2703,0.2722,0.2653,0.2527,0.242,0.2354,0.2087,0.1458,0.1129,0.1033,0.067,0.0201,0,0,0,0,0,0,0,0,0,0,0,0,0,0,0,0,0.0319,0.0407,0.0497,0.0717,0.0865,0.0829,0.1115,0.1524,0.1969,0.2423,0.2774,0.2947,0.3016,0.3054,0.3043,0.2914,0.2741,0.2662,0.2741,0.2892,0.2865,0.2582,0.2384,0.2398,0.2403,0.2442,0.2008,0.1041,0.0269,-0.0332,0,0,0,0,0,0,0,0,0,0,0,0,0,0,0,0.0228,0.033,0.0437,0.0599,0.1145,0.1423,0.1945,0.2524,0.3139,0.3628,0.3884,0.3884,0.3664,0.3381,0.3181,0.2972,0.267,0.2447,0.2499,0.2815,0.3205,0.3387,0.323,0.2884,0.2587,0.2453,0.2618,0.2681,0.2304,0.1489,0.0472]},{"header":{"parameterUnit":"m.s-1","parameterCategory":2,"la1":30.5641,"la2":29.4642,"lo1":-89.4342,"lo2":-87.9343,"dy":0.0333,"dx":0.0333,"nx":46,"ny":34,"refTime":"2024-02-26T00:00:00:Z","depth":"12","parameterNumber":3,"parameterNumberName":"V-component_of_CURRENTS"},"data":[0,0,0,0,0,0,0,0,0,0,0,0,0,0,0,0,0,0,0,0,0,0,0,0,0,0,0,0,0,0,0,0,0,0,0,0,0,0,0,0,0,0,0,0,0,0,0,0,0,0,0,0,0,0,0,0,0,0,0,0,0,0,0,0,0,0,0,0,0,0,0,0,0,0,0,0,0,0,0,0,0,0,0,0,0,0,0,0,0,0,0,0,0,0,0,0,0,0,0,0,0,0,0,0,0,0,0,0,0,0,0,0,0,0,0,0,0,0,0,0,0,0,0,0,0,0,0,0,0,0,0,0,0,0,0,0,0,0,0,0,0,0,0,0,0,0,0,0,0,0,0,0,0,0,0,0,0,0,0,0,0,0,0,0,0,0,0,0,0,0,0,0,0,0,0,0,0,0,0,0,0,0,0,0,0,0,0,0,0,0,0,0,0,0,0,0,0,0,0,0,0,0,0,0,0,0,0,0,0,0,0,0,0,0,0,0,0,0,0,0,0,0,0,0,0,0,0,0,0,0,0,0,0,0,0,0,0,0,0,0,0,0,0,0,0,0,0,0,0,0,0,0,0,0,0,0,0,0,0,0,0,0,0,0,0,0,0,0,0,0,0,0,0,0,0,0,0,0,0,0,0,0,0,0,0,0,0,0,0,0,0,0,0,0,0,0,0,0,0,0,0,0,0,0,0,0,0,0,0,0,0,0,0,0,0,0,0,0,0,0,0,0,0,0,0,0,0,0,0,0,0,0,0,0,0,0,0,0,0,0,0,0,0,0,0,0,0,0,0,0,0,0,0,0,0,0,0,0,0,0,0,0,0,0,0,0,0,0,0,0,0,0,0,0,0,0,0,0,0,0,0,0,0,0,0,0,0,0,0,0,0,0,0,0,0,0,0,0,0,0,0,0,0,0,0,0,0,0,0,0,0,0,0,0,0,0,0,0,0,0,0,0,0,0,0,0,0,0,0,0,0,0,0,0,0,0,0,0,0,0,0,0,0,0,0,0,0,0,0,0,0,0,0,0,0,0,0,0,0,0,0,0,0,0,0,0,0,0,0,0,0,0,0,0,0,0,0,0,0,0,0,0,0,0,0,0,0,0,0,0,0,0,0,0,0,0,0,0,0,0,0,0,0,0,0,0,0,0,0,0,0,0,0,0,0,0,0,0,0,0,0,0,0,0,0,0,0,0.0022,0.0025,0.0027,0.0041,0,0,0,0,0,0,0,0,0,0.0272,0.0137,0,0,0,0,0,0,0,0,0,0,0,0,0,0,0,0,0,0,0,0,0,0,0,0,0,0,0,0,0,0,-0.0104,-0.0016,0.0041,0.0049,0.0049,0.0082,-0.0022,0,0.0082,0.0187,0.0201,0.0041,0.0071,0.0044,0.0047,0.0022,-0.0176,-0.0286,-0.017,-0.014,0,-0.0052,0,0.0341,0.0239,0.0107,0,0,0,0,0,0,0,0,0,0,0,0,0,0,0,0,0,0,0,-0.0297,-0.0203,-0.0135,0.0008,0.0077,0.0423,0.0533,-0.0091,-0.0176,-0.0005,0.019,0.028,0.0005,-0.0132,-0.0129,-0.0077,-0.0121,-0.0297,-0.0319,-0.0291,-0.0275,-0.0146,-0.0168,-0.0016,0.0124,0.0077,0.0044,0,0,0,0,0,0,0,0,0,0,0,0,0,0,0,0,0,0,0,-0.0354,-0.0283,-0.0297,-0.0071,0.0264,0.0519,0.0472,0.0217,-0.0063,0.008,0.0327,0.0382,0.0244,0.011,0.0022,0.0014,-0.003,-0.0159,-0.0253,-0.0275,-0.0269,-0.0247,-0.0201,-0.0146,-0.0052,0.003,0.0118,0,0,0,0,0,0,0,0,0,0,0,0,0,0,0,0,0,0,0,0,-0.0428,-0.0486,0.0005,0.0445,0.0786,0.0794,0.0591,0.0486,0.0456,0.0494,0.0602,0.0533,0.0371,0.0302,0.0264,0.0151,0.0008,-0.0091,-0.0115,-0.0107,-0.0041,0.0033,0.0049,0.008,0.0173,0.0277,0,0,0,0,0,0,0,0,0,0,0,0,0,0,0,0,0,0,0,0,-0.0508,-0.0599,0.0102,0.0505,0.0956,0.103,0.0865,0.0791,0.0742,0.0764,0.0777,0.0733,0.0665,0.0588,0.0439,0.0258,0.0124,0.0066,0.0107,0.0143,0.0168,0.0165,0.0132,0.0181,0.0264,0.0335,0,0,0,0,0,0,0,0,0,0,0,0,0,0,0,0,0,0,0,0,-0.0486,-0.0571,0.0146,0.0503,0.0909,0.0898,0.0769,0.0766,0.0772,0.0799,0.0775,0.0744,0.0692,0.061,0.0497,0.0417,0.0439,0.0544,0.0588,0.0536,0.0352,0.0159,0.006,0.0099,0.0165,0.0316,0,0,0,0,0,0,0,0,0,0,0,0,0,0,0,0,0,0,0,0,0,-0.0417,0.0104,0.042,0.0711,0.0681,0.0613,0.0621,0.061,0.064,0.0681,0.0733,0.0761,0.0764,0.0731,0.0703,0.0689,0.0593,0.0563,0.0585,0.0483,0.0264,0.0121,0.0052,0.0209,0.0566,0,0,0,0,0,0,0,0,0,0,0,0,0,0,0,0,0,0,0,0,0,-0.0275,0.0016,0.0335,0.0599,0.0516,0.0434,0.0417,0.0415,0.0448,0.0497,0.0558,0.0541,0.0434,0.0277,0.0132,-0.0014,-0.0041,0.0192,0.0503,0.0544,0.05,0.0354,0.0192,0.0409,0.0678,0,0,0,0,0,0,0,0,0,0,0,0,0,0,0,0,0,0,0,0,0,-0.0165,0.0025,0.0321,0.058,0.045,0.031,0.0231,0.0187,0.0173,0.0146,0.0096,0.0,-0.0115,-0.0264,-0.0335,-0.0346,-0.0346,-0.0335,-0.0231,-0.0146,0.0016,0.0231,0.0313,0.033,0.0253,0,0,0,0,0,0,0,0,0,0,0,0,0,0,0,0,0,0,0,0,0,-0.0085,0.006,0.0354,0.056,0.0409,0.0269,0.0146,0.0036,-0.0008,-0.011,-0.0209,-0.019,-0.0118,-0.0146,-0.0181,-0.0181,-0.0261,-0.0379,-0.039,-0.033,-0.0308,-0.0201,-0.003,-0.0137,-0.0132,0,0,0,0,0,0,0,0,0,0,0,0,0,0,0,0,0,0,0,0,0,-0.0011,0.008,0.0396,0.05,0.0363,0.028,0.0195,0.0071,-0.0005,-0.0085,-0.0104,-0.0038,0.0036,0.0058,-0.0005,-0.0063,-0.0168,-0.0275,-0.0352,-0.0244,-0.022,-0.0412,-0.0541,-0.0607,-0.0146,0,0,0,0,0,0,0,0,0,0,0,0,0,0,0,0,0,0,0,0,0,0.0063,0.0124,0.0467,0.0467,0.0349,0.0327,0.0236,0.0099,0.0003,0.0016,0.0126,0.0258,0.0319,0.0258,0.0069,-0.0135,-0.0201,-0.0184,-0.0195,-0.025,-0.0242,-0.0417,-0.0714,-0.072,-0.022,0,0,0,0,0,0,0,0,0,0,0,0,0,0,0,0,0,0,0,0,0.0096,0.0121,0.0233,0.0547,0.0472,0.0341,0.0258,0.0088,-0.0014,0.0,0.0154,0.0332,0.0483,0.0563,0.0497,0.0277,-0.0047,-0.0346,-0.0412,-0.0291,-0.031,-0.0346,-0.0415,-0.0698,-0.0755,-0.0354,0,0,0,0,0,0,0,0,0,0,0,0,0,0,0,0,0,0,0,0,0.0154,0.0151,0.0343,0.0637,0.0483,0.0261,0.0049,-0.0115,-0.0107,0.0008,0.0214,0.0393,0.0519,0.0607,0.0615,0.0464,0.0135,-0.0371,-0.0695,-0.0709,-0.0448,-0.0467,-0.0525,-0.0643,-0.0739,-0.0489,0,0,0,0,0,0,0,0,0,0,0,0,0,0,0,0,0,0,0,0,0.0192,0.0162,0.0368,0.0651,0.0486,0.0187,-0.0074,-0.0115,-0.0025,0.008,0.0225,0.0357,0.0431,0.0459,0.0467,0.042,0.0225,-0.0236,-0.0851,-0.1077,-0.0865,-0.07,-0.0824,-0.0648,-0.072,-0.0566,0,0,0,0,0,0,0,0,0,0,0,0,0,0,0,0,0,0,0,0.0266,0.022,0.017,0.0346,0.0519,0.05,0.0297,0.0124,0.0181,0.025,0.0327,0.0464,0.056,0.058,0.0508,0.036,0.0242,0.011,-0.0176,-0.0882,-0.1456,-0.1379,-0.1099,-0.1077,-0.0736,-0.0755,-0.056,0,0,0,0,0,0,0,0,0,0,0,0,0,0,0,0,0,0,0,0.0275,0.0217,0.0192,0.0299,0.0365,0.0415,0.042,0.0382,0.0439,0.0541,0.0714,0.0882,0.0945,0.0906,0.0783,0.0527,0.0206,-0.0022,-0.0239,-0.0791,-0.1686,-0.1917,-0.1637,-0.1266,-0.089,-0.078,-0.0437,0,0,0,0,0,0,0,0,0,0,0,0,0,0,0,0,0,0,0.0258,0.025,0.0211,0.0179,0.0217,0.0255,0.0343,0.0437,0.045,0.0634,0.0887,0.1088,0.1173,0.1137,0.1022,0.0838,0.058,0.0201,-0.0173,-0.0417,-0.0753,-0.1632,-0.231,-0.2304,-0.1442,-0.0709,-0.0382,-0.0192,0,0,0,0,0,0,0,0,0,0,0,0,0,0,0,0,0,0.0201,0.0209,0.0217,0.019,0.0113,0.0033,0.0258,0.042,0.0558,0.0791,0.1085,0.1247,0.1255,0.1145,0.0981,0.0802,0.0574,0.0294,-0.0071,-0.0525,-0.0879,-0.1074,-0.1601,-0.2541,-0.3024,-0.1472,-0.0341,-0.0211,-0.0505,0,0,0,0,0,0,0,0,0,0,0,0,0,0,0,0,0.0129,0.0176,0.0217,0.0236,0.0148,0.0,0.006,0.0492,0.0711,0.097,0.1214,0.1327,0.1299,0.1143,0.0923,0.0709,0.0536,0.0357,0.008,-0.033,-0.0873,-0.1447,-0.1706,-0.1895,-0.2771,-0.37,-0.2151,-0.0667,-0.0827,-0.1272,0,0,0,0,0,0,0,0,0,0,0,0,0,0,0,0,0.0165,0.0255,0.0302,0.031,0.022,0.014,0.0714,0.0849,0.1019,0.117,0.1244,0.1228,0.1118,0.092,0.0673,0.0467,0.0341,0.0236,-0.0005,-0.0415,-0.0978,-0.1708,-0.2206,-0.2359,-0.306,-0.4054,-0.3439,-0.1791,-0.1494,-0.1582,0,0,0,0,0,0,0,0,0,0,0,0,0,0,0,0.0146,0.0264,0.0365,0.0456,0.0456,0.0898,0.1159,0.125,0.1294,0.1291,0.1266,0.1211,0.1088,0.0901,0.0626,0.0338,0.019,0.0176,0.0162,-0.0019,-0.0354,-0.0819,-0.148,-0.2252,-0.2741,-0.3312,-0.4153,-0.4233,-0.3145,-0.2274,-0.1588]}],[{"header":{"parameterUnit":"m.s-1","parameterCategory":2,"la1":30.5641,"la2":29.4642,"lo1":-89.4342,"lo2":-87.9343,"dy":0.0333,"dx":0.0333,"nx":46,"ny":34,"refTime":"2024-02-26T00:00:00:Z","depth":"15","parameterNumber":2,"parameterNumberName":"U-component_of_CURRENTS"},"data":[0,0,0,0,0,0,0,0,0,0,0,0,0,0,0,0,0,0,0,0,0,0,0,0,0,0,0,0,0,0,0,0,0,0,0,0,0,0,0,0,0,0,0,0,0,0,0,0,0,0,0,0,0,0,0,0,0,0,0,0,0,0,0,0,0,0,0,0,0,0,0,0,0,0,0,0,0,0,0,0,0,0,0,0,0,0,0,0,0,0,0,0,0,0,0,0,0,0,0,0,0,0,0,0,0,0,0,0,0,0,0,0,0,0,0,0,0,0,0,0,0,0,0,0,0,0,0,0,0,0,0,0,0,0,0,0,0,0,0,0,0,0,0,0,0,0,0,0,0,0,0,0,0,0,0,0,0,0,0,0,0,0,0,0,0,0,0,0,0,0,0,0,0,0,0,0,0,0,0,0,0,0,0,0,0,0,0,0,0,0,0,0,0,0,0,0,0,0,0,0,0,0,0,0,0,0,0,0,0,0,0,0,0,0,0,0,0,0,0,0,0,0,0,0,0,0,0,0,0,0,0,0,0,0,0,0,0,0,0,0,0,0,0,0,0,0,0,0,0,0,0,0,0,0,0,0,0,0,0,0,0,0,0,0,0,0,0,0,0,0,0,0,0,0,0,0,0,0,0,0,0,0,0,0,0,0,0,0,0,0,0,0,0,0,0,0,0,0,0,0,0,0,0,0,0,0,0,0,0,0,0,0,0,0,0,0,0,0,0,0,0,0,0,0,0,0,0,0,0,0,0,0,0,0,0,0,0,0,0,0,0,0,0,0,0,0,0,0,0,0,0,0,0,0,0,0,0,0,0,0,0,0,0,0,0,0,0,0,0,0,0,0,0,0,0,0,0,0,0,0,0,0,0,0,0,0,0,0,0,0,0,0,0,0,0,0,0,0,0,0,0,0,0,0,0,0,0,0,0,0,0,0,0,0,0,0,0,0,0,0,0,0,0,0,0,0,0,0,0,0,0,0,0,0,0,0,0,0,0,0,0,0,0,0,0,0,0,0,0,0,0,0,0,0,0,0,0,0,0,0,0,0,0,0,0,0,0,0,0,0,0,0,0,0,0,0,0,0,0,0,0,0,0,0,0,0,0,0,0,0,0,0,0,0,0,0,0,0,0,0,0,0,0,0,0,0,0,0,0,0,0,0,0,0,0,0,0,0,0,0,0,0,0,0,0,0,0,0,0,0,0,0,0,0,0,0,0,0,0,0,0,0,0,0,0,0,0,0,0,0,0,0,0,0,0,0,0,0,0,0,0,0,0,0,0,0,0,0,0,0,0,0,0,0,0,0,0,0,0,0,0,0,0,0,0,0,0,0.0165,0.0214,0,0,0,0,0,0,0,0,0,0,0,0,0,0,0,0,0,0,0,0,0,0,0,0,0,0,0,0,0,0,0,0,0.0374,0.0357,0,0,0,0,0,0,0.0211,0.0225,0.0242,0.0255,0.0192,0.0192,0.0236,0.0261,0.0272,0,0,0,0,0,0,0,0,0,0,0,0,0,0,0,0,0,0,0,0,0,0,0,0,0,0,0,0,0.0299,0.0316,0.0349,0.0258,0.0264,0.0357,0.0385,0.0354,0.0338,0.0401,0.0475,0.0486,0.0409,0.0305,0.0242,0.0272,0.033,0.0363,0.0365,0.0349,0.0316,0.0297,0.0341,0.0393,0,0,0,0,0,0,0,0,0,0,0,0,0,0,0,0,0,0,0,0,0,0.0341,0.0255,0.0283,0.0404,0.0393,0.0423,0.0505,0.0552,0.0552,0.0508,0.0453,0.0439,0.045,0.0442,0.0393,0.0346,0.0357,0.0409,0.045,0.0478,0.0472,0.0428,0.0393,0.0382,0.036,0,0,0,0,0,0,0,0,0,0,0,0,0,0,0,0,0,0,0,0,0,0.0168,0.014,0.0143,0.0253,0.0305,0.036,0.0404,0.0409,0.0417,0.0417,0.039,0.0343,0.031,0.0288,0.0286,0.0324,0.0379,0.047,0.053,0.0511,0.047,0.042,0.0379,0.036,0.0332,0,0,0,0,0,0,0,0,0,0,0,0,0,0,0,0,0,0,0,0,0,0,-0.0052,-0.0036,0.0135,0.028,0.039,0.0478,0.0508,0.0472,0.0396,0.0319,0.0253,0.0209,0.0201,0.0255,0.0338,0.0371,0.0357,0.0357,0.0376,0.039,0.0396,0.0385,0.0357,0.0319,0,0,0,0,0,0,0,0,0,0,0,0,0,0,0,0,0,0,0,0,0,0,-0.0192,-0.0173,0.0,0.0179,0.0417,0.0615,0.0618,0.058,0.0571,0.0522,0.0423,0.0371,0.0363,0.0354,0.0321,0.0305,0.0302,0.0297,0.0297,0.0335,0.0379,0.0368,0.0335,0.0346,0,0,0,0,0,0,0,0,0,0,0,0,0,0,0,0,0,0,0,0,0,0,-0.0269,-0.025,-0.0071,0.0157,0.0472,0.0656,0.0654,0.0607,0.0552,0.0442,0.0286,0.0126,0.0047,0.0085,0.014,0.0187,0.0264,0.0341,0.0385,0.0371,0.0321,0.0321,0.0365,0.0236,0,0,0,0,0,0,0,0,0,0,0,0,0,0,0,0,0,0,0,0,0,0,-0.0316,-0.0313,-0.0118,0.0159,0.0483,0.0613,0.0588,0.0511,0.0387,0.0187,-0.0008,-0.0102,-0.006,0.006,0.017,0.0157,0.014,0.0181,0.0261,0.0324,0.0376,0.0407,0.0239,0.0102,0,0,0,0,0,0,0,0,0,0,0,0,0,0,0,0,0,0,0,0,0,0,-0.0371,-0.0354,-0.0187,0.0132,0.047,0.0522,0.0472,0.036,0.0198,0.0066,0.0058,0.0115,0.0165,0.017,0.017,0.0231,0.0302,0.0313,0.0272,0.0302,0.0374,0.0269,0.0181,0.0124,0,0,0,0,0,0,0,0,0,0,0,0,0,0,0,0,0,0,0,0,0,0,-0.0404,-0.0374,-0.0203,0.0217,0.0492,0.0459,0.0365,0.0321,0.0327,0.039,0.0478,0.0541,0.0602,0.0645,0.0588,0.0505,0.0464,0.0582,0.0744,0.0772,0.0618,0.0346,0.031,0.0349,0,0,0,0,0,0,0,0,0,0,0,0,0,0,0,0,0,0,0,0,0,0,-0.0404,-0.0371,-0.0192,0.0308,0.0478,0.0352,0.0264,0.0291,0.0374,0.0481,0.0566,0.0629,0.0684,0.0733,0.0775,0.0769,0.0637,0.0453,0.0536,0.0706,0.0725,0.07,0.0621,0.0472,0,0,0,0,0,0,0,0,0,0,0,0,0,0,0,0,0,0,0,0,0,0,-0.0382,-0.0363,-0.0135,0.0332,0.039,0.0272,0.0283,0.0415,0.0585,0.0731,0.0799,0.0799,0.0766,0.0747,0.081,0.0937,0.0893,0.0676,0.047,0.0492,0.0604,0.0604,0.0591,0.0503,0,0,0,0,0,0,0,0,0,0,0,0,0,0,0,0,0,0,0,0,0,0,-0.0368,-0.0363,-0.0074,0.0319,0.0428,0.0434,0.0593,0.0802,0.097,0.1055,0.1057,0.0981,0.0898,0.0851,0.0813,0.0838,0.0953,0.0926,0.0676,0.0511,0.0481,0.0486,0.0503,0.0437,0,0,0,0,0,0,0,0,0,0,0,0,0,0,0,0,0,0,0,0,0,0,-0.0401,-0.0371,-0.006,0.0346,0.0596,0.0761,0.0928,0.1123,0.1244,0.1302,0.1296,0.1217,0.1071,0.0948,0.0906,0.086,0.0887,0.0906,0.0709,0.0439,0.0324,0.0338,0.0338,0.0357,0,0,0,0,0,0,0,0,0,0,0,0,0,0,0,0,0,0,0,0,0,-0.0277,-0.036,-0.0412,-0.0052,0.0396,0.0777,0.1027,0.1192,0.1313,0.139,0.1447,0.1491,0.1478,0.1376,0.1181,0.1025,0.095,0.0887,0.0887,0.0769,0.0514,0.0382,0.0327,0.0316,0.0409,0,0,0,0,0,0,0,0,0,0,0,0,0,0,0,0,0,0,0,0,0,-0.0132,-0.0217,-0.0151,0.0266,0.0423,0.0744,0.0928,0.1101,0.1277,0.1428,0.1577,0.1719,0.1829,0.1829,0.1648,0.1329,0.1107,0.1005,0.0926,0.0851,0.0764,0.072,0.0645,0.0747,0.1025,0,0,0,0,0,0,0,0,0,0,0,0,0,0,0,0,0,0,0,0,0,0.0058,0.0003,0.0135,0.0236,0.0398,0.0544,0.0813,0.1156,0.1467,0.17,0.1854,0.1961,0.2076,0.2175,0.2148,0.1914,0.1555,0.1299,0.1165,0.1016,0.0906,0.1011,0.1228,0.1489,0.1662,0,0,0,0,0,0,0,0,0,0,0,0,0,0,0,0,0,0,0,0,0.0283,0.0261,0.0222,0.0192,0.0288,0.033,0.0717,0.1189,0.1585,0.1879,0.2049,0.2126,0.2145,0.2148,0.2173,0.2195,0.2153,0.1989,0.1747,0.153,0.12,0.0986,0.1261,0.1428,0.111,0.0692,0,0,0,0,0,0,0,0,0,0,0,0,0,0,0,0,0,0,0,0.0376,0.0398,0.0426,0.0519,0.0541,0.0514,0.0893,0.1349,0.175,0.2046,0.2233,0.2321,0.2332,0.2307,0.2269,0.2211,0.2137,0.2063,0.2049,0.2008,0.1851,0.1423,0.1005,0.1003,0.0893,0.0483,0.0135,0,0,0,0,0,0,0,0,0,0,0,0,0,0,0,0,0,0,0.0423,0.0492,0.0621,0.0972,0.0928,0.1134,0.1475,0.1818,0.2142,0.2354,0.2467,0.2527,0.2543,0.2494,0.2406,0.2318,0.2236,0.2151,0.2011,0.1934,0.1969,0.1934,0.1719,0.1398,0.1041,0.0893,0.0629,0.0,0,0,0,0,0,0,0,0,0,0,0,0,0,0,0,0,0,0.0382,0.0511,0.0695,0.0978,0.1538,0.2044,0.2401,0.2738,0.2986,0.3074,0.2983,0.281,0.2672,0.2557,0.2412,0.2274,0.2219,0.2239,0.2247,0.2137,0.1953,0.1901,0.189,0.1794,0.1722,0.1794,0.1673,0.0923,0.0027]},{"header":{"parameterUnit":"m.s-1","parameterCategory":2,"la1":30.5641,"la2":29.4642,"lo1":-89.4342,"lo2":-87.9343,"dy":0.0333,"dx":0.0333,"nx":46,"ny":34,"refTime":"2024-02-26T00:00:00:Z","depth":"15","parameterNumber":3,"parameterNumberName":"V-component_of_CURRENTS"},"data":[0,0,0,0,0,0,0,0,0,0,0,0,0,0,0,0,0,0,0,0,0,0,0,0,0,0,0,0,0,0,0,0,0,0,0,0,0,0,0,0,0,0,0,0,0,0,0,0,0,0,0,0,0,0,0,0,0,0,0,0,0,0,0,0,0,0,0,0,0,0,0,0,0,0,0,0,0,0,0,0,0,0,0,0,0,0,0,0,0,0,0,0,0,0,0,0,0,0,0,0,0,0,0,0,0,0,0,0,0,0,0,0,0,0,0,0,0,0,0,0,0,0,0,0,0,0,0,0,0,0,0,0,0,0,0,0,0,0,0,0,0,0,0,0,0,0,0,0,0,0,0,0,0,0,0,0,0,0,0,0,0,0,0,0,0,0,0,0,0,0,0,0,0,0,0,0,0,0,0,0,0,0,0,0,0,0,0,0,0,0,0,0,0,0,0,0,0,0,0,0,0,0,0,0,0,0,0,0,0,0,0,0,0,0,0,0,0,0,0,0,0,0,0,0,0,0,0,0,0,0,0,0,0,0,0,0,0,0,0,0,0,0,0,0,0,0,0,0,0,0,0,0,0,0,0,0,0,0,0,0,0,0,0,0,0,0,0,0,0,0,0,0,0,0,0,0,0,0,0,0,0,0,0,0,0,0,0,0,0,0,0,0,0,0,0,0,0,0,0,0,0,0,0,0,0,0,0,0,0,0,0,0,0,0,0,0,0,0,0,0,0,0,0,0,0,0,0,0,0,0,0,0,0,0,0,0,0,0,0,0,0,0,0,0,0,0,0,0,0,0,0,0,0,0,0,0,0,0,0,0,0,0,0,0,0,0,0,0,0,0,0,0,0,0,0,0,0,0,0,0,0,0,0,0,0,0,0,0,0,0,0,0,0,0,0,0,0,0,0,0,0,0,0,0,0,0,0,0,0,0,0,0,0,0,0,0,0,0,0,0,0,0,0,0,0,0,0,0,0,0,0,0,0,0,0,0,0,0,0,0,0,0,0,0,0,0,0,0,0,0,0,0,0,0,0,0,0,0,0,0,0,0,0,0,0,0,0,0,0,0,0,0,0,0,0,0,0,0,0,0,0,0,0,0,0,0,0,0,0,0,0,0,0,0,0,0,0,0,0,0,0,0,0,0,0,0,0,0,0,0,0,0,0,0,0,0,0,0,0,0,0,0,0,0,0,0,0,0,0,0,0,0,0,0,0,0,0,0,0,0,0,0,0,0,0,0,0,0,0,0,0,0,0,0,0,0,0,0,0,0,0,0,0,0,0,0,0,0,0,0,0,0,0,0,0,0,0,0,0,0,0,0,0,0,0,0,0,0.0071,-0.0036,0,0,0,0,0,0,0,0,0,0,0,0,0,0,0,0,0,0,0,0,0,0,0,0,0,0,0,0,0,0,0,0,-0.0014,-0.0014,0,0,0,0,0,0,0.0217,0.0159,0.0085,0.0,-0.0052,-0.0165,-0.0181,-0.0159,-0.0129,0,0,0,0,0,0,0,0,0,0,0,0,0,0,0,0,0,0,0,0,0,0,0,0,0,0,0,0,-0.0143,-0.0137,0.0,0.0154,0.0132,0.0115,0.0195,0.0247,0.0239,0.0176,0.006,-0.0019,-0.0041,-0.0066,-0.0135,-0.0151,-0.0146,-0.0124,-0.0132,-0.0107,-0.0066,0.0008,0.0041,0.0115,0,0,0,0,0,0,0,0,0,0,0,0,0,0,0,0,0,0,0,0,0,-0.0327,-0.0266,-0.0201,-0.0014,0.025,0.0206,0.0151,0.0184,0.0195,0.0104,0.0008,-0.0019,-0.003,-0.0011,-0.0025,-0.0082,-0.0115,-0.0104,-0.0088,-0.0063,0.0003,0.0025,0.0069,0.0146,0.0261,0,0,0,0,0,0,0,0,0,0,0,0,0,0,0,0,0,0,0,0,0,-0.0439,-0.0376,-0.0195,0.0102,0.0409,0.0483,0.0439,0.0382,0.0272,0.011,-0.0033,-0.0077,-0.0077,-0.0077,-0.0107,-0.0173,-0.0203,-0.017,-0.0082,-0.0022,0.0019,0.0063,0.0132,0.0233,0.0316,0,0,0,0,0,0,0,0,0,0,0,0,0,0,0,0,0,0,0,0,0,0,-0.0368,-0.0165,0.0143,0.036,0.0475,0.0544,0.0569,0.0503,0.0379,0.0266,0.0146,0.006,-0.0014,-0.0058,-0.0082,-0.0077,-0.0052,-0.003,-0.0049,-0.0071,-0.0047,0.006,0.0151,0.0211,0,0,0,0,0,0,0,0,0,0,0,0,0,0,0,0,0,0,0,0,0,0,-0.0299,-0.014,0.0113,0.0313,0.0525,0.0588,0.0582,0.0574,0.0566,0.0547,0.0486,0.042,0.0349,0.0277,0.025,0.0222,0.0124,0.0019,-0.008,-0.0159,-0.0157,-0.0077,0.0003,0.0159,0,0,0,0,0,0,0,0,0,0,0,0,0,0,0,0,0,0,0,0,0,0,-0.0231,-0.0102,0.011,0.0313,0.0505,0.0574,0.0582,0.0588,0.061,0.0673,0.0731,0.0736,0.0651,0.0525,0.0431,0.0332,0.0319,0.0253,0.0217,-0.0005,-0.0157,-0.0154,0.0014,0.05,0,0,0,0,0,0,0,0,0,0,0,0,0,0,0,0,0,0,0,0,0,0,-0.0157,-0.0049,0.0148,0.0365,0.0511,0.0582,0.0571,0.0544,0.0503,0.0464,0.0448,0.0376,0.0217,0.0082,0.0074,0.0088,0.0162,0.0253,0.0316,0.0209,-0.0044,-0.0124,0.0129,0.0505,0,0,0,0,0,0,0,0,0,0,0,0,0,0,0,0,0,0,0,0,0,0,-0.0077,-0.0011,0.0181,0.0431,0.0533,0.0599,0.0549,0.0461,0.0338,0.0206,0.0159,0.0099,0.0025,-0.0047,-0.0085,-0.0115,-0.0162,-0.0143,-0.0063,-0.0025,-0.0099,-0.0162,-0.0052,0.0135,0,0,0,0,0,0,0,0,0,0,0,0,0,0,0,0,0,0,0,0,0,0,-0.0011,0.0016,0.0239,0.0456,0.0571,0.0681,0.0629,0.0497,0.0341,0.0239,0.0253,0.0261,0.0244,0.0159,0.0011,-0.0154,-0.0211,-0.0286,-0.0242,-0.0198,-0.0332,-0.0478,-0.0481,-0.0126,0,0,0,0,0,0,0,0,0,0,0,0,0,0,0,0,0,0,0,0,0,0,0.0047,0.0058,0.0349,0.0486,0.0621,0.0725,0.0648,0.0527,0.0434,0.0437,0.0511,0.0563,0.0525,0.0376,0.0159,-0.0011,-0.0074,-0.0195,-0.0316,-0.0255,-0.0431,-0.0755,-0.0728,-0.0341,0,0,0,0,0,0,0,0,0,0,0,0,0,0,0,0,0,0,0,0,0,0,0.0082,0.0102,0.0431,0.0481,0.0547,0.0552,0.045,0.0448,0.0519,0.0643,0.0766,0.0832,0.0786,0.0599,0.0321,0.006,-0.0038,-0.0126,-0.0357,-0.0352,-0.0431,-0.0736,-0.0769,-0.0472,0,0,0,0,0,0,0,0,0,0,0,0,0,0,0,0,0,0,0,0,0,0,0.0096,0.0132,0.0442,0.0407,0.0368,0.0302,0.0264,0.036,0.0505,0.0643,0.075,0.0843,0.0873,0.0766,0.0489,0.0074,-0.0184,-0.0231,-0.0313,-0.0494,-0.0555,-0.0662,-0.075,-0.0571,0,0,0,0,0,0,0,0,0,0,0,0,0,0,0,0,0,0,0,0,0,0,0.0091,0.0181,0.047,0.0417,0.033,0.0253,0.0288,0.0352,0.0428,0.0483,0.0536,0.061,0.0684,0.0684,0.0525,0.0159,-0.033,-0.0478,-0.0428,-0.0673,-0.0829,-0.0673,-0.0736,-0.0604,0,0,0,0,0,0,0,0,0,0,0,0,0,0,0,0,0,0,0,0,0,0.0165,0.0066,0.0239,0.0527,0.0494,0.0423,0.0442,0.0459,0.0497,0.0552,0.056,0.0536,0.0497,0.0459,0.0475,0.0404,0.0157,-0.0445,-0.0838,-0.0744,-0.0934,-0.1066,-0.0733,-0.0709,-0.0558,0,0,0,0,0,0,0,0,0,0,0,0,0,0,0,0,0,0,0,0,0,0.0168,0.011,0.0288,0.0527,0.0445,0.0563,0.0629,0.0678,0.0758,0.0862,0.0851,0.0777,0.0673,0.05,0.0316,0.0211,0.0077,-0.0417,-0.1159,-0.1239,-0.1241,-0.1151,-0.0791,-0.0714,-0.0483,0,0,0,0,0,0,0,0,0,0,0,0,0,0,0,0,0,0,0,0,0,0.017,0.0203,0.0368,0.0385,0.0412,0.0591,0.0717,0.089,0.1038,0.1099,0.106,0.0972,0.084,0.0634,0.0294,0.0019,-0.0104,-0.0385,-0.1187,-0.1689,-0.1675,-0.12,-0.0698,-0.0467,-0.0343,0,0,0,0,0,0,0,0,0,0,0,0,0,0,0,0,0,0,0,0,0.0195,0.0179,0.0247,0.0349,0.0264,0.0585,0.0761,0.1041,0.1217,0.1244,0.1165,0.1049,0.0926,0.0761,0.0536,0.019,-0.0222,-0.0459,-0.0607,-0.1107,-0.198,-0.2236,-0.1165,-0.0492,-0.0346,-0.0621,0,0,0,0,0,0,0,0,0,0,0,0,0,0,0,0,0,0,0,0.0231,0.0228,0.0231,0.0231,0.0225,0.058,0.092,0.1231,0.1398,0.1409,0.1272,0.1066,0.0879,0.0733,0.0577,0.0341,-0.0016,-0.0527,-0.0956,-0.1079,-0.1269,-0.22,-0.2716,-0.1401,-0.0665,-0.0832,-0.1255,0,0,0,0,0,0,0,0,0,0,0,0,0,0,0,0,0,0,0.0288,0.0321,0.0343,0.0324,0.0211,0.0673,0.0972,0.1225,0.1387,0.1417,0.1313,0.1112,0.0865,0.0667,0.056,0.0453,0.0236,-0.014,-0.07,-0.1335,-0.1568,-0.1621,-0.2403,-0.3016,-0.2302,-0.1505,-0.1382,-0.1475,0,0,0,0,0,0,0,0,0,0,0,0,0,0,0,0,0,0.0332,0.0415,0.0497,0.0547,0.0577,0.1046,0.1156,0.1247,0.1313,0.1332,0.1261,0.109,0.0838,0.058,0.0453,0.0453,0.0423,0.0225,-0.011,-0.0585,-0.1291,-0.1838,-0.2074,-0.2722,-0.3398,-0.3439,-0.2513,-0.1859,-0.1475]}],[{"header":{"parameterUnit":"m.s-1","parameterCategory":2,"la1":30.5641,"la2":29.4642,"lo1":-89.4342,"lo2":-87.9343,"dy":0.0333,"dx":0.0333,"nx":46,"ny":34,"refTime":"2024-02-26T00:00:00:Z","depth":"20","parameterNumber":2,"parameterNumberName":"U-component_of_CURRENTS"},"data":[0,0,0,0,0,0,0,0,0,0,0,0,0,0,0,0,0,0,0,0,0,0,0,0,0,0,0,0,0,0,0,0,0,0,0,0,0,0,0,0,0,0,0,0,0,0,0,0,0,0,0,0,0,0,0,0,0,0,0,0,0,0,0,0,0,0,0,0,0,0,0,0,0,0,0,0,0,0,0,0,0,0,0,0,0,0,0,0,0,0,0,0,0,0,0,0,0,0,0,0,0,0,0,0,0,0,0,0,0,0,0,0,0,0,0,0,0,0,0,0,0,0,0,0,0,0,0,0,0,0,0,0,0,0,0,0,0,0,0,0,0,0,0,0,0,0,0,0,0,0,0,0,0,0,0,0,0,0,0,0,0,0,0,0,0,0,0,0,0,0,0,0,0,0,0,0,0,0,0,0,0,0,0,0,0,0,0,0,0,0,0,0,0,0,0,0,0,0,0,0,0,0,0,0,0,0,0,0,0,0,0,0,0,0,0,0,0,0,0,0,0,0,0,0,0,0,0,0,0,0,0,0,0,0,0,0,0,0,0,0,0,0,0,0,0,0,0,0,0,0,0,0,0,0,0,0,0,0,0,0,0,0,0,0,0,0,0,0,0,0,0,0,0,0,0,0,0,0,0,0,0,0,0,0,0,0,0,0,0,0,0,0,0,0,0,0,0,0,0,0,0,0,0,0,0,0,0,0,0,0,0,0,0,0,0,0,0,0,0,0,0,0,0,0,0,0,0,0,0,0,0,0,0,0,0,0,0,0,0,0,0,0,0,0,0,0,0,0,0,0,0,0,0,0,0,0,0,0,0,0,0,0,0,0,0,0,0,0,0,0,0,0,0,0,0,0,0,0,0,0,0,0,0,0,0,0,0,0,0,0,0,0,0,0,0,0,0,0,0,0,0,0,0,0,0,0,0,0,0,0,0,0,0,0,0,0,0,0,0,0,0,0,0,0,0,0,0,0,0,0,0,0,0,0,0,0,0,0,0,0,0,0,0,0,0,0,0,0,0,0,0,0,0,0,0,0,0,0,0,0,0,0,0,0,0,0,0,0,0,0,0,0,0,0,0,0,0,0,0,0,0,0,0,0,0,0,0,0,0,0,0,0,0,0,0,0,0,0,0,0,0,0,0,0,0,0,0,0,0,0,0,0,0,0,0,0,0,0,0,0,0,0,0,0,0,0,0,0,0,0,0,0,0,0,0,0,0,0,0,0,0,0,0,0,0,0,0,0,0,0,0,0,0,0,0,0,0,0,0,0,0,0,0,0,0,0,0,0,0,0,0,0,0,0,0,0,0,0,0,0,0,0,0,0,0,0,0,0,0,0,0,0,0,0,0,0,0,0,0,0,0,0,0,0,0,0,0,0,0,0,0,0,0,0,0,0,0,0,0,0,0,0,0,0,0,0,0,0,0,0,0,0,0,0,0,0,0,0,0,0,0,0,0,0,0,0,0,0,0,0,0,0,0,0,0,0,0,0,0,0,0,0,0,0,0,0,0,0,0,0,0,0,0,0,0,0,0,0,0,0,0,0,0,0,0,0,0,0,0,0,0,0,0,0,0,0,0,0,0,0,0,0,0,0,0,0,0,0,0,0,0,0,0,0,0,0,0,0,0,0,0,0,0,0.0412,0.0407,0.0363,0,0,0,0,0,0,0,0,0,0,0,0,0,0,0,0,0,0,0,0,0,0,0,0,0,0,0,0,0,0,0,0,0,0,0,0.0184,0.0231,0.0266,0.0308,0.0338,0.0346,0.0354,0.0374,0.0404,0.0417,0.0407,0.0396,0.0412,0.045,0.0461,0.0437,0,0,0,0,0,0,0,0,0,0,0,0,0,0,0,0,0,0,0,0,0,0,0,0,0,0,0,0,0,0.0005,0.0055,0.0124,0.0179,0.0242,0.0302,0.0335,0.0363,0.0385,0.0412,0.045,0.0489,0.0516,0.053,0.0527,0.0489,0.0423,0.0387,0.0368,0.0349,0.031,0.028,0,0,0,0,0,0,0,0,0,0,0,0,0,0,0,0,0,0,0,0,0,0,0,0,-0.0099,-0.006,0.0022,0.0096,0.0168,0.0231,0.0253,0.0291,0.0363,0.045,0.0516,0.0552,0.0549,0.0541,0.0544,0.0563,0.0585,0.0582,0.0541,0.0478,0.0393,0.0349,0,0,0,0,0,0,0,0,0,0,0,0,0,0,0,0,0,0,0,0,0,0,0,0,-0.0157,-0.0113,-0.0033,0.0069,0.0211,0.0341,0.0417,0.0481,0.0494,0.0417,0.0324,0.0275,0.0305,0.0382,0.0467,0.0549,0.0602,0.0613,0.0593,0.0522,0.0478,0.0363,0,0,0,0,0,0,0,0,0,0,0,0,0,0,0,0,0,0,0,0,0,0,0,0,-0.0201,-0.014,-0.006,0.0049,0.0277,0.0472,0.0558,0.0541,0.0407,0.0228,0.0091,0.0058,0.0137,0.0244,0.0327,0.0371,0.0481,0.0629,0.0621,0.0571,0.0431,0.0129,0,0,0,0,0,0,0,0,0,0,0,0,0,0,0,0,0,0,0,0,0,0,0,0,-0.025,-0.019,-0.0096,0.0088,0.039,0.0519,0.0525,0.0503,0.0492,0.0483,0.0472,0.042,0.0343,0.0294,0.0352,0.045,0.053,0.0632,0.0673,0.0536,0.0346,0.0176,0,0,0,0,0,0,0,0,0,0,0,0,0,0,0,0,0,0,0,0,0,0,0,0,-0.0286,-0.0231,-0.0102,0.0272,0.053,0.0497,0.0434,0.0456,0.0541,0.0623,0.07,0.0788,0.081,0.0709,0.0591,0.0593,0.0654,0.0623,0.053,0.0503,0.0461,0.0365,0,0,0,0,0,0,0,0,0,0,0,0,0,0,0,0,0,0,0,0,0,0,0,0,-0.0288,-0.0214,0.0049,0.0417,0.0483,0.0404,0.0376,0.0428,0.0538,0.0634,0.07,0.0758,0.086,0.0912,0.0753,0.0503,0.0481,0.061,0.064,0.0552,0.0503,0.039,0,0,0,0,0,0,0,0,0,0,0,0,0,0,0,0,0,0,0,0,0,0,0,0,0,-0.0192,0.0159,0.0288,0.0266,0.0327,0.0396,0.0478,0.0593,0.0703,0.0755,0.078,0.0832,0.0939,0.0948,0.0717,0.0439,0.0385,0.0475,0.0494,0.0445,0.0286,0,0,0,0,0,0,0,0,0,0,0,0,0,0,0,0,0,0,0,0,0,0,0,0,0,-0.0209,0.0154,0.0181,0.0302,0.039,0.0519,0.0615,0.0659,0.0684,0.0709,0.0744,0.078,0.0849,0.0986,0.0959,0.0676,0.0437,0.0385,0.0387,0.0352,0.0239,0,0,0,0,0,0,0,0,0,0,0,0,0,0,0,0,0,0,0,0,0,0,0,0,0,-0.0236,0.0146,0.0308,0.0505,0.0615,0.0662,0.0665,0.07,0.07,0.0659,0.0643,0.0676,0.0755,0.0893,0.0983,0.0783,0.045,0.0291,0.028,0.028,0.0222,0,0,0,0,0,0,0,0,0,0,0,0,0,0,0,0,0,0,0,0,0,0,0,0,0,-0.0181,0.0412,0.0673,0.0783,0.0821,0.0816,0.0857,0.0915,0.0904,0.078,0.0654,0.0585,0.0593,0.0692,0.0887,0.0879,0.0599,0.042,0.0461,0.047,0.0412,0,0,0,0,0,0,0,0,0,0,0,0,0,0,0,0,0,0,0,0,0,0,0,0,0,-0.0071,0.056,0.0755,0.0816,0.0862,0.0898,0.0915,0.1063,0.1173,0.111,0.0912,0.0722,0.0621,0.0599,0.0731,0.0909,0.089,0.0838,0.0819,0.0794,0.0838,0,0,0,0,0,0,0,0,0,0,0,0,0,0,0,0,0,0,0,0,0,0,0,0,-0.0154,0.0179,0.0599,0.0607,0.0739,0.092,0.1057,0.122,0.136,0.1406,0.1395,0.1346,0.1137,0.0854,0.0722,0.0736,0.0843,0.0978,0.1118,0.1162,0.1178,0.1187,0,0,0,0,0,0,0,0,0,0,0,0,0,0,0,0,0,0,0,0,0,0,0,0,-0.0025,0.0497,0.0478,0.0733,0.1068,0.1296,0.1428,0.1497,0.1522,0.1574,0.167,0.1736,0.1673,0.1373,0.1068,0.0953,0.0857,0.0967,0.1228,0.109,0.0607,0.0124,0,0,0,0,0,0,0,0,0,0,0,0,0,0,0,0,0,0,0,0,0,0,0.0352,0.0266,0.0739,0.0725,0.0972,0.1351,0.1618,0.1769,0.1832,0.1843,0.1843,0.1832,0.1827,0.1857,0.1895,0.1747,0.1431,0.1167,0.0835,0.0755,0.0893,0.0604,0.0209,0.0025,0,0,0,0,0,0,0,0,0,0,0,0,0,0,0,0,0,0,0,0,0,0.0626,0.0728,0.1093,0.1167,0.1395,0.1692,0.1923,0.2052,0.2096,0.209,0.2065,0.203,0.1936,0.1791,0.1711,0.1777,0.1813,0.1637,0.134,0.1022,0.0857,0.0904,0.1096,0.0981,0.045,0,0,0,0,0,0,0,0,0,0,0,0,0,0,0,0,0,0,0,0.0602,0.0753,0.0964,0.1225,0.1796,0.2126,0.2258,0.2343,0.2346,0.2277,0.2189,0.2115,0.206,0.2008,0.1909,0.1761,0.1648,0.167,0.1752,0.173,0.1513,0.1241,0.1115,0.1255,0.1214,0.067,0.0236]},{"header":{"parameterUnit":"m.s-1","parameterCategory":2,"la1":30.5641,"la2":29.4642,"lo1":-89.4342,"lo2":-87.9343,"dy":0.0333,"dx":0.0333,"nx":46,"ny":34,"refTime":"2024-02-26T00:00:00:Z","depth":"20","parameterNumber":3,"parameterNumberName":"V-component_of_CURRENTS"},"data":[0,0,0,0,0,0,0,0,0,0,0,0,0,0,0,0,0,0,0,0,0,0,0,0,0,0,0,0,0,0,0,0,0,0,0,0,0,0,0,0,0,0,0,0,0,0,0,0,0,0,0,0,0,0,0,0,0,0,0,0,0,0,0,0,0,0,0,0,0,0,0,0,0,0,0,0,0,0,0,0,0,0,0,0,0,0,0,0,0,0,0,0,0,0,0,0,0,0,0,0,0,0,0,0,0,0,0,0,0,0,0,0,0,0,0,0,0,0,0,0,0,0,0,0,0,0,0,0,0,0,0,0,0,0,0,0,0,0,0,0,0,0,0,0,0,0,0,0,0,0,0,0,0,0,0,0,0,0,0,0,0,0,0,0,0,0,0,0,0,0,0,0,0,0,0,0,0,0,0,0,0,0,0,0,0,0,0,0,0,0,0,0,0,0,0,0,0,0,0,0,0,0,0,0,0,0,0,0,0,0,0,0,0,0,0,0,0,0,0,0,0,0,0,0,0,0,0,0,0,0,0,0,0,0,0,0,0,0,0,0,0,0,0,0,0,0,0,0,0,0,0,0,0,0,0,0,0,0,0,0,0,0,0,0,0,0,0,0,0,0,0,0,0,0,0,0,0,0,0,0,0,0,0,0,0,0,0,0,0,0,0,0,0,0,0,0,0,0,0,0,0,0,0,0,0,0,0,0,0,0,0,0,0,0,0,0,0,0,0,0,0,0,0,0,0,0,0,0,0,0,0,0,0,0,0,0,0,0,0,0,0,0,0,0,0,0,0,0,0,0,0,0,0,0,0,0,0,0,0,0,0,0,0,0,0,0,0,0,0,0,0,0,0,0,0,0,0,0,0,0,0,0,0,0,0,0,0,0,0,0,0,0,0,0,0,0,0,0,0,0,0,0,0,0,0,0,0,0,0,0,0,0,0,0,0,0,0,0,0,0,0,0,0,0,0,0,0,0,0,0,0,0,0,0,0,0,0,0,0,0,0,0,0,0,0,0,0,0,0,0,0,0,0,0,0,0,0,0,0,0,0,0,0,0,0,0,0,0,0,0,0,0,0,0,0,0,0,0,0,0,0,0,0,0,0,0,0,0,0,0,0,0,0,0,0,0,0,0,0,0,0,0,0,0,0,0,0,0,0,0,0,0,0,0,0,0,0,0,0,0,0,0,0,0,0,0,0,0,0,0,0,0,0,0,0,0,0,0,0,0,0,0,0,0,0,0,0,0,0,0,0,0,0,0,0,0,0,0,0,0,0,0,0,0,0,0,0,0,0,0,0,0,0,0,0,0,0,0,0,0,0,0,0,0,0,0,0,0,0,0,0,0,0,0,0,0,0,0,0,0,0,0,0,0,0,0,0,0,0,0,0,0,0,0,0,0,0,0,0,0,0,0,0,0,0,0,0,0,0,0,0,0,0,0,0,0,0,0,0,0,0,0,0,0,0,0,0,0,0,0,0,0,0,0,0,0,0,0,0,0,0,0,0,0,0,0,0,0,0,0,0,0,0,0,0,0,0,0,0,0,0,0,0,0,0,0,0,0,0,0,0,0,0,0,0,0,0,0,0,0,0,0,0,0,0,0,0,0,0,0,0,0,0,0,0,0,0,0,0,0,0,0,0,0.0005,0.0022,0.0025,0,0,0,0,0,0,0,0,0,0,0,0,0,0,0,0,0,0,0,0,0,0,0,0,0,0,0,0,0,0,0,0,0,0,0,-0.006,-0.0063,-0.0077,-0.0069,-0.0044,-0.0033,-0.0027,-0.0003,0.003,0.0047,0.0038,-0.0005,-0.0052,-0.0066,-0.0036,0.0003,0,0,0,0,0,0,0,0,0,0,0,0,0,0,0,0,0,0,0,0,0,0,0,0,0,0,0,0,0,-0.0129,-0.008,-0.0071,-0.0096,-0.0093,-0.0074,-0.0036,-0.0016,0.0003,0.0008,-0.0003,-0.0027,-0.0055,-0.0077,-0.0093,-0.0055,-0.0003,0.0025,0.0049,0.0107,0.0198,0.0222,0,0,0,0,0,0,0,0,0,0,0,0,0,0,0,0,0,0,0,0,0,0,0,0,-0.0104,-0.0049,-0.0033,-0.0049,-0.0005,0.0063,0.0074,0.0066,0.0049,0.0019,-0.0005,-0.0022,-0.0047,-0.0091,-0.0135,-0.0132,-0.0121,-0.0082,-0.0036,0.0041,0.0118,0.0107,0,0,0,0,0,0,0,0,0,0,0,0,0,0,0,0,0,0,0,0,0,0,0,0,-0.0058,-0.0016,-0.0003,0.0,0.0143,0.0291,0.0365,0.0415,0.0461,0.0396,0.0275,0.014,0.0016,-0.0099,-0.0162,-0.0148,-0.0154,-0.0209,-0.0181,-0.0099,-0.0074,0.0102,0,0,0,0,0,0,0,0,0,0,0,0,0,0,0,0,0,0,0,0,0,0,0,0,-0.0036,-0.0008,0.0005,0.0055,0.028,0.0475,0.0607,0.0676,0.0667,0.0569,0.042,0.0222,0.0,-0.0184,-0.0217,-0.0168,-0.0132,-0.0231,-0.0332,-0.0305,-0.0192,0.0104,0,0,0,0,0,0,0,0,0,0,0,0,0,0,0,0,0,0,0,0,0,0,0,0,-0.0044,-0.0022,0.0022,0.0148,0.0456,0.0643,0.0695,0.0645,0.0536,0.0434,0.0346,0.022,0.0041,-0.0135,-0.017,-0.0126,-0.0113,-0.0195,-0.0412,-0.0456,-0.0313,-0.0077,0,0,0,0,0,0,0,0,0,0,0,0,0,0,0,0,0,0,0,0,0,0,0,0,-0.0044,-0.0038,0.011,0.0308,0.0615,0.072,0.0684,0.0566,0.0492,0.0486,0.047,0.0415,0.0236,-0.0011,-0.0115,-0.014,-0.0253,-0.0291,-0.0574,-0.0599,-0.0461,-0.0239,0,0,0,0,0,0,0,0,0,0,0,0,0,0,0,0,0,0,0,0,0,0,0,0,-0.0025,-0.0003,0.0201,0.0464,0.0648,0.0695,0.0673,0.0588,0.0558,0.0602,0.0626,0.0574,0.042,0.0173,-0.0058,-0.0228,-0.0426,-0.0417,-0.064,-0.0742,-0.0566,-0.0258,0,0,0,0,0,0,0,0,0,0,0,0,0,0,0,0,0,0,0,0,0,0,0,0,0,0.0016,0.0192,0.0494,0.0538,0.0593,0.0563,0.0514,0.0549,0.0645,0.0714,0.0684,0.056,0.042,0.0148,-0.0187,-0.0417,-0.0459,-0.0599,-0.0788,-0.0761,-0.0324,0,0,0,0,0,0,0,0,0,0,0,0,0,0,0,0,0,0,0,0,0,0,0,0,0,-0.0038,0.0126,0.0407,0.0423,0.0472,0.0478,0.0442,0.0426,0.0505,0.0648,0.0706,0.0643,0.05,0.0291,-0.0066,-0.0431,-0.058,-0.0654,-0.0725,-0.0791,-0.0365,0,0,0,0,0,0,0,0,0,0,0,0,0,0,0,0,0,0,0,0,0,0,0,0,0,-0.0025,0.0143,0.0305,0.0385,0.0456,0.0525,0.0456,0.0354,0.0319,0.0442,0.0582,0.0577,0.0459,0.0294,-0.0038,-0.0483,-0.0786,-0.0824,-0.0722,-0.0764,-0.0407,0,0,0,0,0,0,0,0,0,0,0,0,0,0,0,0,0,0,0,0,0,0,0,0,0,0.0168,0.0299,0.0319,0.0387,0.0566,0.064,0.0577,0.0412,0.0261,0.0253,0.0437,0.0464,0.033,0.0124,-0.0173,-0.0541,-0.0972,-0.0986,-0.0742,-0.0632,-0.0404,0,0,0,0,0,0,0,0,0,0,0,0,0,0,0,0,0,0,0,0,0,0,0,0,0,0.0321,0.05,0.0519,0.0593,0.0703,0.0805,0.0755,0.0569,0.0294,0.0173,0.0288,0.0374,0.0258,-0.0025,-0.0423,-0.0733,-0.1123,-0.1038,-0.067,-0.0508,-0.0442,0,0,0,0,0,0,0,0,0,0,0,0,0,0,0,0,0,0,0,0,0,0,0,0,0.0376,0.0497,0.0407,0.0571,0.0802,0.0854,0.0895,0.0794,0.0621,0.0431,0.0297,0.0201,0.0222,0.0179,-0.0085,-0.0607,-0.1041,-0.1269,-0.106,-0.0643,-0.0486,-0.0558,0,0,0,0,0,0,0,0,0,0,0,0,0,0,0,0,0,0,0,0,0,0,0,0,0.0547,0.0371,0.0591,0.0854,0.1052,0.1107,0.1057,0.0956,0.084,0.0747,0.0602,0.033,0.0115,-0.0005,-0.0195,-0.0621,-0.1313,-0.1519,-0.114,-0.075,-0.0549,-0.0766,0,0,0,0,0,0,0,0,0,0,0,0,0,0,0,0,0,0,0,0,0,0,0.0343,0.0549,0.0541,0.0593,0.0917,0.1233,0.1398,0.1404,0.1294,0.1134,0.0981,0.0819,0.0645,0.0379,-0.0011,-0.0305,-0.0423,-0.0656,-0.1511,-0.1851,-0.1285,-0.0824,-0.0846,-0.1159,0,0,0,0,0,0,0,0,0,0,0,0,0,0,0,0,0,0,0,0,0,0.0371,0.0547,0.0689,0.0613,0.0961,0.1307,0.1511,0.1566,0.1478,0.1288,0.1074,0.0895,0.0725,0.0516,0.0214,-0.0247,-0.067,-0.0753,-0.0824,-0.1637,-0.2065,-0.1706,-0.1211,-0.1093,-0.1299,0,0,0,0,0,0,0,0,0,0,0,0,0,0,0,0,0,0,0,0.0445,0.0511,0.0676,0.0819,0.0791,0.1068,0.128,0.1431,0.1478,0.142,0.1269,0.1071,0.0912,0.081,0.0681,0.0464,0.0159,-0.0297,-0.0843,-0.1085,-0.1217,-0.1887,-0.2315,-0.2362,-0.1879,-0.1437,-0.136]}],[{"header":{"parameterUnit":"m.s-1","parameterCategory":2,"la1":30.5641,"la2":29.4642,"lo1":-89.4342,"lo2":-87.9343,"dy":0.0333,"dx":0.0333,"nx":46,"ny":34,"refTime":"2024-02-26T00:00:00:Z","depth":"25","parameterNumber":2,"parameterNumberName":"U-component_of_CURRENTS"},"data":[0,0,0,0,0,0,0,0,0,0,0,0,0,0,0,0,0,0,0,0,0,0,0,0,0,0,0,0,0,0,0,0,0,0,0,0,0,0,0,0,0,0,0,0,0,0,0,0,0,0,0,0,0,0,0,0,0,0,0,0,0,0,0,0,0,0,0,0,0,0,0,0,0,0,0,0,0,0,0,0,0,0,0,0,0,0,0,0,0,0,0,0,0,0,0,0,0,0,0,0,0,0,0,0,0,0,0,0,0,0,0,0,0,0,0,0,0,0,0,0,0,0,0,0,0,0,0,0,0,0,0,0,0,0,0,0,0,0,0,0,0,0,0,0,0,0,0,0,0,0,0,0,0,0,0,0,0,0,0,0,0,0,0,0,0,0,0,0,0,0,0,0,0,0,0,0,0,0,0,0,0,0,0,0,0,0,0,0,0,0,0,0,0,0,0,0,0,0,0,0,0,0,0,0,0,0,0,0,0,0,0,0,0,0,0,0,0,0,0,0,0,0,0,0,0,0,0,0,0,0,0,0,0,0,0,0,0,0,0,0,0,0,0,0,0,0,0,0,0,0,0,0,0,0,0,0,0,0,0,0,0,0,0,0,0,0,0,0,0,0,0,0,0,0,0,0,0,0,0,0,0,0,0,0,0,0,0,0,0,0,0,0,0,0,0,0,0,0,0,0,0,0,0,0,0,0,0,0,0,0,0,0,0,0,0,0,0,0,0,0,0,0,0,0,0,0,0,0,0,0,0,0,0,0,0,0,0,0,0,0,0,0,0,0,0,0,0,0,0,0,0,0,0,0,0,0,0,0,0,0,0,0,0,0,0,0,0,0,0,0,0,0,0,0,0,0,0,0,0,0,0,0,0,0,0,0,0,0,0,0,0,0,0,0,0,0,0,0,0,0,0,0,0,0,0,0,0,0,0,0,0,0,0,0,0,0,0,0,0,0,0,0,0,0,0,0,0,0,0,0,0,0,0,0,0,0,0,0,0,0,0,0,0,0,0,0,0,0,0,0,0,0,0,0,0,0,0,0,0,0,0,0,0,0,0,0,0,0,0,0,0,0,0,0,0,0,0,0,0,0,0,0,0,0,0,0,0,0,0,0,0,0,0,0,0,0,0,0,0,0,0,0,0,0,0,0,0,0,0,0,0,0,0,0,0,0,0,0,0,0,0,0,0,0,0,0,0,0,0,0,0,0,0,0,0,0,0,0,0,0,0,0,0,0,0,0,0,0,0,0,0,0,0,0,0,0,0,0,0,0,0,0,0,0,0,0,0,0,0,0,0,0,0,0,0,0,0,0,0,0,0,0,0,0,0,0,0,0,0,0,0,0,0,0,0,0,0,0,0,0,0,0,0,0,0,0,0,0,0,0,0,0,0,0,0,0,0,0,0,0,0,0,0,0,0,0,0,0,0,0,0,0,0,0,0,0,0,0,0,0,0,0,0,0,0,0,0,0,0,0,0,0,0,0,0,0,0,0,0,0,0,0,0,0,0,0,0,0,0,0,0,0,0,0,0,0,0,0,0,0,0,0,0,0,0,0,0,0,0,0,0,0,0,0,0,0,0,0,0,0,0,0,0,0,0,0,0,0,0,0,0,0,0,0,0,0,0,0,0,0,0,0,0,0,0,0,0,0,0,0,0,0,0,0,0,0,0,0,0,0,0,0,0,0,0,0,0,0,0,0,0,0,0,0,0,0,0,0,0,0,0,0,0,0,0,0,0,0,0,0,0,0,0,0,0,0,0,0,0,0,0,0,0,0,0,0,0,0,0,0,0,0,0,0,0,0,0,0,0,0,0,0,0,0,0,0,0,0,0,0,0,0.0266,0.0299,0.0332,0.036,0.0387,0.0417,0.0442,0,0,0,0,0,0,0,0,0,0,0,0,0,0,0,0,0,0,0,0,0,0,0,0,0,0,0,0,0,0,0,0,0,0,0,0,0,0.0038,0.0113,0.0198,0.0275,0.0343,0.0407,0.0464,0.0503,0.0511,0.0494,0.0472,0.0467,0.047,0.0472,0,0,0,0,0,0,0,0,0,0,0,0,0,0,0,0,0,0,0,0,0,0,0,0,0,0,0,0,0,0,0,0,-0.0036,0.0036,0.014,0.0264,0.0376,0.0467,0.0549,0.0596,0.0585,0.0571,0.0585,0.0591,0.0596,0.0599,0.0582,0.0552,0.0483,0.0439,0.0338,0,0,0,0,0,0,0,0,0,0,0,0,0,0,0,0,0,0,0,0,0,0,0,0,0,0,0,-0.008,-0.0016,0.0107,0.0228,0.0302,0.0346,0.0423,0.0527,0.061,0.0678,0.0733,0.0758,0.0755,0.0736,0.0698,0.061,0.053,0.042,0.0211,0,0,0,0,0,0,0,0,0,0,0,0,0,0,0,0,0,0,0,0,0,0,0,0,0,0,0,-0.0099,-0.0019,0.0104,0.0217,0.0277,0.0302,0.0321,0.0379,0.0494,0.064,0.0717,0.0725,0.072,0.0731,0.0747,0.0665,0.053,0.0393,0.0277,0,0,0,0,0,0,0,0,0,0,0,0,0,0,0,0,0,0,0,0,0,0,0,0,0,0,0,-0.0104,0.0049,0.0165,0.0244,0.0305,0.0321,0.0371,0.0456,0.0536,0.0566,0.0637,0.0684,0.0621,0.0577,0.058,0.056,0.05,0.0434,0.0379,0,0,0,0,0,0,0,0,0,0,0,0,0,0,0,0,0,0,0,0,0,0,0,0,0,0,-0.0187,-0.0085,0.0132,0.0201,0.0305,0.0376,0.0442,0.0547,0.0621,0.0659,0.0689,0.07,0.0676,0.0618,0.053,0.047,0.0456,0.0467,0.0475,0.042,0,0,0,0,0,0,0,0,0,0,0,0,0,0,0,0,0,0,0,0,0,0,0,0,0,0,-0.019,-0.0082,0.0113,0.0132,0.0294,0.045,0.053,0.056,0.0623,0.0717,0.0794,0.0799,0.0755,0.0681,0.0607,0.0505,0.0453,0.0431,0.0407,0.0335,0,0,0,0,0,0,0,0,0,0,0,0,0,0,0,0,0,0,0,0,0,0,0,0,0,0,0,-0.0115,0.006,0.0181,0.028,0.0365,0.0448,0.0508,0.0577,0.0684,0.0797,0.0882,0.0854,0.0794,0.0648,0.0423,0.0302,0.0299,0.033,0.0283,0,0,0,0,0,0,0,0,0,0,0,0,0,0,0,0,0,0,0,0,0,0,0,0,0,0,0,-0.0047,0.0184,0.0288,0.0327,0.0428,0.0522,0.0577,0.0577,0.0582,0.0643,0.0783,0.0884,0.0862,0.0684,0.0412,0.0253,0.0184,0.0214,0.0283,0,0,0,0,0,0,0,0,0,0,0,0,0,0,0,0,0,0,0,0,0,0,0,0,0,0,0,0.0157,0.0461,0.0483,0.0514,0.0585,0.0695,0.0769,0.0736,0.0659,0.0536,0.0519,0.0692,0.0819,0.0739,0.0613,0.0571,0.0607,0.0588,0.0467,0,0,0,0,0,0,0,0,0,0,0,0,0,0,0,0,0,0,0,0,0,0,0,0,0,0,0.0049,0.0277,0.0511,0.0591,0.0651,0.075,0.0849,0.0992,0.1027,0.0882,0.067,0.0486,0.0464,0.0626,0.078,0.089,0.0904,0.089,0.0813,0.07,0,0,0,0,0,0,0,0,0,0,0,0,0,0,0,0,0,0,0,0,0,0,0,0,0,0,0.0071,0.0434,0.0544,0.0618,0.0684,0.0777,0.092,0.1104,0.1192,0.1063,0.0808,0.0588,0.05,0.053,0.0747,0.1052,0.1178,0.106,0.0895,0.0775,0,0,0,0,0,0,0,0,0,0,0,0,0,0,0,0,0,0,0,0,0,0,0,0,0,-0.0014,0.0437,0.0574,0.0654,0.0717,0.0838,0.1038,0.1247,0.1362,0.1329,0.1154,0.0923,0.0698,0.0569,0.0585,0.0706,0.0997,0.1192,0.0827,0.0242,-0.0198,0,0,0,0,0,0,0,0,0,0,0,0,0,0,0,0,0,0,0,0,0,0,0,0,0.0233,0.0621,0.0794,0.0972,0.1217,0.1387,0.1486,0.1568,0.1604,0.1568,0.1453,0.1324,0.1176,0.0934,0.0706,0.0665,0.0654,0.0799,0.0827,0.0407,0.0077,0.0033,0,0,0,0,0,0,0,0,0,0,0,0,0,0,0,0,0,0,0,0,0,0,0,0.0711,0.0972,0.12,0.1511,0.1736,0.1909,0.1969,0.1931,0.1868,0.1813,0.1736,0.1623,0.1557,0.1544,0.1354,0.1005,0.0786,0.0728,0.0747,0.078,0.0917,0.1003,0.0895,0,0,0,0,0,0,0,0,0,0,0,0,0,0,0,0,0,0,0,0,0,0.0829,0.1033,0.1214,0.164,0.1978,0.2082,0.2118,0.2131,0.2096,0.2027,0.1972,0.192,0.1807,0.167,0.1626,0.1695,0.1673,0.1409,0.1071,0.0898,0.0942,0.1126,0.1126,0.086,0.0709]},{"header":{"parameterUnit":"m.s-1","parameterCategory":2,"la1":30.5641,"la2":29.4642,"lo1":-89.4342,"lo2":-87.9343,"dy":0.0333,"dx":0.0333,"nx":46,"ny":34,"refTime":"2024-02-26T00:00:00:Z","depth":"25","parameterNumber":3,"parameterNumberName":"V-component_of_CURRENTS"},"data":[0,0,0,0,0,0,0,0,0,0,0,0,0,0,0,0,0,0,0,0,0,0,0,0,0,0,0,0,0,0,0,0,0,0,0,0,0,0,0,0,0,0,0,0,0,0,0,0,0,0,0,0,0,0,0,0,0,0,0,0,0,0,0,0,0,0,0,0,0,0,0,0,0,0,0,0,0,0,0,0,0,0,0,0,0,0,0,0,0,0,0,0,0,0,0,0,0,0,0,0,0,0,0,0,0,0,0,0,0,0,0,0,0,0,0,0,0,0,0,0,0,0,0,0,0,0,0,0,0,0,0,0,0,0,0,0,0,0,0,0,0,0,0,0,0,0,0,0,0,0,0,0,0,0,0,0,0,0,0,0,0,0,0,0,0,0,0,0,0,0,0,0,0,0,0,0,0,0,0,0,0,0,0,0,0,0,0,0,0,0,0,0,0,0,0,0,0,0,0,0,0,0,0,0,0,0,0,0,0,0,0,0,0,0,0,0,0,0,0,0,0,0,0,0,0,0,0,0,0,0,0,0,0,0,0,0,0,0,0,0,0,0,0,0,0,0,0,0,0,0,0,0,0,0,0,0,0,0,0,0,0,0,0,0,0,0,0,0,0,0,0,0,0,0,0,0,0,0,0,0,0,0,0,0,0,0,0,0,0,0,0,0,0,0,0,0,0,0,0,0,0,0,0,0,0,0,0,0,0,0,0,0,0,0,0,0,0,0,0,0,0,0,0,0,0,0,0,0,0,0,0,0,0,0,0,0,0,0,0,0,0,0,0,0,0,0,0,0,0,0,0,0,0,0,0,0,0,0,0,0,0,0,0,0,0,0,0,0,0,0,0,0,0,0,0,0,0,0,0,0,0,0,0,0,0,0,0,0,0,0,0,0,0,0,0,0,0,0,0,0,0,0,0,0,0,0,0,0,0,0,0,0,0,0,0,0,0,0,0,0,0,0,0,0,0,0,0,0,0,0,0,0,0,0,0,0,0,0,0,0,0,0,0,0,0,0,0,0,0,0,0,0,0,0,0,0,0,0,0,0,0,0,0,0,0,0,0,0,0,0,0,0,0,0,0,0,0,0,0,0,0,0,0,0,0,0,0,0,0,0,0,0,0,0,0,0,0,0,0,0,0,0,0,0,0,0,0,0,0,0,0,0,0,0,0,0,0,0,0,0,0,0,0,0,0,0,0,0,0,0,0,0,0,0,0,0,0,0,0,0,0,0,0,0,0,0,0,0,0,0,0,0,0,0,0,0,0,0,0,0,0,0,0,0,0,0,0,0,0,0,0,0,0,0,0,0,0,0,0,0,0,0,0,0,0,0,0,0,0,0,0,0,0,0,0,0,0,0,0,0,0,0,0,0,0,0,0,0,0,0,0,0,0,0,0,0,0,0,0,0,0,0,0,0,0,0,0,0,0,0,0,0,0,0,0,0,0,0,0,0,0,0,0,0,0,0,0,0,0,0,0,0,0,0,0,0,0,0,0,0,0,0,0,0,0,0,0,0,0,0,0,0,0,0,0,0,0,0,0,0,0,0,0,0,0,0,0,0,0,0,0,0,0,0,0,0,0,0,0,0,0,0,0,0,0,0,0,0,0,0,0,0,0,0,0,0,0,0,0,0,0,0,0,0,0,0,0,0,0,0,0,0,0,0,0,0,0,0,0,0,0,0,0,0,0,0,0,0,0,0,0,0,0,0,0,0,0,0,0,0,0,0,0,0,0,0,0,0,0,0,0,0,0,0,0,0,0,0,0,0,0,0,0,0,0,0,0,0,0,0,0,0,0,0,0,0,0,0,0,0,0,0,0,0,0,0,0,0,0,0,0,-0.0019,0.0,0.0016,0.0033,0.0038,0.0027,0.0008,0,0,0,0,0,0,0,0,0,0,0,0,0,0,0,0,0,0,0,0,0,0,0,0,0,0,0,0,0,0,0,0,0,0,0,0,0,-0.0016,0.0025,0.0055,0.0063,0.0058,0.0055,0.0052,0.0047,0.0047,0.0041,0.0014,-0.0019,-0.0016,0.0,0,0,0,0,0,0,0,0,0,0,0,0,0,0,0,0,0,0,0,0,0,0,0,0,0,0,0,0,0,0,0,0,0.0,0.0052,0.008,0.0099,0.0118,0.0135,0.017,0.0135,0.0069,-0.0016,-0.0093,-0.0115,-0.0066,-0.0014,-0.0025,-0.0038,-0.0019,-0.0022,0.0102,0,0,0,0,0,0,0,0,0,0,0,0,0,0,0,0,0,0,0,0,0,0,0,0,0,0,0,0.0022,0.0047,0.0085,0.0146,0.0201,0.0222,0.0244,0.0143,0.0011,-0.0124,-0.0214,-0.0201,-0.0104,-0.0022,-0.0036,-0.0102,-0.0126,-0.0126,0.0082,0,0,0,0,0,0,0,0,0,0,0,0,0,0,0,0,0,0,0,0,0,0,0,0,0,0,0,0.0049,0.006,0.0085,0.0126,0.0217,0.0291,0.0288,0.0195,0.0082,-0.0049,-0.0132,-0.0151,-0.011,-0.0047,-0.0091,-0.0211,-0.0286,-0.0233,-0.0085,0,0,0,0,0,0,0,0,0,0,0,0,0,0,0,0,0,0,0,0,0,0,0,0,0,0,0,0.0052,0.0058,0.0093,0.0157,0.0299,0.0327,0.0294,0.0283,0.0288,0.0165,-0.0044,-0.0143,-0.017,-0.0236,-0.033,-0.0412,-0.0461,-0.0382,-0.0192,0,0,0,0,0,0,0,0,0,0,0,0,0,0,0,0,0,0,0,0,0,0,0,0,0,0,-0.0033,0.0074,0.008,0.0154,0.025,0.0261,0.0222,0.0195,0.0214,0.0275,0.0247,0.008,-0.0124,-0.0264,-0.0415,-0.0505,-0.0555,-0.0569,-0.047,-0.0264,0,0,0,0,0,0,0,0,0,0,0,0,0,0,0,0,0,0,0,0,0,0,0,0,0,0,-0.0005,0.0118,0.0173,0.0277,0.0319,0.0269,0.0184,0.0154,0.0146,0.0151,0.0168,0.0206,0.0022,-0.0261,-0.0464,-0.0569,-0.0643,-0.0648,-0.0555,-0.0374,0,0,0,0,0,0,0,0,0,0,0,0,0,0,0,0,0,0,0,0,0,0,0,0,0,0,0,0.0181,0.0321,0.0396,0.0409,0.0365,0.0288,0.0211,0.0154,0.0085,0.0038,0.0148,0.0143,-0.0173,-0.0519,-0.0711,-0.0764,-0.0764,-0.0676,-0.0475,0,0,0,0,0,0,0,0,0,0,0,0,0,0,0,0,0,0,0,0,0,0,0,0,0,0,0,0.0286,0.0409,0.0525,0.0486,0.0453,0.0379,0.0255,0.0159,-0.0019,-0.014,-0.003,0.011,-0.0055,-0.0544,-0.0904,-0.0884,-0.0786,-0.07,-0.0481,0,0,0,0,0,0,0,0,0,0,0,0,0,0,0,0,0,0,0,0,0,0,0,0,0,0,0,0.0404,0.053,0.0621,0.0632,0.0585,0.053,0.0365,0.0195,0.0005,-0.0228,-0.0203,-0.0058,-0.0085,-0.0571,-0.1104,-0.1003,-0.0731,-0.0558,-0.0319,0,0,0,0,0,0,0,0,0,0,0,0,0,0,0,0,0,0,0,0,0,0,0,0,0,0,0.0343,0.0558,0.0731,0.0769,0.0769,0.0703,0.067,0.0536,0.0242,0.0066,-0.017,-0.0233,-0.0195,-0.0244,-0.0643,-0.1184,-0.1104,-0.0637,-0.0459,-0.0343,0,0,0,0,0,0,0,0,0,0,0,0,0,0,0,0,0,0,0,0,0,0,0,0,0,0,0.0558,0.0725,0.0805,0.0882,0.0851,0.0816,0.0769,0.0618,0.0198,-0.0014,-0.0074,-0.0135,-0.0184,-0.0365,-0.0758,-0.1137,-0.1025,-0.0596,-0.0566,-0.0711,0,0,0,0,0,0,0,0,0,0,0,0,0,0,0,0,0,0,0,0,0,0,0,0,0,0.0593,0.0706,0.0843,0.1033,0.103,0.1,0.0923,0.0772,0.0563,0.0187,-0.006,0.0005,0.0027,-0.0143,-0.039,-0.0813,-0.114,-0.1052,-0.0813,-0.0794,-0.0964,0,0,0,0,0,0,0,0,0,0,0,0,0,0,0,0,0,0,0,0,0,0,0,0,0.0692,0.0813,0.0953,0.1178,0.1343,0.1349,0.1266,0.1088,0.0887,0.0725,0.0569,0.0313,0.0074,0.0003,-0.0135,-0.0382,-0.1014,-0.1401,-0.1258,-0.0948,-0.0926,-0.103,0,0,0,0,0,0,0,0,0,0,0,0,0,0,0,0,0,0,0,0,0,0,0,0.0742,0.0986,0.0989,0.1217,0.1456,0.1599,0.161,0.1497,0.1296,0.1071,0.0879,0.0766,0.0566,0.0118,-0.0201,-0.022,-0.0352,-0.1154,-0.1582,-0.1445,-0.1082,-0.0975,-0.1167,0,0,0,0,0,0,0,0,0,0,0,0,0,0,0,0,0,0,0,0,0,0.0604,0.0846,0.1099,0.1055,0.117,0.1412,0.1596,0.167,0.1596,0.1409,0.1176,0.0972,0.0786,0.0591,0.0393,0.006,-0.0382,-0.0486,-0.058,-0.1255,-0.1571,-0.1675,-0.1513,-0.1318,-0.1346]}]]